<?xml version="1.0" encoding="UTF-8" standalone="no" ?>
<gpx xmlns="http://www.topografix.com/GPX/1/1" xmlns:xsi="http://www.w3.org/2001/XMLSchema-instance" xsi:schemaLocation="http://www.topografix.com/GPX/1/1 http://www.topografix.com/GPX/1/1/gpx.xsd" version="1.1" creator="VisuGPX - https://www.visugpx.com">
  <metadata>
    <name>Resteigne MARCHE ADEPS 2015 (Mars)</name>
    <desc><![CDATA[Petite marche sympa pour se ressourcer
]]></desc>
  </metadata>
  <trk>
    <name><![CDATA[duo  choupy & scooby]]></name>
    <cmt><![CDATA[AVG 12° MAX 22° MIN 08°]]></cmt>
    <trkseg>
      <trkpt lat="50.0866" lon="5.17634">
        <ele>104</ele>
        <time>2015-03-22T12:01:31Z</time>
      </trkpt>
      <trkpt lat="50.08664" lon="5.1764">
        <ele>104</ele>
        <time>2015-03-22T12:01:36Z</time>
      </trkpt>
      <trkpt lat="50.0867" lon="5.17646">
        <ele>103</ele>
        <time>2015-03-22T12:01:42Z</time>
      </trkpt>
      <trkpt lat="50.08675" lon="5.17646">
        <ele>104</ele>
        <time>2015-03-22T12:01:47Z</time>
      </trkpt>
      <trkpt lat="50.08681" lon="5.17644">
        <ele>104</ele>
        <time>2015-03-22T12:01:53Z</time>
      </trkpt>
      <trkpt lat="50.08686" lon="5.1765">
        <ele>104</ele>
        <time>2015-03-22T12:01:58Z</time>
      </trkpt>
      <trkpt lat="50.08689" lon="5.17656">
        <ele>104</ele>
        <time>2015-03-22T12:02:03Z</time>
      </trkpt>
      <trkpt lat="50.08693" lon="5.17664">
        <ele>104</ele>
        <time>2015-03-22T12:02:08Z</time>
      </trkpt>
      <trkpt lat="50.08691" lon="5.17671">
        <ele>104</ele>
        <time>2015-03-22T12:02:13Z</time>
      </trkpt>
      <trkpt lat="50.0869" lon="5.17678">
        <ele>104</ele>
        <time>2015-03-22T12:02:18Z</time>
      </trkpt>
      <trkpt lat="50.08689" lon="5.17685">
        <ele>104</ele>
        <time>2015-03-22T12:02:23Z</time>
      </trkpt>
      <trkpt lat="50.08688" lon="5.17691">
        <ele>105</ele>
        <time>2015-03-22T12:02:28Z</time>
      </trkpt>
      <trkpt lat="50.08686" lon="5.17697">
        <ele>105</ele>
        <time>2015-03-22T12:02:33Z</time>
      </trkpt>
      <trkpt lat="50.08684" lon="5.17703">
        <ele>105</ele>
        <time>2015-03-22T12:02:38Z</time>
      </trkpt>
      <trkpt lat="50.08682" lon="5.1771">
        <ele>105</ele>
        <time>2015-03-22T12:02:43Z</time>
      </trkpt>
      <trkpt lat="50.0868" lon="5.17715">
        <ele>105</ele>
        <time>2015-03-22T12:02:48Z</time>
      </trkpt>
      <trkpt lat="50.0868" lon="5.17722">
        <ele>105</ele>
        <time>2015-03-22T12:02:54Z</time>
      </trkpt>
      <trkpt lat="50.08679" lon="5.17729">
        <ele>105</ele>
        <time>2015-03-22T12:02:59Z</time>
      </trkpt>
      <trkpt lat="50.08676" lon="5.17739">
        <ele>106</ele>
        <time>2015-03-22T12:03:05Z</time>
      </trkpt>
      <trkpt lat="50.08673" lon="5.17748">
        <ele>106</ele>
        <time>2015-03-22T12:03:10Z</time>
      </trkpt>
      <trkpt lat="50.08671" lon="5.17757">
        <ele>106</ele>
        <time>2015-03-22T12:03:15Z</time>
      </trkpt>
      <trkpt lat="50.08669" lon="5.17766">
        <ele>107</ele>
        <time>2015-03-22T12:03:20Z</time>
      </trkpt>
      <trkpt lat="50.08667" lon="5.17773">
        <ele>108</ele>
        <time>2015-03-22T12:03:25Z</time>
      </trkpt>
      <trkpt lat="50.08666" lon="5.17782">
        <ele>108</ele>
        <time>2015-03-22T12:03:31Z</time>
      </trkpt>
      <trkpt lat="50.08664" lon="5.17793">
        <ele>108</ele>
        <time>2015-03-22T12:03:37Z</time>
      </trkpt>
      <trkpt lat="50.08664" lon="5.17797">
        <ele>108</ele>
        <time>2015-03-22T12:03:42Z</time>
      </trkpt>
      <trkpt lat="50.08666" lon="5.17803">
        <ele>109</ele>
        <time>2015-03-22T12:03:47Z</time>
      </trkpt>
      <trkpt lat="50.08665" lon="5.17811">
        <ele>109</ele>
        <time>2015-03-22T12:03:52Z</time>
      </trkpt>
      <trkpt lat="50.08663" lon="5.17819">
        <ele>109</ele>
        <time>2015-03-22T12:03:58Z</time>
      </trkpt>
      <trkpt lat="50.0866" lon="5.17829">
        <ele>110</ele>
        <time>2015-03-22T12:04:03Z</time>
      </trkpt>
      <trkpt lat="50.08658" lon="5.17838">
        <ele>110</ele>
        <time>2015-03-22T12:04:09Z</time>
      </trkpt>
      <trkpt lat="50.08656" lon="5.17847">
        <ele>110</ele>
        <time>2015-03-22T12:04:14Z</time>
      </trkpt>
      <trkpt lat="50.08655" lon="5.17851">
        <ele>110</ele>
        <time>2015-03-22T12:04:19Z</time>
      </trkpt>
      <trkpt lat="50.08654" lon="5.17861">
        <ele>110</ele>
        <time>2015-03-22T12:04:24Z</time>
      </trkpt>
      <trkpt lat="50.08653" lon="5.1787">
        <ele>109</ele>
        <time>2015-03-22T12:04:29Z</time>
      </trkpt>
      <trkpt lat="50.08652" lon="5.1788">
        <ele>109</ele>
        <time>2015-03-22T12:04:34Z</time>
      </trkpt>
      <trkpt lat="50.08651" lon="5.17889">
        <ele>109</ele>
        <time>2015-03-22T12:04:39Z</time>
      </trkpt>
      <trkpt lat="50.08648" lon="5.17897">
        <ele>109</ele>
        <time>2015-03-22T12:04:44Z</time>
      </trkpt>
      <trkpt lat="50.08643" lon="5.17904">
        <ele>109</ele>
        <time>2015-03-22T12:04:49Z</time>
      </trkpt>
      <trkpt lat="50.08639" lon="5.17912">
        <ele>109</ele>
        <time>2015-03-22T12:04:54Z</time>
      </trkpt>
      <trkpt lat="50.08634" lon="5.17918">
        <ele>109</ele>
        <time>2015-03-22T12:04:59Z</time>
      </trkpt>
      <trkpt lat="50.08628" lon="5.17923">
        <ele>109</ele>
        <time>2015-03-22T12:05:04Z</time>
      </trkpt>
      <trkpt lat="50.08622" lon="5.17929">
        <ele>109</ele>
        <time>2015-03-22T12:05:10Z</time>
      </trkpt>
      <trkpt lat="50.08617" lon="5.17935">
        <ele>109</ele>
        <time>2015-03-22T12:05:15Z</time>
      </trkpt>
      <trkpt lat="50.08611" lon="5.1794">
        <ele>109</ele>
        <time>2015-03-22T12:05:21Z</time>
      </trkpt>
      <trkpt lat="50.0861" lon="5.1794">
        <ele>109</ele>
        <time>2015-03-22T12:05:27Z</time>
      </trkpt>
      <trkpt lat="50.08608" lon="5.17943">
        <ele>109</ele>
        <time>2015-03-22T12:05:32Z</time>
      </trkpt>
      <trkpt lat="50.08603" lon="5.17947">
        <ele>109</ele>
        <time>2015-03-22T12:05:37Z</time>
      </trkpt>
      <trkpt lat="50.08596" lon="5.17952">
        <ele>108</ele>
        <time>2015-03-22T12:05:43Z</time>
      </trkpt>
      <trkpt lat="50.08591" lon="5.17956">
        <ele>109</ele>
        <time>2015-03-22T12:05:48Z</time>
      </trkpt>
      <trkpt lat="50.08586" lon="5.17959">
        <ele>109</ele>
        <time>2015-03-22T12:05:53Z</time>
      </trkpt>
      <trkpt lat="50.08581" lon="5.17964">
        <ele>109</ele>
        <time>2015-03-22T12:05:58Z</time>
      </trkpt>
      <trkpt lat="50.08576" lon="5.17967">
        <ele>109</ele>
        <time>2015-03-22T12:06:03Z</time>
      </trkpt>
      <trkpt lat="50.0857" lon="5.17972">
        <ele>110</ele>
        <time>2015-03-22T12:06:08Z</time>
      </trkpt>
      <trkpt lat="50.08564" lon="5.17978">
        <ele>110</ele>
        <time>2015-03-22T12:06:14Z</time>
      </trkpt>
      <trkpt lat="50.08559" lon="5.17982">
        <ele>110</ele>
        <time>2015-03-22T12:06:19Z</time>
      </trkpt>
      <trkpt lat="50.08553" lon="5.17988">
        <ele>110</ele>
        <time>2015-03-22T12:06:25Z</time>
      </trkpt>
      <trkpt lat="50.08547" lon="5.17993">
        <ele>110</ele>
        <time>2015-03-22T12:06:30Z</time>
      </trkpt>
      <trkpt lat="50.08541" lon="5.17999">
        <ele>110</ele>
        <time>2015-03-22T12:06:36Z</time>
      </trkpt>
      <trkpt lat="50.08536" lon="5.18004">
        <ele>111</ele>
        <time>2015-03-22T12:06:41Z</time>
      </trkpt>
      <trkpt lat="50.0853" lon="5.1801">
        <ele>111</ele>
        <time>2015-03-22T12:06:47Z</time>
      </trkpt>
      <trkpt lat="50.08525" lon="5.18015">
        <ele>111</ele>
        <time>2015-03-22T12:06:52Z</time>
      </trkpt>
      <trkpt lat="50.08519" lon="5.1802">
        <ele>111</ele>
        <time>2015-03-22T12:06:58Z</time>
      </trkpt>
      <trkpt lat="50.08513" lon="5.18026">
        <ele>110</ele>
        <time>2015-03-22T12:07:04Z</time>
      </trkpt>
      <trkpt lat="50.08507" lon="5.1803">
        <ele>111</ele>
        <time>2015-03-22T12:07:10Z</time>
      </trkpt>
      <trkpt lat="50.08501" lon="5.18034">
        <ele>111</ele>
        <time>2015-03-22T12:07:15Z</time>
      </trkpt>
      <trkpt lat="50.08495" lon="5.18038">
        <ele>111</ele>
        <time>2015-03-22T12:07:20Z</time>
      </trkpt>
      <trkpt lat="50.0849" lon="5.18039">
        <ele>111</ele>
        <time>2015-03-22T12:07:25Z</time>
      </trkpt>
      <trkpt lat="50.08483" lon="5.18041">
        <ele>111</ele>
        <time>2015-03-22T12:07:31Z</time>
      </trkpt>
      <trkpt lat="50.08477" lon="5.18043">
        <ele>112</ele>
        <time>2015-03-22T12:07:36Z</time>
      </trkpt>
      <trkpt lat="50.08472" lon="5.18044">
        <ele>112</ele>
        <time>2015-03-22T12:07:41Z</time>
      </trkpt>
      <trkpt lat="50.08465" lon="5.18046">
        <ele>112</ele>
        <time>2015-03-22T12:07:47Z</time>
      </trkpt>
      <trkpt lat="50.08459" lon="5.18048">
        <ele>112</ele>
        <time>2015-03-22T12:07:52Z</time>
      </trkpt>
      <trkpt lat="50.08451" lon="5.1805">
        <ele>112</ele>
        <time>2015-03-22T12:07:58Z</time>
      </trkpt>
      <trkpt lat="50.08446" lon="5.18052">
        <ele>113</ele>
        <time>2015-03-22T12:08:03Z</time>
      </trkpt>
      <trkpt lat="50.08439" lon="5.18054">
        <ele>113</ele>
        <time>2015-03-22T12:08:09Z</time>
      </trkpt>
      <trkpt lat="50.08432" lon="5.18055">
        <ele>113</ele>
        <time>2015-03-22T12:08:15Z</time>
      </trkpt>
      <trkpt lat="50.08425" lon="5.18057">
        <ele>113</ele>
        <time>2015-03-22T12:08:21Z</time>
      </trkpt>
      <trkpt lat="50.08419" lon="5.18059">
        <ele>113</ele>
        <time>2015-03-22T12:08:26Z</time>
      </trkpt>
      <trkpt lat="50.08412" lon="5.18062">
        <ele>113</ele>
        <time>2015-03-22T12:08:32Z</time>
      </trkpt>
      <trkpt lat="50.08406" lon="5.18064">
        <ele>113</ele>
        <time>2015-03-22T12:08:37Z</time>
      </trkpt>
      <trkpt lat="50.08399" lon="5.18066">
        <ele>114</ele>
        <time>2015-03-22T12:08:43Z</time>
      </trkpt>
      <trkpt lat="50.08393" lon="5.18069">
        <ele>114</ele>
        <time>2015-03-22T12:08:48Z</time>
      </trkpt>
      <trkpt lat="50.08387" lon="5.18071">
        <ele>114</ele>
        <time>2015-03-22T12:08:53Z</time>
      </trkpt>
      <trkpt lat="50.08381" lon="5.18072">
        <ele>114</ele>
        <time>2015-03-22T12:08:58Z</time>
      </trkpt>
      <trkpt lat="50.08376" lon="5.1807">
        <ele>114</ele>
        <time>2015-03-22T12:09:03Z</time>
      </trkpt>
      <trkpt lat="50.08374" lon="5.18061">
        <ele>114</ele>
        <time>2015-03-22T12:09:08Z</time>
      </trkpt>
      <trkpt lat="50.08372" lon="5.18051">
        <ele>114</ele>
        <time>2015-03-22T12:09:13Z</time>
      </trkpt>
      <trkpt lat="50.08369" lon="5.18045">
        <ele>114</ele>
        <time>2015-03-22T12:09:19Z</time>
      </trkpt>
      <trkpt lat="50.08368" lon="5.18039">
        <ele>114</ele>
        <time>2015-03-22T12:09:24Z</time>
      </trkpt>
      <trkpt lat="50.08368" lon="5.18028">
        <ele>114</ele>
        <time>2015-03-22T12:09:30Z</time>
      </trkpt>
      <trkpt lat="50.08367" lon="5.18019">
        <ele>114</ele>
        <time>2015-03-22T12:09:35Z</time>
      </trkpt>
      <trkpt lat="50.08365" lon="5.18008">
        <ele>114</ele>
        <time>2015-03-22T12:09:41Z</time>
      </trkpt>
      <trkpt lat="50.08364" lon="5.17998">
        <ele>114</ele>
        <time>2015-03-22T12:09:46Z</time>
      </trkpt>
      <trkpt lat="50.08362" lon="5.17987">
        <ele>114</ele>
        <time>2015-03-22T12:09:52Z</time>
      </trkpt>
      <trkpt lat="50.08361" lon="5.17977">
        <ele>114</ele>
        <time>2015-03-22T12:09:57Z</time>
      </trkpt>
      <trkpt lat="50.08359" lon="5.17969">
        <ele>114</ele>
        <time>2015-03-22T12:10:02Z</time>
      </trkpt>
      <trkpt lat="50.08356" lon="5.1796">
        <ele>114</ele>
        <time>2015-03-22T12:10:08Z</time>
      </trkpt>
      <trkpt lat="50.08356" lon="5.17951">
        <ele>114</ele>
        <time>2015-03-22T12:10:13Z</time>
      </trkpt>
      <trkpt lat="50.08355" lon="5.1794">
        <ele>114</ele>
        <time>2015-03-22T12:10:19Z</time>
      </trkpt>
      <trkpt lat="50.08354" lon="5.17932">
        <ele>114</ele>
        <time>2015-03-22T12:10:24Z</time>
      </trkpt>
      <trkpt lat="50.08353" lon="5.17921">
        <ele>114</ele>
        <time>2015-03-22T12:10:30Z</time>
      </trkpt>
      <trkpt lat="50.08351" lon="5.17911">
        <ele>114</ele>
        <time>2015-03-22T12:10:35Z</time>
      </trkpt>
      <trkpt lat="50.0835" lon="5.179">
        <ele>114</ele>
        <time>2015-03-22T12:10:41Z</time>
      </trkpt>
      <trkpt lat="50.08348" lon="5.17891">
        <ele>114</ele>
        <time>2015-03-22T12:10:46Z</time>
      </trkpt>
      <trkpt lat="50.08347" lon="5.17881">
        <ele>114</ele>
        <time>2015-03-22T12:10:52Z</time>
      </trkpt>
      <trkpt lat="50.08345" lon="5.17872">
        <ele>114</ele>
        <time>2015-03-22T12:10:57Z</time>
      </trkpt>
      <trkpt lat="50.08344" lon="5.17865">
        <ele>114</ele>
        <time>2015-03-22T12:11:03Z</time>
      </trkpt>
      <trkpt lat="50.08345" lon="5.17864">
        <ele>114</ele>
        <time>2015-03-22T12:11:08Z</time>
      </trkpt>
      <trkpt lat="50.08343" lon="5.17854">
        <ele>114</ele>
        <time>2015-03-22T12:11:14Z</time>
      </trkpt>
      <trkpt lat="50.08341" lon="5.17845">
        <ele>114</ele>
        <time>2015-03-22T12:11:19Z</time>
      </trkpt>
      <trkpt lat="50.08339" lon="5.17835">
        <ele>114</ele>
        <time>2015-03-22T12:11:25Z</time>
      </trkpt>
      <trkpt lat="50.08335" lon="5.17826">
        <ele>114</ele>
        <time>2015-03-22T12:11:31Z</time>
      </trkpt>
      <trkpt lat="50.08331" lon="5.17816">
        <ele>114</ele>
        <time>2015-03-22T12:11:37Z</time>
      </trkpt>
      <trkpt lat="50.08329" lon="5.17808">
        <ele>114</ele>
        <time>2015-03-22T12:11:42Z</time>
      </trkpt>
      <trkpt lat="50.08325" lon="5.17799">
        <ele>115</ele>
        <time>2015-03-22T12:11:48Z</time>
      </trkpt>
      <trkpt lat="50.08323" lon="5.1779">
        <ele>114</ele>
        <time>2015-03-22T12:11:53Z</time>
      </trkpt>
      <trkpt lat="50.0832" lon="5.1778">
        <ele>115</ele>
        <time>2015-03-22T12:11:59Z</time>
      </trkpt>
      <trkpt lat="50.08317" lon="5.17771">
        <ele>115</ele>
        <time>2015-03-22T12:12:04Z</time>
      </trkpt>
      <trkpt lat="50.08314" lon="5.17763">
        <ele>114</ele>
        <time>2015-03-22T12:12:10Z</time>
      </trkpt>
      <trkpt lat="50.08311" lon="5.17753">
        <ele>114</ele>
        <time>2015-03-22T12:12:16Z</time>
      </trkpt>
      <trkpt lat="50.08308" lon="5.17742">
        <ele>114</ele>
        <time>2015-03-22T12:12:22Z</time>
      </trkpt>
      <trkpt lat="50.08308" lon="5.17733">
        <ele>115</ele>
        <time>2015-03-22T12:12:27Z</time>
      </trkpt>
      <trkpt lat="50.08305" lon="5.17725">
        <ele>115</ele>
        <time>2015-03-22T12:12:32Z</time>
      </trkpt>
      <trkpt lat="50.083" lon="5.1772">
        <ele>116</ele>
        <time>2015-03-22T12:12:38Z</time>
      </trkpt>
      <trkpt lat="50.08295" lon="5.17718">
        <ele>116</ele>
        <time>2015-03-22T12:12:43Z</time>
      </trkpt>
      <trkpt lat="50.0829" lon="5.17717">
        <ele>116</ele>
        <time>2015-03-22T12:12:48Z</time>
      </trkpt>
      <trkpt lat="50.08285" lon="5.17717">
        <ele>117</ele>
        <time>2015-03-22T12:12:53Z</time>
      </trkpt>
      <trkpt lat="50.08277" lon="5.17717">
        <ele>117</ele>
        <time>2015-03-22T12:12:59Z</time>
      </trkpt>
      <trkpt lat="50.08269" lon="5.17719">
        <ele>118</ele>
        <time>2015-03-22T12:13:05Z</time>
      </trkpt>
      <trkpt lat="50.08262" lon="5.17721">
        <ele>119</ele>
        <time>2015-03-22T12:13:11Z</time>
      </trkpt>
      <trkpt lat="50.0826" lon="5.1772">
        <ele>119</ele>
        <time>2015-03-22T12:13:16Z</time>
      </trkpt>
      <trkpt lat="50.08259" lon="5.1772">
        <ele>119</ele>
        <time>2015-03-22T12:13:22Z</time>
      </trkpt>
      <trkpt lat="50.08255" lon="5.17716">
        <ele>120</ele>
        <time>2015-03-22T12:13:27Z</time>
      </trkpt>
      <trkpt lat="50.0825" lon="5.1771">
        <ele>119</ele>
        <time>2015-03-22T12:13:32Z</time>
      </trkpt>
      <trkpt lat="50.08246" lon="5.17704">
        <ele>119</ele>
        <time>2015-03-22T12:13:37Z</time>
      </trkpt>
      <trkpt lat="50.0824" lon="5.17698">
        <ele>119</ele>
        <time>2015-03-22T12:13:43Z</time>
      </trkpt>
      <trkpt lat="50.08236" lon="5.17692">
        <ele>119</ele>
        <time>2015-03-22T12:13:48Z</time>
      </trkpt>
      <trkpt lat="50.08229" lon="5.17685">
        <ele>119</ele>
        <time>2015-03-22T12:13:54Z</time>
      </trkpt>
      <trkpt lat="50.08223" lon="5.17678">
        <ele>119</ele>
        <time>2015-03-22T12:14:00Z</time>
      </trkpt>
      <trkpt lat="50.08219" lon="5.17671">
        <ele>119</ele>
        <time>2015-03-22T12:14:06Z</time>
      </trkpt>
      <trkpt lat="50.08213" lon="5.17672">
        <ele>119</ele>
        <time>2015-03-22T12:14:12Z</time>
      </trkpt>
      <trkpt lat="50.08205" lon="5.17671">
        <ele>119</ele>
        <time>2015-03-22T12:14:18Z</time>
      </trkpt>
      <trkpt lat="50.08199" lon="5.1767">
        <ele>120</ele>
        <time>2015-03-22T12:14:23Z</time>
      </trkpt>
      <trkpt lat="50.08191" lon="5.17669">
        <ele>121</ele>
        <time>2015-03-22T12:14:29Z</time>
      </trkpt>
      <trkpt lat="50.08186" lon="5.17667">
        <ele>121</ele>
        <time>2015-03-22T12:14:34Z</time>
      </trkpt>
      <trkpt lat="50.08179" lon="5.17665">
        <ele>122</ele>
        <time>2015-03-22T12:14:40Z</time>
      </trkpt>
      <trkpt lat="50.08174" lon="5.17663">
        <ele>123</ele>
        <time>2015-03-22T12:14:45Z</time>
      </trkpt>
      <trkpt lat="50.08168" lon="5.17659">
        <ele>123</ele>
        <time>2015-03-22T12:14:51Z</time>
      </trkpt>
      <trkpt lat="50.08163" lon="5.17656">
        <ele>123</ele>
        <time>2015-03-22T12:14:56Z</time>
      </trkpt>
      <trkpt lat="50.08158" lon="5.17651">
        <ele>124</ele>
        <time>2015-03-22T12:15:02Z</time>
      </trkpt>
      <trkpt lat="50.08153" lon="5.17647">
        <ele>125</ele>
        <time>2015-03-22T12:15:07Z</time>
      </trkpt>
      <trkpt lat="50.08148" lon="5.17643">
        <ele>124</ele>
        <time>2015-03-22T12:15:13Z</time>
      </trkpt>
      <trkpt lat="50.08143" lon="5.17639">
        <ele>125</ele>
        <time>2015-03-22T12:15:18Z</time>
      </trkpt>
      <trkpt lat="50.08138" lon="5.17634">
        <ele>126</ele>
        <time>2015-03-22T12:15:24Z</time>
      </trkpt>
      <trkpt lat="50.08134" lon="5.17631">
        <ele>126</ele>
        <time>2015-03-22T12:15:29Z</time>
      </trkpt>
      <trkpt lat="50.08129" lon="5.17629">
        <ele>127</ele>
        <time>2015-03-22T12:15:35Z</time>
      </trkpt>
      <trkpt lat="50.08124" lon="5.17627">
        <ele>127</ele>
        <time>2015-03-22T12:15:40Z</time>
      </trkpt>
      <trkpt lat="50.08119" lon="5.17627">
        <ele>127</ele>
        <time>2015-03-22T12:15:45Z</time>
      </trkpt>
      <trkpt lat="50.08113" lon="5.17628">
        <ele>128</ele>
        <time>2015-03-22T12:15:50Z</time>
      </trkpt>
      <trkpt lat="50.08107" lon="5.1763">
        <ele>128</ele>
        <time>2015-03-22T12:15:56Z</time>
      </trkpt>
      <trkpt lat="50.08103" lon="5.17631">
        <ele>128</ele>
        <time>2015-03-22T12:16:01Z</time>
      </trkpt>
      <trkpt lat="50.081" lon="5.17628">
        <ele>129</ele>
        <time>2015-03-22T12:16:06Z</time>
      </trkpt>
      <trkpt lat="50.08097" lon="5.17626">
        <ele>129</ele>
        <time>2015-03-22T12:16:12Z</time>
      </trkpt>
      <trkpt lat="50.08094" lon="5.17625">
        <ele>129</ele>
        <time>2015-03-22T12:16:18Z</time>
      </trkpt>
      <trkpt lat="50.0809" lon="5.17624">
        <ele>129</ele>
        <time>2015-03-22T12:16:24Z</time>
      </trkpt>
      <trkpt lat="50.08086" lon="5.17625">
        <ele>130</ele>
        <time>2015-03-22T12:16:29Z</time>
      </trkpt>
      <trkpt lat="50.08081" lon="5.17625">
        <ele>130</ele>
        <time>2015-03-22T12:16:34Z</time>
      </trkpt>
      <trkpt lat="50.08077" lon="5.17626">
        <ele>130</ele>
        <time>2015-03-22T12:16:40Z</time>
      </trkpt>
      <trkpt lat="50.08073" lon="5.17626">
        <ele>130</ele>
        <time>2015-03-22T12:16:45Z</time>
      </trkpt>
      <trkpt lat="50.08067" lon="5.17627">
        <ele>131</ele>
        <time>2015-03-22T12:16:51Z</time>
      </trkpt>
      <trkpt lat="50.08062" lon="5.17628">
        <ele>132</ele>
        <time>2015-03-22T12:16:56Z</time>
      </trkpt>
      <trkpt lat="50.08057" lon="5.17627">
        <ele>131</ele>
        <time>2015-03-22T12:17:01Z</time>
      </trkpt>
      <trkpt lat="50.08052" lon="5.17626">
        <ele>132</ele>
        <time>2015-03-22T12:17:07Z</time>
      </trkpt>
      <trkpt lat="50.08046" lon="5.17624">
        <ele>132</ele>
        <time>2015-03-22T12:17:13Z</time>
      </trkpt>
      <trkpt lat="50.08041" lon="5.17623">
        <ele>133</ele>
        <time>2015-03-22T12:17:18Z</time>
      </trkpt>
      <trkpt lat="50.08038" lon="5.1762">
        <ele>133</ele>
        <time>2015-03-22T12:17:23Z</time>
      </trkpt>
      <trkpt lat="50.08033" lon="5.17615">
        <ele>134</ele>
        <time>2015-03-22T12:17:29Z</time>
      </trkpt>
      <trkpt lat="50.08028" lon="5.17611">
        <ele>134</ele>
        <time>2015-03-22T12:17:35Z</time>
      </trkpt>
      <trkpt lat="50.08023" lon="5.17607">
        <ele>135</ele>
        <time>2015-03-22T12:17:41Z</time>
      </trkpt>
      <trkpt lat="50.08017" lon="5.17603">
        <ele>135</ele>
        <time>2015-03-22T12:17:47Z</time>
      </trkpt>
      <trkpt lat="50.08013" lon="5.176">
        <ele>135</ele>
        <time>2015-03-22T12:17:52Z</time>
      </trkpt>
      <trkpt lat="50.08006" lon="5.17597">
        <ele>136</ele>
        <time>2015-03-22T12:17:58Z</time>
      </trkpt>
      <trkpt lat="50.08001" lon="5.17595">
        <ele>136</ele>
        <time>2015-03-22T12:18:03Z</time>
      </trkpt>
      <trkpt lat="50.07995" lon="5.17591">
        <ele>136</ele>
        <time>2015-03-22T12:18:09Z</time>
      </trkpt>
      <trkpt lat="50.0799" lon="5.17588">
        <ele>137</ele>
        <time>2015-03-22T12:18:14Z</time>
      </trkpt>
      <trkpt lat="50.07986" lon="5.17586">
        <ele>137</ele>
        <time>2015-03-22T12:18:19Z</time>
      </trkpt>
      <trkpt lat="50.0798" lon="5.17584">
        <ele>137</ele>
        <time>2015-03-22T12:18:24Z</time>
      </trkpt>
      <trkpt lat="50.07975" lon="5.17581">
        <ele>138</ele>
        <time>2015-03-22T12:18:30Z</time>
      </trkpt>
      <trkpt lat="50.07971" lon="5.17578">
        <ele>139</ele>
        <time>2015-03-22T12:18:35Z</time>
      </trkpt>
      <trkpt lat="50.07966" lon="5.17576">
        <ele>139</ele>
        <time>2015-03-22T12:18:40Z</time>
      </trkpt>
      <trkpt lat="50.07961" lon="5.17573">
        <ele>139</ele>
        <time>2015-03-22T12:18:45Z</time>
      </trkpt>
      <trkpt lat="50.07955" lon="5.17571">
        <ele>140</ele>
        <time>2015-03-22T12:18:51Z</time>
      </trkpt>
      <trkpt lat="50.0795" lon="5.1757">
        <ele>141</ele>
        <time>2015-03-22T12:18:56Z</time>
      </trkpt>
      <trkpt lat="50.07945" lon="5.17568">
        <ele>142</ele>
        <time>2015-03-22T12:19:01Z</time>
      </trkpt>
      <trkpt lat="50.07941" lon="5.17564">
        <ele>142</ele>
        <time>2015-03-22T12:19:06Z</time>
      </trkpt>
      <trkpt lat="50.07936" lon="5.1756">
        <ele>142</ele>
        <time>2015-03-22T12:19:12Z</time>
      </trkpt>
      <trkpt lat="50.07931" lon="5.17557">
        <ele>142</ele>
        <time>2015-03-22T12:19:17Z</time>
      </trkpt>
      <trkpt lat="50.07925" lon="5.17552">
        <ele>143</ele>
        <time>2015-03-22T12:19:23Z</time>
      </trkpt>
      <trkpt lat="50.0792" lon="5.17549">
        <ele>143</ele>
        <time>2015-03-22T12:19:28Z</time>
      </trkpt>
      <trkpt lat="50.07915" lon="5.17547">
        <ele>143</ele>
        <time>2015-03-22T12:19:33Z</time>
      </trkpt>
      <trkpt lat="50.07909" lon="5.17545">
        <ele>144</ele>
        <time>2015-03-22T12:19:39Z</time>
      </trkpt>
      <trkpt lat="50.07903" lon="5.17545">
        <ele>144</ele>
        <time>2015-03-22T12:19:44Z</time>
      </trkpt>
      <trkpt lat="50.07898" lon="5.17545">
        <ele>144</ele>
        <time>2015-03-22T12:19:49Z</time>
      </trkpt>
      <trkpt lat="50.07893" lon="5.17546">
        <ele>145</ele>
        <time>2015-03-22T12:19:55Z</time>
      </trkpt>
      <trkpt lat="50.07891" lon="5.17547">
        <ele>146</ele>
        <time>2015-03-22T12:20:00Z</time>
      </trkpt>
      <trkpt lat="50.07887" lon="5.1755">
        <ele>146</ele>
        <time>2015-03-22T12:20:06Z</time>
      </trkpt>
      <trkpt lat="50.07883" lon="5.17552">
        <ele>147</ele>
        <time>2015-03-22T12:20:11Z</time>
      </trkpt>
      <trkpt lat="50.0788" lon="5.17556">
        <ele>147</ele>
        <time>2015-03-22T12:20:17Z</time>
      </trkpt>
      <trkpt lat="50.07875" lon="5.17558">
        <ele>147</ele>
        <time>2015-03-22T12:20:22Z</time>
      </trkpt>
      <trkpt lat="50.07869" lon="5.17561">
        <ele>147</ele>
        <time>2015-03-22T12:20:28Z</time>
      </trkpt>
      <trkpt lat="50.07864" lon="5.17565">
        <ele>148</ele>
        <time>2015-03-22T12:20:34Z</time>
      </trkpt>
      <trkpt lat="50.07859" lon="5.17569">
        <ele>147</ele>
        <time>2015-03-22T12:20:39Z</time>
      </trkpt>
      <trkpt lat="50.07855" lon="5.17573">
        <ele>148</ele>
        <time>2015-03-22T12:20:44Z</time>
      </trkpt>
      <trkpt lat="50.07849" lon="5.17578">
        <ele>148</ele>
        <time>2015-03-22T12:20:50Z</time>
      </trkpt>
      <trkpt lat="50.07842" lon="5.17583">
        <ele>148</ele>
        <time>2015-03-22T12:20:56Z</time>
      </trkpt>
      <trkpt lat="50.07838" lon="5.17587">
        <ele>148</ele>
        <time>2015-03-22T12:21:02Z</time>
      </trkpt>
      <trkpt lat="50.07836" lon="5.17586">
        <ele>148</ele>
        <time>2015-03-22T12:21:07Z</time>
      </trkpt>
      <trkpt lat="50.07834" lon="5.17586">
        <ele>148</ele>
        <time>2015-03-22T12:21:13Z</time>
      </trkpt>
      <trkpt lat="50.07833" lon="5.17585">
        <ele>149</ele>
        <time>2015-03-22T12:21:19Z</time>
      </trkpt>
      <trkpt lat="50.07831" lon="5.17586">
        <ele>148</ele>
        <time>2015-03-22T12:21:25Z</time>
      </trkpt>
      <trkpt lat="50.07828" lon="5.17589">
        <ele>148</ele>
        <time>2015-03-22T12:21:30Z</time>
      </trkpt>
      <trkpt lat="50.07827" lon="5.17595">
        <ele>148</ele>
        <time>2015-03-22T12:21:36Z</time>
      </trkpt>
      <trkpt lat="50.07824" lon="5.17599">
        <ele>148</ele>
        <time>2015-03-22T12:21:41Z</time>
      </trkpt>
      <trkpt lat="50.07819" lon="5.17603">
        <ele>148</ele>
        <time>2015-03-22T12:21:47Z</time>
      </trkpt>
      <trkpt lat="50.07813" lon="5.1761">
        <ele>148</ele>
        <time>2015-03-22T12:21:52Z</time>
      </trkpt>
      <trkpt lat="50.07807" lon="5.17617">
        <ele>148</ele>
        <time>2015-03-22T12:21:58Z</time>
      </trkpt>
      <trkpt lat="50.07803" lon="5.17623">
        <ele>148</ele>
        <time>2015-03-22T12:22:03Z</time>
      </trkpt>
      <trkpt lat="50.07797" lon="5.17627">
        <ele>148</ele>
        <time>2015-03-22T12:22:09Z</time>
      </trkpt>
      <trkpt lat="50.07792" lon="5.17631">
        <ele>148</ele>
        <time>2015-03-22T12:22:14Z</time>
      </trkpt>
      <trkpt lat="50.07787" lon="5.17634">
        <ele>148</ele>
        <time>2015-03-22T12:22:19Z</time>
      </trkpt>
      <trkpt lat="50.0778" lon="5.17637">
        <ele>148</ele>
        <time>2015-03-22T12:22:25Z</time>
      </trkpt>
      <trkpt lat="50.07774" lon="5.17639">
        <ele>148</ele>
        <time>2015-03-22T12:22:30Z</time>
      </trkpt>
      <trkpt lat="50.07767" lon="5.17639">
        <ele>148</ele>
        <time>2015-03-22T12:22:35Z</time>
      </trkpt>
      <trkpt lat="50.0776" lon="5.17637">
        <ele>148</ele>
        <time>2015-03-22T12:22:40Z</time>
      </trkpt>
      <trkpt lat="50.07753" lon="5.17634">
        <ele>149</ele>
        <time>2015-03-22T12:22:45Z</time>
      </trkpt>
      <trkpt lat="50.07749" lon="5.1763">
        <ele>150</ele>
        <time>2015-03-22T12:22:51Z</time>
      </trkpt>
      <trkpt lat="50.07745" lon="5.17627">
        <ele>150</ele>
        <time>2015-03-22T12:22:56Z</time>
      </trkpt>
      <trkpt lat="50.07745" lon="5.17627">
        <ele>150</ele>
        <time>2015-03-22T12:23:03Z</time>
      </trkpt>
      <trkpt lat="50.07746" lon="5.17626">
        <ele>150</ele>
        <time>2015-03-22T12:23:08Z</time>
      </trkpt>
      <trkpt lat="50.07747" lon="5.17625">
        <ele>150</ele>
        <time>2015-03-22T12:23:14Z</time>
      </trkpt>
      <trkpt lat="50.07747" lon="5.17624">
        <ele>150</ele>
        <time>2015-03-22T12:23:19Z</time>
      </trkpt>
      <trkpt lat="50.07747" lon="5.17623">
        <ele>150</ele>
        <time>2015-03-22T12:23:25Z</time>
      </trkpt>
      <trkpt lat="50.07748" lon="5.17622">
        <ele>150</ele>
        <time>2015-03-22T12:23:31Z</time>
      </trkpt>
      <trkpt lat="50.07747" lon="5.17622">
        <ele>150</ele>
        <time>2015-03-22T12:23:37Z</time>
      </trkpt>
      <trkpt lat="50.07747" lon="5.17622">
        <ele>150</ele>
        <time>2015-03-22T12:23:42Z</time>
      </trkpt>
      <trkpt lat="50.07747" lon="5.17623">
        <ele>150</ele>
        <time>2015-03-22T12:23:48Z</time>
      </trkpt>
      <trkpt lat="50.07747" lon="5.17623">
        <ele>150</ele>
        <time>2015-03-22T12:23:54Z</time>
      </trkpt>
      <trkpt lat="50.07745" lon="5.1762">
        <ele>150</ele>
        <time>2015-03-22T12:24:00Z</time>
      </trkpt>
      <trkpt lat="50.07742" lon="5.17615">
        <ele>151</ele>
        <time>2015-03-22T12:24:05Z</time>
      </trkpt>
      <trkpt lat="50.07739" lon="5.17609">
        <ele>151</ele>
        <time>2015-03-22T12:24:11Z</time>
      </trkpt>
      <trkpt lat="50.07735" lon="5.17604">
        <ele>152</ele>
        <time>2015-03-22T12:24:16Z</time>
      </trkpt>
      <trkpt lat="50.07734" lon="5.176">
        <ele>152</ele>
        <time>2015-03-22T12:24:22Z</time>
      </trkpt>
      <trkpt lat="50.07732" lon="5.17601">
        <ele>153</ele>
        <time>2015-03-22T12:24:27Z</time>
      </trkpt>
      <trkpt lat="50.0773" lon="5.17601">
        <ele>153</ele>
        <time>2015-03-22T12:24:33Z</time>
      </trkpt>
      <trkpt lat="50.07726" lon="5.17601">
        <ele>153</ele>
        <time>2015-03-22T12:24:39Z</time>
      </trkpt>
      <trkpt lat="50.07725" lon="5.17595">
        <ele>153</ele>
        <time>2015-03-22T12:24:44Z</time>
      </trkpt>
      <trkpt lat="50.07718" lon="5.17589">
        <ele>154</ele>
        <time>2015-03-22T12:24:49Z</time>
      </trkpt>
      <trkpt lat="50.07711" lon="5.17582">
        <ele>155</ele>
        <time>2015-03-22T12:24:54Z</time>
      </trkpt>
      <trkpt lat="50.07702" lon="5.1757">
        <ele>156</ele>
        <time>2015-03-22T12:25:00Z</time>
      </trkpt>
      <trkpt lat="50.07698" lon="5.17561">
        <ele>156</ele>
        <time>2015-03-22T12:25:05Z</time>
      </trkpt>
      <trkpt lat="50.07694" lon="5.1755">
        <ele>156</ele>
        <time>2015-03-22T12:25:10Z</time>
      </trkpt>
      <trkpt lat="50.07694" lon="5.17543">
        <ele>156</ele>
        <time>2015-03-22T12:25:15Z</time>
      </trkpt>
      <trkpt lat="50.07692" lon="5.17535">
        <ele>157</ele>
        <time>2015-03-22T12:25:20Z</time>
      </trkpt>
      <trkpt lat="50.07689" lon="5.1753">
        <ele>157</ele>
        <time>2015-03-22T12:25:26Z</time>
      </trkpt>
      <trkpt lat="50.07685" lon="5.17521">
        <ele>157</ele>
        <time>2015-03-22T12:25:32Z</time>
      </trkpt>
      <trkpt lat="50.07681" lon="5.17514">
        <ele>157</ele>
        <time>2015-03-22T12:25:38Z</time>
      </trkpt>
      <trkpt lat="50.07677" lon="5.1751">
        <ele>158</ele>
        <time>2015-03-22T12:25:43Z</time>
      </trkpt>
      <trkpt lat="50.07674" lon="5.17509">
        <ele>158</ele>
        <time>2015-03-22T12:25:48Z</time>
      </trkpt>
      <trkpt lat="50.07668" lon="5.17506">
        <ele>159</ele>
        <time>2015-03-22T12:25:54Z</time>
      </trkpt>
      <trkpt lat="50.07663" lon="5.17503">
        <ele>159</ele>
        <time>2015-03-22T12:25:59Z</time>
      </trkpt>
      <trkpt lat="50.07658" lon="5.17502">
        <ele>160</ele>
        <time>2015-03-22T12:26:04Z</time>
      </trkpt>
      <trkpt lat="50.07653" lon="5.17502">
        <ele>160</ele>
        <time>2015-03-22T12:26:09Z</time>
      </trkpt>
      <trkpt lat="50.07648" lon="5.17506">
        <ele>160</ele>
        <time>2015-03-22T12:26:14Z</time>
      </trkpt>
      <trkpt lat="50.07642" lon="5.17512">
        <ele>160</ele>
        <time>2015-03-22T12:26:20Z</time>
      </trkpt>
      <trkpt lat="50.07637" lon="5.17519">
        <ele>161</ele>
        <time>2015-03-22T12:26:26Z</time>
      </trkpt>
      <trkpt lat="50.07635" lon="5.17524">
        <ele>162</ele>
        <time>2015-03-22T12:26:31Z</time>
      </trkpt>
      <trkpt lat="50.07632" lon="5.17531">
        <ele>162</ele>
        <time>2015-03-22T12:26:37Z</time>
      </trkpt>
      <trkpt lat="50.07631" lon="5.17538">
        <ele>162</ele>
        <time>2015-03-22T12:26:42Z</time>
      </trkpt>
      <trkpt lat="50.07631" lon="5.17545">
        <ele>163</ele>
        <time>2015-03-22T12:26:48Z</time>
      </trkpt>
      <trkpt lat="50.07631" lon="5.17554">
        <ele>163</ele>
        <time>2015-03-22T12:26:54Z</time>
      </trkpt>
      <trkpt lat="50.07633" lon="5.17561">
        <ele>164</ele>
        <time>2015-03-22T12:26:59Z</time>
      </trkpt>
      <trkpt lat="50.07636" lon="5.17568">
        <ele>165</ele>
        <time>2015-03-22T12:27:04Z</time>
      </trkpt>
      <trkpt lat="50.0764" lon="5.17576">
        <ele>165</ele>
        <time>2015-03-22T12:27:10Z</time>
      </trkpt>
      <trkpt lat="50.07642" lon="5.17583">
        <ele>165</ele>
        <time>2015-03-22T12:27:15Z</time>
      </trkpt>
      <trkpt lat="50.07644" lon="5.17592">
        <ele>166</ele>
        <time>2015-03-22T12:27:21Z</time>
      </trkpt>
      <trkpt lat="50.07644" lon="5.17601">
        <ele>166</ele>
        <time>2015-03-22T12:27:27Z</time>
      </trkpt>
      <trkpt lat="50.07643" lon="5.17609">
        <ele>167</ele>
        <time>2015-03-22T12:27:32Z</time>
      </trkpt>
      <trkpt lat="50.07642" lon="5.17615">
        <ele>167</ele>
        <time>2015-03-22T12:27:37Z</time>
      </trkpt>
      <trkpt lat="50.07639" lon="5.17619">
        <ele>167</ele>
        <time>2015-03-22T12:27:43Z</time>
      </trkpt>
      <trkpt lat="50.07636" lon="5.17623">
        <ele>167</ele>
        <time>2015-03-22T12:27:48Z</time>
      </trkpt>
      <trkpt lat="50.07632" lon="5.17629">
        <ele>167</ele>
        <time>2015-03-22T12:27:54Z</time>
      </trkpt>
      <trkpt lat="50.07629" lon="5.17635">
        <ele>168</ele>
        <time>2015-03-22T12:27:59Z</time>
      </trkpt>
      <trkpt lat="50.07625" lon="5.1764">
        <ele>168</ele>
        <time>2015-03-22T12:28:04Z</time>
      </trkpt>
      <trkpt lat="50.07621" lon="5.17645">
        <ele>168</ele>
        <time>2015-03-22T12:28:09Z</time>
      </trkpt>
      <trkpt lat="50.07616" lon="5.17651">
        <ele>169</ele>
        <time>2015-03-22T12:28:15Z</time>
      </trkpt>
      <trkpt lat="50.07612" lon="5.17656">
        <ele>169</ele>
        <time>2015-03-22T12:28:21Z</time>
      </trkpt>
      <trkpt lat="50.07608" lon="5.17661">
        <ele>170</ele>
        <time>2015-03-22T12:28:26Z</time>
      </trkpt>
      <trkpt lat="50.07604" lon="5.17666">
        <ele>170</ele>
        <time>2015-03-22T12:28:32Z</time>
      </trkpt>
      <trkpt lat="50.07601" lon="5.1767">
        <ele>171</ele>
        <time>2015-03-22T12:28:37Z</time>
      </trkpt>
      <trkpt lat="50.07597" lon="5.17675">
        <ele>171</ele>
        <time>2015-03-22T12:28:42Z</time>
      </trkpt>
      <trkpt lat="50.07593" lon="5.17681">
        <ele>172</ele>
        <time>2015-03-22T12:28:48Z</time>
      </trkpt>
      <trkpt lat="50.07589" lon="5.17685">
        <ele>172</ele>
        <time>2015-03-22T12:28:53Z</time>
      </trkpt>
      <trkpt lat="50.07586" lon="5.1769">
        <ele>173</ele>
        <time>2015-03-22T12:28:58Z</time>
      </trkpt>
      <trkpt lat="50.07582" lon="5.17695">
        <ele>173</ele>
        <time>2015-03-22T12:29:03Z</time>
      </trkpt>
      <trkpt lat="50.07579" lon="5.17701">
        <ele>174</ele>
        <time>2015-03-22T12:29:09Z</time>
      </trkpt>
      <trkpt lat="50.07574" lon="5.17706">
        <ele>174</ele>
        <time>2015-03-22T12:29:15Z</time>
      </trkpt>
      <trkpt lat="50.07571" lon="5.1771">
        <ele>175</ele>
        <time>2015-03-22T12:29:20Z</time>
      </trkpt>
      <trkpt lat="50.07566" lon="5.17711">
        <ele>175</ele>
        <time>2015-03-22T12:29:25Z</time>
      </trkpt>
      <trkpt lat="50.0756" lon="5.17715">
        <ele>175</ele>
        <time>2015-03-22T12:29:31Z</time>
      </trkpt>
      <trkpt lat="50.07555" lon="5.17716">
        <ele>176</ele>
        <time>2015-03-22T12:29:36Z</time>
      </trkpt>
      <trkpt lat="50.0755" lon="5.17717">
        <ele>177</ele>
        <time>2015-03-22T12:29:42Z</time>
      </trkpt>
      <trkpt lat="50.07546" lon="5.17717">
        <ele>178</ele>
        <time>2015-03-22T12:29:48Z</time>
      </trkpt>
      <trkpt lat="50.07542" lon="5.17717">
        <ele>178</ele>
        <time>2015-03-22T12:29:53Z</time>
      </trkpt>
      <trkpt lat="50.07537" lon="5.17719">
        <ele>179</ele>
        <time>2015-03-22T12:29:58Z</time>
      </trkpt>
      <trkpt lat="50.07533" lon="5.1772">
        <ele>180</ele>
        <time>2015-03-22T12:30:03Z</time>
      </trkpt>
      <trkpt lat="50.07528" lon="5.17722">
        <ele>180</ele>
        <time>2015-03-22T12:30:09Z</time>
      </trkpt>
      <trkpt lat="50.07523" lon="5.17724">
        <ele>180</ele>
        <time>2015-03-22T12:30:14Z</time>
      </trkpt>
      <trkpt lat="50.07519" lon="5.17724">
        <ele>181</ele>
        <time>2015-03-22T12:30:19Z</time>
      </trkpt>
      <trkpt lat="50.07514" lon="5.17725">
        <ele>182</ele>
        <time>2015-03-22T12:30:24Z</time>
      </trkpt>
      <trkpt lat="50.0751" lon="5.17727">
        <ele>182</ele>
        <time>2015-03-22T12:30:30Z</time>
      </trkpt>
      <trkpt lat="50.07505" lon="5.17727">
        <ele>182</ele>
        <time>2015-03-22T12:30:35Z</time>
      </trkpt>
      <trkpt lat="50.07498" lon="5.17729">
        <ele>183</ele>
        <time>2015-03-22T12:30:41Z</time>
      </trkpt>
      <trkpt lat="50.07492" lon="5.17731">
        <ele>184</ele>
        <time>2015-03-22T12:30:47Z</time>
      </trkpt>
      <trkpt lat="50.07487" lon="5.17731">
        <ele>184</ele>
        <time>2015-03-22T12:30:52Z</time>
      </trkpt>
      <trkpt lat="50.07483" lon="5.17732">
        <ele>185</ele>
        <time>2015-03-22T12:30:57Z</time>
      </trkpt>
      <trkpt lat="50.07477" lon="5.17734">
        <ele>185</ele>
        <time>2015-03-22T12:31:03Z</time>
      </trkpt>
      <trkpt lat="50.07472" lon="5.17736">
        <ele>185</ele>
        <time>2015-03-22T12:31:08Z</time>
      </trkpt>
      <trkpt lat="50.07467" lon="5.17738">
        <ele>186</ele>
        <time>2015-03-22T12:31:14Z</time>
      </trkpt>
      <trkpt lat="50.07462" lon="5.17739">
        <ele>186</ele>
        <time>2015-03-22T12:31:19Z</time>
      </trkpt>
      <trkpt lat="50.07458" lon="5.17738">
        <ele>186</ele>
        <time>2015-03-22T12:31:24Z</time>
      </trkpt>
      <trkpt lat="50.07451" lon="5.17738">
        <ele>187</ele>
        <time>2015-03-22T12:31:30Z</time>
      </trkpt>
      <trkpt lat="50.07446" lon="5.17738">
        <ele>187</ele>
        <time>2015-03-22T12:31:35Z</time>
      </trkpt>
      <trkpt lat="50.07441" lon="5.17739">
        <ele>187</ele>
        <time>2015-03-22T12:31:41Z</time>
      </trkpt>
      <trkpt lat="50.07436" lon="5.17739">
        <ele>188</ele>
        <time>2015-03-22T12:31:46Z</time>
      </trkpt>
      <trkpt lat="50.07432" lon="5.17738">
        <ele>189</ele>
        <time>2015-03-22T12:31:51Z</time>
      </trkpt>
      <trkpt lat="50.07427" lon="5.17739">
        <ele>189</ele>
        <time>2015-03-22T12:31:56Z</time>
      </trkpt>
      <trkpt lat="50.0742" lon="5.17739">
        <ele>190</ele>
        <time>2015-03-22T12:32:02Z</time>
      </trkpt>
      <trkpt lat="50.07416" lon="5.17739">
        <ele>190</ele>
        <time>2015-03-22T12:32:07Z</time>
      </trkpt>
      <trkpt lat="50.0741" lon="5.17739">
        <ele>190</ele>
        <time>2015-03-22T12:32:13Z</time>
      </trkpt>
      <trkpt lat="50.07406" lon="5.1774">
        <ele>191</ele>
        <time>2015-03-22T12:32:18Z</time>
      </trkpt>
      <trkpt lat="50.07401" lon="5.17743">
        <ele>192</ele>
        <time>2015-03-22T12:32:24Z</time>
      </trkpt>
      <trkpt lat="50.07397" lon="5.17744">
        <ele>192</ele>
        <time>2015-03-22T12:32:29Z</time>
      </trkpt>
      <trkpt lat="50.07394" lon="5.17746">
        <ele>192</ele>
        <time>2015-03-22T12:32:35Z</time>
      </trkpt>
      <trkpt lat="50.07393" lon="5.17747">
        <ele>193</ele>
        <time>2015-03-22T12:32:40Z</time>
      </trkpt>
      <trkpt lat="50.07391" lon="5.17747">
        <ele>193</ele>
        <time>2015-03-22T12:32:46Z</time>
      </trkpt>
      <trkpt lat="50.07389" lon="5.17748">
        <ele>192</ele>
        <time>2015-03-22T12:32:51Z</time>
      </trkpt>
      <trkpt lat="50.07386" lon="5.17748">
        <ele>193</ele>
        <time>2015-03-22T12:32:57Z</time>
      </trkpt>
      <trkpt lat="50.07383" lon="5.17749">
        <ele>194</ele>
        <time>2015-03-22T12:33:02Z</time>
      </trkpt>
      <trkpt lat="50.07379" lon="5.1775">
        <ele>194</ele>
        <time>2015-03-22T12:33:07Z</time>
      </trkpt>
      <trkpt lat="50.07375" lon="5.17752">
        <ele>194</ele>
        <time>2015-03-22T12:33:12Z</time>
      </trkpt>
      <trkpt lat="50.0737" lon="5.17754">
        <ele>195</ele>
        <time>2015-03-22T12:33:17Z</time>
      </trkpt>
      <trkpt lat="50.07365" lon="5.17756">
        <ele>195</ele>
        <time>2015-03-22T12:33:23Z</time>
      </trkpt>
      <trkpt lat="50.07363" lon="5.17758">
        <ele>195</ele>
        <time>2015-03-22T12:33:28Z</time>
      </trkpt>
      <trkpt lat="50.07361" lon="5.17759">
        <ele>195</ele>
        <time>2015-03-22T12:33:33Z</time>
      </trkpt>
      <trkpt lat="50.07357" lon="5.17758">
        <ele>195</ele>
        <time>2015-03-22T12:33:38Z</time>
      </trkpt>
      <trkpt lat="50.07353" lon="5.17758">
        <ele>195</ele>
        <time>2015-03-22T12:33:43Z</time>
      </trkpt>
      <trkpt lat="50.07348" lon="5.17759">
        <ele>196</ele>
        <time>2015-03-22T12:33:49Z</time>
      </trkpt>
      <trkpt lat="50.07342" lon="5.17759">
        <ele>196</ele>
        <time>2015-03-22T12:33:54Z</time>
      </trkpt>
      <trkpt lat="50.07336" lon="5.17761">
        <ele>196</ele>
        <time>2015-03-22T12:34:00Z</time>
      </trkpt>
      <trkpt lat="50.07332" lon="5.17762">
        <ele>196</ele>
        <time>2015-03-22T12:34:05Z</time>
      </trkpt>
      <trkpt lat="50.07329" lon="5.17765">
        <ele>196</ele>
        <time>2015-03-22T12:34:11Z</time>
      </trkpt>
      <trkpt lat="50.07328" lon="5.17767">
        <ele>196</ele>
        <time>2015-03-22T12:34:16Z</time>
      </trkpt>
      <trkpt lat="50.07323" lon="5.17769">
        <ele>196</ele>
        <time>2015-03-22T12:34:22Z</time>
      </trkpt>
      <trkpt lat="50.07321" lon="5.1777">
        <ele>197</ele>
        <time>2015-03-22T12:34:27Z</time>
      </trkpt>
      <trkpt lat="50.0732" lon="5.1777">
        <ele>197</ele>
        <time>2015-03-22T12:34:33Z</time>
      </trkpt>
      <trkpt lat="50.07319" lon="5.1777">
        <ele>197</ele>
        <time>2015-03-22T12:34:39Z</time>
      </trkpt>
      <trkpt lat="50.07318" lon="5.1777">
        <ele>197</ele>
        <time>2015-03-22T12:34:44Z</time>
      </trkpt>
      <trkpt lat="50.07317" lon="5.17772">
        <ele>197</ele>
        <time>2015-03-22T12:34:49Z</time>
      </trkpt>
      <trkpt lat="50.07317" lon="5.17772">
        <ele>197</ele>
        <time>2015-03-22T12:34:55Z</time>
      </trkpt>
      <trkpt lat="50.07316" lon="5.17772">
        <ele>196</ele>
        <time>2015-03-22T12:35:00Z</time>
      </trkpt>
      <trkpt lat="50.07315" lon="5.17771">
        <ele>197</ele>
        <time>2015-03-22T12:35:05Z</time>
      </trkpt>
      <trkpt lat="50.07313" lon="5.17772">
        <ele>197</ele>
        <time>2015-03-22T12:35:10Z</time>
      </trkpt>
      <trkpt lat="50.07309" lon="5.17774">
        <ele>198</ele>
        <time>2015-03-22T12:35:16Z</time>
      </trkpt>
      <trkpt lat="50.07303" lon="5.17777">
        <ele>198</ele>
        <time>2015-03-22T12:35:22Z</time>
      </trkpt>
      <trkpt lat="50.07299" lon="5.17778">
        <ele>198</ele>
        <time>2015-03-22T12:35:27Z</time>
      </trkpt>
      <trkpt lat="50.07293" lon="5.17781">
        <ele>199</ele>
        <time>2015-03-22T12:35:33Z</time>
      </trkpt>
      <trkpt lat="50.07287" lon="5.17784">
        <ele>199</ele>
        <time>2015-03-22T12:35:39Z</time>
      </trkpt>
      <trkpt lat="50.07282" lon="5.17786">
        <ele>199</ele>
        <time>2015-03-22T12:35:44Z</time>
      </trkpt>
      <trkpt lat="50.07278" lon="5.17789">
        <ele>199</ele>
        <time>2015-03-22T12:35:49Z</time>
      </trkpt>
      <trkpt lat="50.07277" lon="5.1779">
        <ele>199</ele>
        <time>2015-03-22T12:35:55Z</time>
      </trkpt>
      <trkpt lat="50.07275" lon="5.17793">
        <ele>200</ele>
        <time>2015-03-22T12:36:00Z</time>
      </trkpt>
      <trkpt lat="50.07271" lon="5.17797">
        <ele>200</ele>
        <time>2015-03-22T12:36:06Z</time>
      </trkpt>
      <trkpt lat="50.07267" lon="5.17799">
        <ele>200</ele>
        <time>2015-03-22T12:36:11Z</time>
      </trkpt>
      <trkpt lat="50.07263" lon="5.17801">
        <ele>200</ele>
        <time>2015-03-22T12:36:17Z</time>
      </trkpt>
      <trkpt lat="50.07261" lon="5.17802">
        <ele>200</ele>
        <time>2015-03-22T12:36:22Z</time>
      </trkpt>
      <trkpt lat="50.07259" lon="5.17802">
        <ele>201</ele>
        <time>2015-03-22T12:36:28Z</time>
      </trkpt>
      <trkpt lat="50.07256" lon="5.17803">
        <ele>200</ele>
        <time>2015-03-22T12:36:33Z</time>
      </trkpt>
      <trkpt lat="50.07253" lon="5.17803">
        <ele>200</ele>
        <time>2015-03-22T12:36:38Z</time>
      </trkpt>
      <trkpt lat="50.07252" lon="5.17805">
        <ele>201</ele>
        <time>2015-03-22T12:36:44Z</time>
      </trkpt>
      <trkpt lat="50.07247" lon="5.17809">
        <ele>201</ele>
        <time>2015-03-22T12:36:50Z</time>
      </trkpt>
      <trkpt lat="50.07245" lon="5.17811">
        <ele>201</ele>
        <time>2015-03-22T12:36:55Z</time>
      </trkpt>
      <trkpt lat="50.07241" lon="5.17814">
        <ele>201</ele>
        <time>2015-03-22T12:37:01Z</time>
      </trkpt>
      <trkpt lat="50.07238" lon="5.17818">
        <ele>202</ele>
        <time>2015-03-22T12:37:07Z</time>
      </trkpt>
      <trkpt lat="50.07238" lon="5.17819">
        <ele>202</ele>
        <time>2015-03-22T12:37:13Z</time>
      </trkpt>
      <trkpt lat="50.07235" lon="5.17823">
        <ele>202</ele>
        <time>2015-03-22T12:37:18Z</time>
      </trkpt>
      <trkpt lat="50.07233" lon="5.17822">
        <ele>203</ele>
        <time>2015-03-22T12:37:23Z</time>
      </trkpt>
      <trkpt lat="50.07229" lon="5.17816">
        <ele>203</ele>
        <time>2015-03-22T12:37:29Z</time>
      </trkpt>
      <trkpt lat="50.07227" lon="5.17815">
        <ele>203</ele>
        <time>2015-03-22T12:37:34Z</time>
      </trkpt>
      <trkpt lat="50.07226" lon="5.17815">
        <ele>204</ele>
        <time>2015-03-22T12:37:40Z</time>
      </trkpt>
      <trkpt lat="50.07227" lon="5.17819">
        <ele>203</ele>
        <time>2015-03-22T12:37:45Z</time>
      </trkpt>
      <trkpt lat="50.07226" lon="5.17824">
        <ele>204</ele>
        <time>2015-03-22T12:37:50Z</time>
      </trkpt>
      <trkpt lat="50.07224" lon="5.17827">
        <ele>204</ele>
        <time>2015-03-22T12:37:56Z</time>
      </trkpt>
      <trkpt lat="50.07225" lon="5.17833">
        <ele>204</ele>
        <time>2015-03-22T12:38:02Z</time>
      </trkpt>
      <trkpt lat="50.07225" lon="5.17841">
        <ele>205</ele>
        <time>2015-03-22T12:38:08Z</time>
      </trkpt>
      <trkpt lat="50.07224" lon="5.17843">
        <ele>205</ele>
        <time>2015-03-22T12:38:14Z</time>
      </trkpt>
      <trkpt lat="50.07222" lon="5.17848">
        <ele>206</ele>
        <time>2015-03-22T12:38:20Z</time>
      </trkpt>
      <trkpt lat="50.07224" lon="5.1785">
        <ele>207</ele>
        <time>2015-03-22T12:38:25Z</time>
      </trkpt>
      <trkpt lat="50.07227" lon="5.17852">
        <ele>207</ele>
        <time>2015-03-22T12:38:30Z</time>
      </trkpt>
      <trkpt lat="50.07228" lon="5.17853">
        <ele>207</ele>
        <time>2015-03-22T12:38:36Z</time>
      </trkpt>
      <trkpt lat="50.07227" lon="5.17853">
        <ele>207</ele>
        <time>2015-03-22T12:38:41Z</time>
      </trkpt>
      <trkpt lat="50.07227" lon="5.17853">
        <ele>207</ele>
        <time>2015-03-22T12:38:47Z</time>
      </trkpt>
      <trkpt lat="50.07228" lon="5.17854">
        <ele>207</ele>
        <time>2015-03-22T12:38:52Z</time>
      </trkpt>
      <trkpt lat="50.07229" lon="5.17854">
        <ele>207</ele>
        <time>2015-03-22T12:38:57Z</time>
      </trkpt>
      <trkpt lat="50.07228" lon="5.17854">
        <ele>207</ele>
        <time>2015-03-22T12:39:02Z</time>
      </trkpt>
      <trkpt lat="50.07228" lon="5.17849">
        <ele>206</ele>
        <time>2015-03-22T12:39:08Z</time>
      </trkpt>
      <trkpt lat="50.07224" lon="5.17841">
        <ele>205</ele>
        <time>2015-03-22T12:39:14Z</time>
      </trkpt>
      <trkpt lat="50.07219" lon="5.1784">
        <ele>205</ele>
        <time>2015-03-22T12:39:19Z</time>
      </trkpt>
      <trkpt lat="50.07213" lon="5.17843">
        <ele>206</ele>
        <time>2015-03-22T12:39:25Z</time>
      </trkpt>
      <trkpt lat="50.07206" lon="5.17845">
        <ele>207</ele>
        <time>2015-03-22T12:39:31Z</time>
      </trkpt>
      <trkpt lat="50.072" lon="5.17849">
        <ele>208</ele>
        <time>2015-03-22T12:39:36Z</time>
      </trkpt>
      <trkpt lat="50.07196" lon="5.17852">
        <ele>209</ele>
        <time>2015-03-22T12:39:41Z</time>
      </trkpt>
      <trkpt lat="50.07192" lon="5.17856">
        <ele>210</ele>
        <time>2015-03-22T12:39:47Z</time>
      </trkpt>
      <trkpt lat="50.07187" lon="5.17858">
        <ele>211</ele>
        <time>2015-03-22T12:39:53Z</time>
      </trkpt>
      <trkpt lat="50.07184" lon="5.17861">
        <ele>211</ele>
        <time>2015-03-22T12:39:58Z</time>
      </trkpt>
      <trkpt lat="50.07181" lon="5.17865">
        <ele>212</ele>
        <time>2015-03-22T12:40:04Z</time>
      </trkpt>
      <trkpt lat="50.07177" lon="5.17868">
        <ele>213</ele>
        <time>2015-03-22T12:40:09Z</time>
      </trkpt>
      <trkpt lat="50.07173" lon="5.17872">
        <ele>214</ele>
        <time>2015-03-22T12:40:14Z</time>
      </trkpt>
      <trkpt lat="50.07167" lon="5.17874">
        <ele>215</ele>
        <time>2015-03-22T12:40:20Z</time>
      </trkpt>
      <trkpt lat="50.07164" lon="5.17875">
        <ele>216</ele>
        <time>2015-03-22T12:40:25Z</time>
      </trkpt>
      <trkpt lat="50.07159" lon="5.17878">
        <ele>217</ele>
        <time>2015-03-22T12:40:31Z</time>
      </trkpt>
      <trkpt lat="50.07154" lon="5.17879">
        <ele>218</ele>
        <time>2015-03-22T12:40:36Z</time>
      </trkpt>
      <trkpt lat="50.0715" lon="5.17881">
        <ele>219</ele>
        <time>2015-03-22T12:40:41Z</time>
      </trkpt>
      <trkpt lat="50.07146" lon="5.17884">
        <ele>220</ele>
        <time>2015-03-22T12:40:46Z</time>
      </trkpt>
      <trkpt lat="50.07144" lon="5.17885">
        <ele>220</ele>
        <time>2015-03-22T12:40:51Z</time>
      </trkpt>
      <trkpt lat="50.0714" lon="5.17886">
        <ele>221</ele>
        <time>2015-03-22T12:40:57Z</time>
      </trkpt>
      <trkpt lat="50.07138" lon="5.17887">
        <ele>222</ele>
        <time>2015-03-22T12:41:02Z</time>
      </trkpt>
      <trkpt lat="50.07135" lon="5.17887">
        <ele>222</ele>
        <time>2015-03-22T12:41:07Z</time>
      </trkpt>
      <trkpt lat="50.07131" lon="5.17889">
        <ele>223</ele>
        <time>2015-03-22T12:41:13Z</time>
      </trkpt>
      <trkpt lat="50.07127" lon="5.17891">
        <ele>224</ele>
        <time>2015-03-22T12:41:18Z</time>
      </trkpt>
      <trkpt lat="50.07124" lon="5.17893">
        <ele>224</ele>
        <time>2015-03-22T12:41:24Z</time>
      </trkpt>
      <trkpt lat="50.0712" lon="5.17894">
        <ele>225</ele>
        <time>2015-03-22T12:41:30Z</time>
      </trkpt>
      <trkpt lat="50.07116" lon="5.17897">
        <ele>226</ele>
        <time>2015-03-22T12:41:35Z</time>
      </trkpt>
      <trkpt lat="50.07113" lon="5.17899">
        <ele>226</ele>
        <time>2015-03-22T12:41:40Z</time>
      </trkpt>
      <trkpt lat="50.07109" lon="5.17901">
        <ele>227</ele>
        <time>2015-03-22T12:41:45Z</time>
      </trkpt>
      <trkpt lat="50.07106" lon="5.17904">
        <ele>227</ele>
        <time>2015-03-22T12:41:51Z</time>
      </trkpt>
      <trkpt lat="50.07104" lon="5.17907">
        <ele>228</ele>
        <time>2015-03-22T12:41:56Z</time>
      </trkpt>
      <trkpt lat="50.07101" lon="5.17908">
        <ele>229</ele>
        <time>2015-03-22T12:42:01Z</time>
      </trkpt>
      <trkpt lat="50.07097" lon="5.1791">
        <ele>230</ele>
        <time>2015-03-22T12:42:07Z</time>
      </trkpt>
      <trkpt lat="50.07097" lon="5.17911">
        <ele>230</ele>
        <time>2015-03-22T12:42:13Z</time>
      </trkpt>
      <trkpt lat="50.07094" lon="5.17912">
        <ele>230</ele>
        <time>2015-03-22T12:42:18Z</time>
      </trkpt>
      <trkpt lat="50.07091" lon="5.17915">
        <ele>231</ele>
        <time>2015-03-22T12:42:24Z</time>
      </trkpt>
      <trkpt lat="50.07085" lon="5.17919">
        <ele>232</ele>
        <time>2015-03-22T12:42:30Z</time>
      </trkpt>
      <trkpt lat="50.07081" lon="5.17922">
        <ele>233</ele>
        <time>2015-03-22T12:42:35Z</time>
      </trkpt>
      <trkpt lat="50.07077" lon="5.17925">
        <ele>233</ele>
        <time>2015-03-22T12:42:41Z</time>
      </trkpt>
      <trkpt lat="50.07073" lon="5.17927">
        <ele>233</ele>
        <time>2015-03-22T12:42:46Z</time>
      </trkpt>
      <trkpt lat="50.07068" lon="5.1793">
        <ele>234</ele>
        <time>2015-03-22T12:42:52Z</time>
      </trkpt>
      <trkpt lat="50.07064" lon="5.17933">
        <ele>235</ele>
        <time>2015-03-22T12:42:57Z</time>
      </trkpt>
      <trkpt lat="50.0706" lon="5.17935">
        <ele>235</ele>
        <time>2015-03-22T12:43:03Z</time>
      </trkpt>
      <trkpt lat="50.07055" lon="5.17939">
        <ele>235</ele>
        <time>2015-03-22T12:43:08Z</time>
      </trkpt>
      <trkpt lat="50.07051" lon="5.17942">
        <ele>237</ele>
        <time>2015-03-22T12:43:13Z</time>
      </trkpt>
      <trkpt lat="50.07046" lon="5.17946">
        <ele>237</ele>
        <time>2015-03-22T12:43:19Z</time>
      </trkpt>
      <trkpt lat="50.07042" lon="5.1795">
        <ele>238</ele>
        <time>2015-03-22T12:43:24Z</time>
      </trkpt>
      <trkpt lat="50.07038" lon="5.17952">
        <ele>238</ele>
        <time>2015-03-22T12:43:29Z</time>
      </trkpt>
      <trkpt lat="50.07035" lon="5.17954">
        <ele>239</ele>
        <time>2015-03-22T12:43:34Z</time>
      </trkpt>
      <trkpt lat="50.0703" lon="5.17955">
        <ele>239</ele>
        <time>2015-03-22T12:43:39Z</time>
      </trkpt>
      <trkpt lat="50.07026" lon="5.17957">
        <ele>239</ele>
        <time>2015-03-22T12:43:45Z</time>
      </trkpt>
      <trkpt lat="50.07022" lon="5.1796">
        <ele>240</ele>
        <time>2015-03-22T12:43:50Z</time>
      </trkpt>
      <trkpt lat="50.07019" lon="5.17961">
        <ele>241</ele>
        <time>2015-03-22T12:43:55Z</time>
      </trkpt>
      <trkpt lat="50.07018" lon="5.17963">
        <ele>241</ele>
        <time>2015-03-22T12:44:01Z</time>
      </trkpt>
      <trkpt lat="50.07014" lon="5.17965">
        <ele>242</ele>
        <time>2015-03-22T12:44:06Z</time>
      </trkpt>
      <trkpt lat="50.07011" lon="5.17968">
        <ele>243</ele>
        <time>2015-03-22T12:44:12Z</time>
      </trkpt>
      <trkpt lat="50.07007" lon="5.17971">
        <ele>244</ele>
        <time>2015-03-22T12:44:17Z</time>
      </trkpt>
      <trkpt lat="50.07004" lon="5.17973">
        <ele>244</ele>
        <time>2015-03-22T12:44:22Z</time>
      </trkpt>
      <trkpt lat="50.07001" lon="5.17976">
        <ele>245</ele>
        <time>2015-03-22T12:44:27Z</time>
      </trkpt>
      <trkpt lat="50.06997" lon="5.17979">
        <ele>246</ele>
        <time>2015-03-22T12:44:33Z</time>
      </trkpt>
      <trkpt lat="50.06993" lon="5.17981">
        <ele>246</ele>
        <time>2015-03-22T12:44:38Z</time>
      </trkpt>
      <trkpt lat="50.06991" lon="5.17983">
        <ele>247</ele>
        <time>2015-03-22T12:44:45Z</time>
      </trkpt>
      <trkpt lat="50.06989" lon="5.17983">
        <ele>247</ele>
        <time>2015-03-22T12:44:50Z</time>
      </trkpt>
      <trkpt lat="50.06986" lon="5.17985">
        <ele>247</ele>
        <time>2015-03-22T12:44:55Z</time>
      </trkpt>
      <trkpt lat="50.06982" lon="5.17986">
        <ele>248</ele>
        <time>2015-03-22T12:45:01Z</time>
      </trkpt>
      <trkpt lat="50.06976" lon="5.17988">
        <ele>249</ele>
        <time>2015-03-22T12:45:06Z</time>
      </trkpt>
      <trkpt lat="50.0697" lon="5.17993">
        <ele>249</ele>
        <time>2015-03-22T12:45:12Z</time>
      </trkpt>
      <trkpt lat="50.06965" lon="5.17997">
        <ele>250</ele>
        <time>2015-03-22T12:45:18Z</time>
      </trkpt>
      <trkpt lat="50.0696" lon="5.18001">
        <ele>251</ele>
        <time>2015-03-22T12:45:23Z</time>
      </trkpt>
      <trkpt lat="50.06956" lon="5.18004">
        <ele>251</ele>
        <time>2015-03-22T12:45:28Z</time>
      </trkpt>
      <trkpt lat="50.06951" lon="5.18007">
        <ele>252</ele>
        <time>2015-03-22T12:45:34Z</time>
      </trkpt>
      <trkpt lat="50.06947" lon="5.1801">
        <ele>253</ele>
        <time>2015-03-22T12:45:39Z</time>
      </trkpt>
      <trkpt lat="50.06942" lon="5.18014">
        <ele>253</ele>
        <time>2015-03-22T12:45:45Z</time>
      </trkpt>
      <trkpt lat="50.06939" lon="5.18017">
        <ele>254</ele>
        <time>2015-03-22T12:45:51Z</time>
      </trkpt>
      <trkpt lat="50.06935" lon="5.1802">
        <ele>254</ele>
        <time>2015-03-22T12:45:56Z</time>
      </trkpt>
      <trkpt lat="50.06932" lon="5.18024">
        <ele>255</ele>
        <time>2015-03-22T12:46:02Z</time>
      </trkpt>
      <trkpt lat="50.0693" lon="5.18026">
        <ele>255</ele>
        <time>2015-03-22T12:46:07Z</time>
      </trkpt>
      <trkpt lat="50.06927" lon="5.18027">
        <ele>256</ele>
        <time>2015-03-22T12:46:13Z</time>
      </trkpt>
      <trkpt lat="50.06925" lon="5.18029">
        <ele>257</ele>
        <time>2015-03-22T12:46:18Z</time>
      </trkpt>
      <trkpt lat="50.06921" lon="5.18033">
        <ele>257</ele>
        <time>2015-03-22T12:46:24Z</time>
      </trkpt>
      <trkpt lat="50.06917" lon="5.18036">
        <ele>258</ele>
        <time>2015-03-22T12:46:30Z</time>
      </trkpt>
      <trkpt lat="50.06913" lon="5.18038">
        <ele>258</ele>
        <time>2015-03-22T12:46:35Z</time>
      </trkpt>
      <trkpt lat="50.06911" lon="5.18042">
        <ele>258</ele>
        <time>2015-03-22T12:46:40Z</time>
      </trkpt>
      <trkpt lat="50.06906" lon="5.18046">
        <ele>259</ele>
        <time>2015-03-22T12:46:46Z</time>
      </trkpt>
      <trkpt lat="50.06902" lon="5.1805">
        <ele>259</ele>
        <time>2015-03-22T12:46:52Z</time>
      </trkpt>
      <trkpt lat="50.06897" lon="5.18054">
        <ele>260</ele>
        <time>2015-03-22T12:46:58Z</time>
      </trkpt>
      <trkpt lat="50.06895" lon="5.18057">
        <ele>261</ele>
        <time>2015-03-22T12:47:04Z</time>
      </trkpt>
      <trkpt lat="50.06893" lon="5.18059">
        <ele>261</ele>
        <time>2015-03-22T12:47:10Z</time>
      </trkpt>
      <trkpt lat="50.06891" lon="5.18062">
        <ele>262</ele>
        <time>2015-03-22T12:47:15Z</time>
      </trkpt>
      <trkpt lat="50.06887" lon="5.18067">
        <ele>262</ele>
        <time>2015-03-22T12:47:20Z</time>
      </trkpt>
      <trkpt lat="50.06881" lon="5.1807">
        <ele>263</ele>
        <time>2015-03-22T12:47:26Z</time>
      </trkpt>
      <trkpt lat="50.06877" lon="5.18072">
        <ele>263</ele>
        <time>2015-03-22T12:47:31Z</time>
      </trkpt>
      <trkpt lat="50.06873" lon="5.18076">
        <ele>264</ele>
        <time>2015-03-22T12:47:37Z</time>
      </trkpt>
      <trkpt lat="50.06869" lon="5.18079">
        <ele>265</ele>
        <time>2015-03-22T12:47:42Z</time>
      </trkpt>
      <trkpt lat="50.06866" lon="5.18082">
        <ele>265</ele>
        <time>2015-03-22T12:47:48Z</time>
      </trkpt>
      <trkpt lat="50.06864" lon="5.18085">
        <ele>266</ele>
        <time>2015-03-22T12:47:54Z</time>
      </trkpt>
      <trkpt lat="50.06861" lon="5.18088">
        <ele>266</ele>
        <time>2015-03-22T12:47:59Z</time>
      </trkpt>
      <trkpt lat="50.06855" lon="5.18091">
        <ele>266</ele>
        <time>2015-03-22T12:48:04Z</time>
      </trkpt>
      <trkpt lat="50.0685" lon="5.18094">
        <ele>267</ele>
        <time>2015-03-22T12:48:09Z</time>
      </trkpt>
      <trkpt lat="50.06844" lon="5.18096">
        <ele>268</ele>
        <time>2015-03-22T12:48:15Z</time>
      </trkpt>
      <trkpt lat="50.06839" lon="5.18098">
        <ele>268</ele>
        <time>2015-03-22T12:48:20Z</time>
      </trkpt>
      <trkpt lat="50.06834" lon="5.18101">
        <ele>269</ele>
        <time>2015-03-22T12:48:26Z</time>
      </trkpt>
      <trkpt lat="50.0683" lon="5.18104">
        <ele>269</ele>
        <time>2015-03-22T12:48:32Z</time>
      </trkpt>
      <trkpt lat="50.06825" lon="5.18106">
        <ele>270</ele>
        <time>2015-03-22T12:48:37Z</time>
      </trkpt>
      <trkpt lat="50.0682" lon="5.18109">
        <ele>271</ele>
        <time>2015-03-22T12:48:42Z</time>
      </trkpt>
      <trkpt lat="50.06815" lon="5.18112">
        <ele>271</ele>
        <time>2015-03-22T12:48:48Z</time>
      </trkpt>
      <trkpt lat="50.06811" lon="5.18115">
        <ele>272</ele>
        <time>2015-03-22T12:48:53Z</time>
      </trkpt>
      <trkpt lat="50.06806" lon="5.18118">
        <ele>273</ele>
        <time>2015-03-22T12:48:58Z</time>
      </trkpt>
      <trkpt lat="50.06801" lon="5.18121">
        <ele>273</ele>
        <time>2015-03-22T12:49:04Z</time>
      </trkpt>
      <trkpt lat="50.06797" lon="5.18124">
        <ele>274</ele>
        <time>2015-03-22T12:49:09Z</time>
      </trkpt>
      <trkpt lat="50.06793" lon="5.18127">
        <ele>275</ele>
        <time>2015-03-22T12:49:14Z</time>
      </trkpt>
      <trkpt lat="50.06791" lon="5.18129">
        <ele>275</ele>
        <time>2015-03-22T12:49:20Z</time>
      </trkpt>
      <trkpt lat="50.06788" lon="5.18131">
        <ele>276</ele>
        <time>2015-03-22T12:49:25Z</time>
      </trkpt>
      <trkpt lat="50.06784" lon="5.18134">
        <ele>276</ele>
        <time>2015-03-22T12:49:30Z</time>
      </trkpt>
      <trkpt lat="50.06781" lon="5.18138">
        <ele>276</ele>
        <time>2015-03-22T12:49:35Z</time>
      </trkpt>
      <trkpt lat="50.06779" lon="5.18141">
        <ele>276</ele>
        <time>2015-03-22T12:49:40Z</time>
      </trkpt>
      <trkpt lat="50.06775" lon="5.18144">
        <ele>276</ele>
        <time>2015-03-22T12:49:46Z</time>
      </trkpt>
      <trkpt lat="50.06771" lon="5.18148">
        <ele>277</ele>
        <time>2015-03-22T12:49:51Z</time>
      </trkpt>
      <trkpt lat="50.06766" lon="5.18151">
        <ele>278</ele>
        <time>2015-03-22T12:49:56Z</time>
      </trkpt>
      <trkpt lat="50.06762" lon="5.18152">
        <ele>278</ele>
        <time>2015-03-22T12:50:01Z</time>
      </trkpt>
      <trkpt lat="50.06758" lon="5.18153">
        <ele>279</ele>
        <time>2015-03-22T12:50:07Z</time>
      </trkpt>
      <trkpt lat="50.06754" lon="5.18155">
        <ele>280</ele>
        <time>2015-03-22T12:50:12Z</time>
      </trkpt>
      <trkpt lat="50.0675" lon="5.18157">
        <ele>280</ele>
        <time>2015-03-22T12:50:18Z</time>
      </trkpt>
      <trkpt lat="50.06746" lon="5.1816">
        <ele>281</ele>
        <time>2015-03-22T12:50:23Z</time>
      </trkpt>
      <trkpt lat="50.06742" lon="5.18164">
        <ele>282</ele>
        <time>2015-03-22T12:50:29Z</time>
      </trkpt>
      <trkpt lat="50.06738" lon="5.18168">
        <ele>282</ele>
        <time>2015-03-22T12:50:34Z</time>
      </trkpt>
      <trkpt lat="50.06733" lon="5.18172">
        <ele>283</ele>
        <time>2015-03-22T12:50:39Z</time>
      </trkpt>
      <trkpt lat="50.0673" lon="5.18175">
        <ele>284</ele>
        <time>2015-03-22T12:50:44Z</time>
      </trkpt>
      <trkpt lat="50.06726" lon="5.18177">
        <ele>284</ele>
        <time>2015-03-22T12:50:49Z</time>
      </trkpt>
      <trkpt lat="50.06722" lon="5.18179">
        <ele>284</ele>
        <time>2015-03-22T12:50:54Z</time>
      </trkpt>
      <trkpt lat="50.06716" lon="5.18182">
        <ele>285</ele>
        <time>2015-03-22T12:51:00Z</time>
      </trkpt>
      <trkpt lat="50.06712" lon="5.18185">
        <ele>286</ele>
        <time>2015-03-22T12:51:05Z</time>
      </trkpt>
      <trkpt lat="50.06709" lon="5.18187">
        <ele>286</ele>
        <time>2015-03-22T12:51:10Z</time>
      </trkpt>
      <trkpt lat="50.06706" lon="5.1819">
        <ele>286</ele>
        <time>2015-03-22T12:51:15Z</time>
      </trkpt>
      <trkpt lat="50.06701" lon="5.18193">
        <ele>286</ele>
        <time>2015-03-22T12:51:20Z</time>
      </trkpt>
      <trkpt lat="50.06697" lon="5.18197">
        <ele>287</ele>
        <time>2015-03-22T12:51:25Z</time>
      </trkpt>
      <trkpt lat="50.06692" lon="5.18201">
        <ele>287</ele>
        <time>2015-03-22T12:51:31Z</time>
      </trkpt>
      <trkpt lat="50.06688" lon="5.18205">
        <ele>287</ele>
        <time>2015-03-22T12:51:36Z</time>
      </trkpt>
      <trkpt lat="50.06686" lon="5.18208">
        <ele>288</ele>
        <time>2015-03-22T12:51:41Z</time>
      </trkpt>
      <trkpt lat="50.0668" lon="5.18213">
        <ele>289</ele>
        <time>2015-03-22T12:51:47Z</time>
      </trkpt>
      <trkpt lat="50.06675" lon="5.18215">
        <ele>289</ele>
        <time>2015-03-22T12:51:52Z</time>
      </trkpt>
      <trkpt lat="50.0667" lon="5.18219">
        <ele>290</ele>
        <time>2015-03-22T12:51:57Z</time>
      </trkpt>
      <trkpt lat="50.06666" lon="5.18223">
        <ele>290</ele>
        <time>2015-03-22T12:52:02Z</time>
      </trkpt>
      <trkpt lat="50.06662" lon="5.18226">
        <ele>291</ele>
        <time>2015-03-22T12:52:07Z</time>
      </trkpt>
      <trkpt lat="50.06657" lon="5.18229">
        <ele>291</ele>
        <time>2015-03-22T12:52:13Z</time>
      </trkpt>
      <trkpt lat="50.06652" lon="5.18232">
        <ele>290</ele>
        <time>2015-03-22T12:52:18Z</time>
      </trkpt>
      <trkpt lat="50.06649" lon="5.18234">
        <ele>290</ele>
        <time>2015-03-22T12:52:24Z</time>
      </trkpt>
      <trkpt lat="50.06644" lon="5.18236">
        <ele>290</ele>
        <time>2015-03-22T12:52:30Z</time>
      </trkpt>
      <trkpt lat="50.06639" lon="5.18234">
        <ele>290</ele>
        <time>2015-03-22T12:52:36Z</time>
      </trkpt>
      <trkpt lat="50.06634" lon="5.18235">
        <ele>289</ele>
        <time>2015-03-22T12:52:41Z</time>
      </trkpt>
      <trkpt lat="50.06629" lon="5.18238">
        <ele>289</ele>
        <time>2015-03-22T12:52:46Z</time>
      </trkpt>
      <trkpt lat="50.06622" lon="5.18243">
        <ele>289</ele>
        <time>2015-03-22T12:52:52Z</time>
      </trkpt>
      <trkpt lat="50.06612" lon="5.18246">
        <ele>288</ele>
        <time>2015-03-22T12:52:58Z</time>
      </trkpt>
      <trkpt lat="50.06608" lon="5.18249">
        <ele>288</ele>
        <time>2015-03-22T12:53:03Z</time>
      </trkpt>
      <trkpt lat="50.06602" lon="5.18254">
        <ele>287</ele>
        <time>2015-03-22T12:53:08Z</time>
      </trkpt>
      <trkpt lat="50.06601" lon="5.18256">
        <ele>286</ele>
        <time>2015-03-22T12:53:14Z</time>
      </trkpt>
      <trkpt lat="50.06597" lon="5.18259">
        <ele>285</ele>
        <time>2015-03-22T12:53:20Z</time>
      </trkpt>
      <trkpt lat="50.0659" lon="5.18263">
        <ele>284</ele>
        <time>2015-03-22T12:53:25Z</time>
      </trkpt>
      <trkpt lat="50.06584" lon="5.18267">
        <ele>283</ele>
        <time>2015-03-22T12:53:30Z</time>
      </trkpt>
      <trkpt lat="50.06578" lon="5.1827">
        <ele>282</ele>
        <time>2015-03-22T12:53:36Z</time>
      </trkpt>
      <trkpt lat="50.0657" lon="5.18275">
        <ele>280</ele>
        <time>2015-03-22T12:53:42Z</time>
      </trkpt>
      <trkpt lat="50.06563" lon="5.18278">
        <ele>279</ele>
        <time>2015-03-22T12:53:48Z</time>
      </trkpt>
      <trkpt lat="50.06557" lon="5.1828">
        <ele>278</ele>
        <time>2015-03-22T12:53:54Z</time>
      </trkpt>
      <trkpt lat="50.06553" lon="5.18282">
        <ele>277</ele>
        <time>2015-03-22T12:53:59Z</time>
      </trkpt>
      <trkpt lat="50.06547" lon="5.18285">
        <ele>277</ele>
        <time>2015-03-22T12:54:05Z</time>
      </trkpt>
      <trkpt lat="50.06544" lon="5.18288">
        <ele>276</ele>
        <time>2015-03-22T12:54:10Z</time>
      </trkpt>
      <trkpt lat="50.0654" lon="5.18294">
        <ele>275</ele>
        <time>2015-03-22T12:54:16Z</time>
      </trkpt>
      <trkpt lat="50.06535" lon="5.183">
        <ele>273</ele>
        <time>2015-03-22T12:54:22Z</time>
      </trkpt>
      <trkpt lat="50.06528" lon="5.18308">
        <ele>271</ele>
        <time>2015-03-22T12:54:28Z</time>
      </trkpt>
      <trkpt lat="50.06526" lon="5.18313">
        <ele>271</ele>
        <time>2015-03-22T12:54:33Z</time>
      </trkpt>
      <trkpt lat="50.06522" lon="5.1832">
        <ele>270</ele>
        <time>2015-03-22T12:54:39Z</time>
      </trkpt>
      <trkpt lat="50.06516" lon="5.18327">
        <ele>268</ele>
        <time>2015-03-22T12:54:45Z</time>
      </trkpt>
      <trkpt lat="50.06511" lon="5.18333">
        <ele>267</ele>
        <time>2015-03-22T12:54:51Z</time>
      </trkpt>
      <trkpt lat="50.06506" lon="5.18339">
        <ele>265</ele>
        <time>2015-03-22T12:54:57Z</time>
      </trkpt>
      <trkpt lat="50.06503" lon="5.18342">
        <ele>264</ele>
        <time>2015-03-22T12:55:02Z</time>
      </trkpt>
      <trkpt lat="50.06498" lon="5.18348">
        <ele>263</ele>
        <time>2015-03-22T12:55:07Z</time>
      </trkpt>
      <trkpt lat="50.06496" lon="5.18353">
        <ele>261</ele>
        <time>2015-03-22T12:55:12Z</time>
      </trkpt>
      <trkpt lat="50.0649" lon="5.18357">
        <ele>260</ele>
        <time>2015-03-22T12:55:18Z</time>
      </trkpt>
      <trkpt lat="50.06486" lon="5.18362">
        <ele>258</ele>
        <time>2015-03-22T12:55:24Z</time>
      </trkpt>
      <trkpt lat="50.06482" lon="5.18368">
        <ele>258</ele>
        <time>2015-03-22T12:55:29Z</time>
      </trkpt>
      <trkpt lat="50.06475" lon="5.18375">
        <ele>257</ele>
        <time>2015-03-22T12:55:35Z</time>
      </trkpt>
      <trkpt lat="50.0647" lon="5.18382">
        <ele>255</ele>
        <time>2015-03-22T12:55:40Z</time>
      </trkpt>
      <trkpt lat="50.06466" lon="5.18388">
        <ele>254</ele>
        <time>2015-03-22T12:55:45Z</time>
      </trkpt>
      <trkpt lat="50.06459" lon="5.18393">
        <ele>254</ele>
        <time>2015-03-22T12:55:51Z</time>
      </trkpt>
      <trkpt lat="50.06454" lon="5.18399">
        <ele>253</ele>
        <time>2015-03-22T12:55:56Z</time>
      </trkpt>
      <trkpt lat="50.06448" lon="5.18405">
        <ele>251</ele>
        <time>2015-03-22T12:56:02Z</time>
      </trkpt>
      <trkpt lat="50.06443" lon="5.18411">
        <ele>251</ele>
        <time>2015-03-22T12:56:07Z</time>
      </trkpt>
      <trkpt lat="50.0644" lon="5.18413">
        <ele>250</ele>
        <time>2015-03-22T12:56:12Z</time>
      </trkpt>
      <trkpt lat="50.06435" lon="5.18417">
        <ele>248</ele>
        <time>2015-03-22T12:56:18Z</time>
      </trkpt>
      <trkpt lat="50.0643" lon="5.18423">
        <ele>247</ele>
        <time>2015-03-22T12:56:23Z</time>
      </trkpt>
      <trkpt lat="50.06425" lon="5.18428">
        <ele>246</ele>
        <time>2015-03-22T12:56:28Z</time>
      </trkpt>
      <trkpt lat="50.06421" lon="5.18432">
        <ele>245</ele>
        <time>2015-03-22T12:56:34Z</time>
      </trkpt>
      <trkpt lat="50.06414" lon="5.18437">
        <ele>243</ele>
        <time>2015-03-22T12:56:40Z</time>
      </trkpt>
      <trkpt lat="50.06408" lon="5.18442">
        <ele>242</ele>
        <time>2015-03-22T12:56:46Z</time>
      </trkpt>
      <trkpt lat="50.06403" lon="5.18446">
        <ele>241</ele>
        <time>2015-03-22T12:56:52Z</time>
      </trkpt>
      <trkpt lat="50.06399" lon="5.18448">
        <ele>240</ele>
        <time>2015-03-22T12:56:57Z</time>
      </trkpt>
      <trkpt lat="50.06395" lon="5.18451">
        <ele>238</ele>
        <time>2015-03-22T12:57:02Z</time>
      </trkpt>
      <trkpt lat="50.06391" lon="5.18456">
        <ele>236</ele>
        <time>2015-03-22T12:57:08Z</time>
      </trkpt>
      <trkpt lat="50.06387" lon="5.18459">
        <ele>235</ele>
        <time>2015-03-22T12:57:13Z</time>
      </trkpt>
      <trkpt lat="50.06383" lon="5.18461">
        <ele>234</ele>
        <time>2015-03-22T12:57:18Z</time>
      </trkpt>
      <trkpt lat="50.06379" lon="5.18465">
        <ele>233</ele>
        <time>2015-03-22T12:57:24Z</time>
      </trkpt>
      <trkpt lat="50.06375" lon="5.18468">
        <ele>232</ele>
        <time>2015-03-22T12:57:29Z</time>
      </trkpt>
      <trkpt lat="50.0637" lon="5.18471">
        <ele>231</ele>
        <time>2015-03-22T12:57:35Z</time>
      </trkpt>
      <trkpt lat="50.06366" lon="5.18472">
        <ele>230</ele>
        <time>2015-03-22T12:57:40Z</time>
      </trkpt>
      <trkpt lat="50.06362" lon="5.18471">
        <ele>229</ele>
        <time>2015-03-22T12:57:46Z</time>
      </trkpt>
      <trkpt lat="50.06358" lon="5.18471">
        <ele>227</ele>
        <time>2015-03-22T12:57:52Z</time>
      </trkpt>
      <trkpt lat="50.06353" lon="5.18472">
        <ele>225</ele>
        <time>2015-03-22T12:57:58Z</time>
      </trkpt>
      <trkpt lat="50.06349" lon="5.18472">
        <ele>224</ele>
        <time>2015-03-22T12:58:04Z</time>
      </trkpt>
      <trkpt lat="50.06345" lon="5.18469">
        <ele>223</ele>
        <time>2015-03-22T12:58:09Z</time>
      </trkpt>
      <trkpt lat="50.0634" lon="5.18467">
        <ele>221</ele>
        <time>2015-03-22T12:58:14Z</time>
      </trkpt>
      <trkpt lat="50.06334" lon="5.18464">
        <ele>220</ele>
        <time>2015-03-22T12:58:20Z</time>
      </trkpt>
      <trkpt lat="50.06329" lon="5.18458">
        <ele>219</ele>
        <time>2015-03-22T12:58:25Z</time>
      </trkpt>
      <trkpt lat="50.06325" lon="5.18453">
        <ele>218</ele>
        <time>2015-03-22T12:58:30Z</time>
      </trkpt>
      <trkpt lat="50.06322" lon="5.18447">
        <ele>217</ele>
        <time>2015-03-22T12:58:36Z</time>
      </trkpt>
      <trkpt lat="50.06319" lon="5.1844">
        <ele>216</ele>
        <time>2015-03-22T12:58:42Z</time>
      </trkpt>
      <trkpt lat="50.06319" lon="5.18437">
        <ele>215</ele>
        <time>2015-03-22T12:58:48Z</time>
      </trkpt>
      <trkpt lat="50.06316" lon="5.18433">
        <ele>215</ele>
        <time>2015-03-22T12:58:53Z</time>
      </trkpt>
      <trkpt lat="50.06313" lon="5.18432">
        <ele>215</ele>
        <time>2015-03-22T12:58:58Z</time>
      </trkpt>
      <trkpt lat="50.06311" lon="5.18431">
        <ele>215</ele>
        <time>2015-03-22T12:59:03Z</time>
      </trkpt>
      <trkpt lat="50.0631" lon="5.18431">
        <ele>215</ele>
        <time>2015-03-22T12:59:09Z</time>
      </trkpt>
      <trkpt lat="50.06311" lon="5.18432">
        <ele>215</ele>
        <time>2015-03-22T12:59:14Z</time>
      </trkpt>
      <trkpt lat="50.06313" lon="5.18433">
        <ele>215</ele>
        <time>2015-03-22T12:59:19Z</time>
      </trkpt>
      <trkpt lat="50.06315" lon="5.18434">
        <ele>215</ele>
        <time>2015-03-22T12:59:25Z</time>
      </trkpt>
      <trkpt lat="50.06314" lon="5.18434">
        <ele>215</ele>
        <time>2015-03-22T12:59:30Z</time>
      </trkpt>
      <trkpt lat="50.0631" lon="5.18434">
        <ele>214</ele>
        <time>2015-03-22T12:59:36Z</time>
      </trkpt>
      <trkpt lat="50.06306" lon="5.18433">
        <ele>214</ele>
        <time>2015-03-22T12:59:41Z</time>
      </trkpt>
      <trkpt lat="50.06301" lon="5.1843">
        <ele>214</ele>
        <time>2015-03-22T12:59:47Z</time>
      </trkpt>
      <trkpt lat="50.06296" lon="5.1843">
        <ele>213</ele>
        <time>2015-03-22T12:59:53Z</time>
      </trkpt>
      <trkpt lat="50.06294" lon="5.18432">
        <ele>211</ele>
        <time>2015-03-22T12:59:58Z</time>
      </trkpt>
      <trkpt lat="50.06292" lon="5.18439">
        <ele>210</ele>
        <time>2015-03-22T13:00:04Z</time>
      </trkpt>
      <trkpt lat="50.06289" lon="5.18446">
        <ele>208</ele>
        <time>2015-03-22T13:00:10Z</time>
      </trkpt>
      <trkpt lat="50.06286" lon="5.18455">
        <ele>208</ele>
        <time>2015-03-22T13:00:15Z</time>
      </trkpt>
      <trkpt lat="50.06284" lon="5.18464">
        <ele>206</ele>
        <time>2015-03-22T13:00:21Z</time>
      </trkpt>
      <trkpt lat="50.06284" lon="5.18469">
        <ele>206</ele>
        <time>2015-03-22T13:00:26Z</time>
      </trkpt>
      <trkpt lat="50.06284" lon="5.18476">
        <ele>205</ele>
        <time>2015-03-22T13:00:32Z</time>
      </trkpt>
      <trkpt lat="50.06284" lon="5.18486">
        <ele>204</ele>
        <time>2015-03-22T13:00:38Z</time>
      </trkpt>
      <trkpt lat="50.06285" lon="5.18495">
        <ele>204</ele>
        <time>2015-03-22T13:00:44Z</time>
      </trkpt>
      <trkpt lat="50.06285" lon="5.18504">
        <ele>204</ele>
        <time>2015-03-22T13:00:50Z</time>
      </trkpt>
      <trkpt lat="50.06284" lon="5.1851">
        <ele>204</ele>
        <time>2015-03-22T13:00:55Z</time>
      </trkpt>
      <trkpt lat="50.06282" lon="5.18518">
        <ele>203</ele>
        <time>2015-03-22T13:01:00Z</time>
      </trkpt>
      <trkpt lat="50.06278" lon="5.18522">
        <ele>203</ele>
        <time>2015-03-22T13:01:06Z</time>
      </trkpt>
      <trkpt lat="50.06276" lon="5.18524">
        <ele>203</ele>
        <time>2015-03-22T13:01:11Z</time>
      </trkpt>
      <trkpt lat="50.06272" lon="5.18527">
        <ele>203</ele>
        <time>2015-03-22T13:01:17Z</time>
      </trkpt>
      <trkpt lat="50.06272" lon="5.18527">
        <ele>204</ele>
        <time>2015-03-22T13:01:22Z</time>
      </trkpt>
      <trkpt lat="50.06271" lon="5.1853">
        <ele>204</ele>
        <time>2015-03-22T13:01:28Z</time>
      </trkpt>
      <trkpt lat="50.06273" lon="5.18535">
        <ele>204</ele>
        <time>2015-03-22T13:01:34Z</time>
      </trkpt>
      <trkpt lat="50.06273" lon="5.18537">
        <ele>204</ele>
        <time>2015-03-22T13:01:40Z</time>
      </trkpt>
      <trkpt lat="50.06272" lon="5.18535">
        <ele>204</ele>
        <time>2015-03-22T13:01:45Z</time>
      </trkpt>
      <trkpt lat="50.06272" lon="5.1853">
        <ele>204</ele>
        <time>2015-03-22T13:01:51Z</time>
      </trkpt>
      <trkpt lat="50.06272" lon="5.18531">
        <ele>204</ele>
        <time>2015-03-22T13:01:57Z</time>
      </trkpt>
      <trkpt lat="50.06271" lon="5.18533">
        <ele>204</ele>
        <time>2015-03-22T13:02:03Z</time>
      </trkpt>
      <trkpt lat="50.06272" lon="5.18534">
        <ele>204</ele>
        <time>2015-03-22T13:02:09Z</time>
      </trkpt>
      <trkpt lat="50.06273" lon="5.18537">
        <ele>204</ele>
        <time>2015-03-22T13:02:14Z</time>
      </trkpt>
      <trkpt lat="50.06272" lon="5.18538">
        <ele>204</ele>
        <time>2015-03-22T13:02:20Z</time>
      </trkpt>
      <trkpt lat="50.06272" lon="5.1854">
        <ele>204</ele>
        <time>2015-03-22T13:02:26Z</time>
      </trkpt>
      <trkpt lat="50.0627" lon="5.18542">
        <ele>204</ele>
        <time>2015-03-22T13:02:32Z</time>
      </trkpt>
      <trkpt lat="50.06269" lon="5.18542">
        <ele>204</ele>
        <time>2015-03-22T13:02:39Z</time>
      </trkpt>
      <trkpt lat="50.0627" lon="5.18545">
        <ele>204</ele>
        <time>2015-03-22T13:02:45Z</time>
      </trkpt>
      <trkpt lat="50.0627" lon="5.18546">
        <ele>204</ele>
        <time>2015-03-22T13:02:50Z</time>
      </trkpt>
      <trkpt lat="50.0627" lon="5.18549">
        <ele>204</ele>
        <time>2015-03-22T13:02:56Z</time>
      </trkpt>
      <trkpt lat="50.06269" lon="5.18552">
        <ele>203</ele>
        <time>2015-03-22T13:03:01Z</time>
      </trkpt>
      <trkpt lat="50.06267" lon="5.18556">
        <ele>204</ele>
        <time>2015-03-22T13:03:07Z</time>
      </trkpt>
      <trkpt lat="50.06266" lon="5.18557">
        <ele>204</ele>
        <time>2015-03-22T13:03:13Z</time>
      </trkpt>
      <trkpt lat="50.06263" lon="5.18558">
        <ele>205</ele>
        <time>2015-03-22T13:03:18Z</time>
      </trkpt>
      <trkpt lat="50.06263" lon="5.18559">
        <ele>206</ele>
        <time>2015-03-22T13:03:24Z</time>
      </trkpt>
      <trkpt lat="50.06263" lon="5.18556">
        <ele>206</ele>
        <time>2015-03-22T13:03:30Z</time>
      </trkpt>
      <trkpt lat="50.06264" lon="5.18554">
        <ele>206</ele>
        <time>2015-03-22T13:03:35Z</time>
      </trkpt>
      <trkpt lat="50.06266" lon="5.18554">
        <ele>206</ele>
        <time>2015-03-22T13:03:40Z</time>
      </trkpt>
      <trkpt lat="50.06267" lon="5.18554">
        <ele>205</ele>
        <time>2015-03-22T13:03:46Z</time>
      </trkpt>
      <trkpt lat="50.06265" lon="5.18555">
        <ele>206</ele>
        <time>2015-03-22T13:03:51Z</time>
      </trkpt>
      <trkpt lat="50.0626" lon="5.1856">
        <ele>206</ele>
        <time>2015-03-22T13:03:57Z</time>
      </trkpt>
      <trkpt lat="50.06255" lon="5.18563">
        <ele>205</ele>
        <time>2015-03-22T13:04:03Z</time>
      </trkpt>
      <trkpt lat="50.06252" lon="5.18563">
        <ele>206</ele>
        <time>2015-03-22T13:04:08Z</time>
      </trkpt>
      <trkpt lat="50.06248" lon="5.18562">
        <ele>206</ele>
        <time>2015-03-22T13:04:14Z</time>
      </trkpt>
      <trkpt lat="50.06247" lon="5.18562">
        <ele>206</ele>
        <time>2015-03-22T13:04:20Z</time>
      </trkpt>
      <trkpt lat="50.06249" lon="5.18565">
        <ele>207</ele>
        <time>2015-03-22T13:04:25Z</time>
      </trkpt>
      <trkpt lat="50.06251" lon="5.18571">
        <ele>208</ele>
        <time>2015-03-22T13:04:31Z</time>
      </trkpt>
      <trkpt lat="50.06252" lon="5.18576">
        <ele>208</ele>
        <time>2015-03-22T13:04:36Z</time>
      </trkpt>
      <trkpt lat="50.06255" lon="5.18581">
        <ele>209</ele>
        <time>2015-03-22T13:04:41Z</time>
      </trkpt>
      <trkpt lat="50.06258" lon="5.18587">
        <ele>210</ele>
        <time>2015-03-22T13:04:47Z</time>
      </trkpt>
      <trkpt lat="50.06259" lon="5.1859">
        <ele>210</ele>
        <time>2015-03-22T13:04:52Z</time>
      </trkpt>
      <trkpt lat="50.06258" lon="5.18594">
        <ele>212</ele>
        <time>2015-03-22T13:04:57Z</time>
      </trkpt>
      <trkpt lat="50.06257" lon="5.18598">
        <ele>212</ele>
        <time>2015-03-22T13:05:02Z</time>
      </trkpt>
      <trkpt lat="50.06255" lon="5.18602">
        <ele>213</ele>
        <time>2015-03-22T13:05:07Z</time>
      </trkpt>
      <trkpt lat="50.06251" lon="5.18607">
        <ele>213</ele>
        <time>2015-03-22T13:05:13Z</time>
      </trkpt>
      <trkpt lat="50.06247" lon="5.18611">
        <ele>214</ele>
        <time>2015-03-22T13:05:19Z</time>
      </trkpt>
      <trkpt lat="50.06243" lon="5.18616">
        <ele>215</ele>
        <time>2015-03-22T13:05:25Z</time>
      </trkpt>
      <trkpt lat="50.06239" lon="5.18618">
        <ele>215</ele>
        <time>2015-03-22T13:05:30Z</time>
      </trkpt>
      <trkpt lat="50.06234" lon="5.1862">
        <ele>216</ele>
        <time>2015-03-22T13:05:36Z</time>
      </trkpt>
      <trkpt lat="50.06227" lon="5.18624">
        <ele>216</ele>
        <time>2015-03-22T13:05:42Z</time>
      </trkpt>
      <trkpt lat="50.0622" lon="5.18623">
        <ele>217</ele>
        <time>2015-03-22T13:05:48Z</time>
      </trkpt>
      <trkpt lat="50.06213" lon="5.18618">
        <ele>217</ele>
        <time>2015-03-22T13:05:54Z</time>
      </trkpt>
      <trkpt lat="50.06205" lon="5.18614">
        <ele>216</ele>
        <time>2015-03-22T13:06:00Z</time>
      </trkpt>
      <trkpt lat="50.06197" lon="5.18617">
        <ele>215</ele>
        <time>2015-03-22T13:06:06Z</time>
      </trkpt>
      <trkpt lat="50.06196" lon="5.18617">
        <ele>215</ele>
        <time>2015-03-22T13:06:11Z</time>
      </trkpt>
      <trkpt lat="50.06192" lon="5.18614">
        <ele>215</ele>
        <time>2015-03-22T13:06:16Z</time>
      </trkpt>
      <trkpt lat="50.06191" lon="5.18613">
        <ele>215</ele>
        <time>2015-03-22T13:06:22Z</time>
      </trkpt>
      <trkpt lat="50.06194" lon="5.18613">
        <ele>215</ele>
        <time>2015-03-22T13:06:27Z</time>
      </trkpt>
      <trkpt lat="50.06195" lon="5.1861">
        <ele>216</ele>
        <time>2015-03-22T13:06:32Z</time>
      </trkpt>
      <trkpt lat="50.06196" lon="5.1861">
        <ele>216</ele>
        <time>2015-03-22T13:06:38Z</time>
      </trkpt>
      <trkpt lat="50.06197" lon="5.18613">
        <ele>217</ele>
        <time>2015-03-22T13:06:43Z</time>
      </trkpt>
      <trkpt lat="50.06197" lon="5.18617">
        <ele>217</ele>
        <time>2015-03-22T13:06:49Z</time>
      </trkpt>
      <trkpt lat="50.06197" lon="5.18621">
        <ele>218</ele>
        <time>2015-03-22T13:06:54Z</time>
      </trkpt>
      <trkpt lat="50.062" lon="5.18622">
        <ele>218</ele>
        <time>2015-03-22T13:07:00Z</time>
      </trkpt>
      <trkpt lat="50.06203" lon="5.18624">
        <ele>218</ele>
        <time>2015-03-22T13:07:06Z</time>
      </trkpt>
      <trkpt lat="50.06202" lon="5.18629">
        <ele>218</ele>
        <time>2015-03-22T13:07:12Z</time>
      </trkpt>
      <trkpt lat="50.06201" lon="5.18633">
        <ele>218</ele>
        <time>2015-03-22T13:07:18Z</time>
      </trkpt>
      <trkpt lat="50.062" lon="5.18637">
        <ele>219</ele>
        <time>2015-03-22T13:07:24Z</time>
      </trkpt>
      <trkpt lat="50.06199" lon="5.18639">
        <ele>219</ele>
        <time>2015-03-22T13:07:29Z</time>
      </trkpt>
      <trkpt lat="50.06198" lon="5.18643">
        <ele>219</ele>
        <time>2015-03-22T13:07:35Z</time>
      </trkpt>
      <trkpt lat="50.06198" lon="5.18646">
        <ele>220</ele>
        <time>2015-03-22T13:07:41Z</time>
      </trkpt>
      <trkpt lat="50.06198" lon="5.18648">
        <ele>221</ele>
        <time>2015-03-22T13:07:47Z</time>
      </trkpt>
      <trkpt lat="50.06199" lon="5.18651">
        <ele>221</ele>
        <time>2015-03-22T13:07:52Z</time>
      </trkpt>
      <trkpt lat="50.062" lon="5.18653">
        <ele>222</ele>
        <time>2015-03-22T13:07:58Z</time>
      </trkpt>
      <trkpt lat="50.062" lon="5.18657">
        <ele>223</ele>
        <time>2015-03-22T13:08:04Z</time>
      </trkpt>
      <trkpt lat="50.06195" lon="5.18659">
        <ele>223</ele>
        <time>2015-03-22T13:08:10Z</time>
      </trkpt>
      <trkpt lat="50.06193" lon="5.18663">
        <ele>223</ele>
        <time>2015-03-22T13:08:15Z</time>
      </trkpt>
      <trkpt lat="50.06191" lon="5.18667">
        <ele>224</ele>
        <time>2015-03-22T13:08:21Z</time>
      </trkpt>
      <trkpt lat="50.06188" lon="5.18671">
        <ele>225</ele>
        <time>2015-03-22T13:08:26Z</time>
      </trkpt>
      <trkpt lat="50.06184" lon="5.18676">
        <ele>226</ele>
        <time>2015-03-22T13:08:32Z</time>
      </trkpt>
      <trkpt lat="50.0618" lon="5.1868">
        <ele>227</ele>
        <time>2015-03-22T13:08:37Z</time>
      </trkpt>
      <trkpt lat="50.06176" lon="5.1868">
        <ele>228</ele>
        <time>2015-03-22T13:08:42Z</time>
      </trkpt>
      <trkpt lat="50.06172" lon="5.18684">
        <ele>228</ele>
        <time>2015-03-22T13:08:48Z</time>
      </trkpt>
      <trkpt lat="50.06168" lon="5.18688">
        <ele>228</ele>
        <time>2015-03-22T13:08:53Z</time>
      </trkpt>
      <trkpt lat="50.06164" lon="5.18693">
        <ele>230</ele>
        <time>2015-03-22T13:08:59Z</time>
      </trkpt>
      <trkpt lat="50.06158" lon="5.18697">
        <ele>230</ele>
        <time>2015-03-22T13:09:05Z</time>
      </trkpt>
      <trkpt lat="50.06151" lon="5.18701">
        <ele>231</ele>
        <time>2015-03-22T13:09:11Z</time>
      </trkpt>
      <trkpt lat="50.06147" lon="5.18705">
        <ele>232</ele>
        <time>2015-03-22T13:09:17Z</time>
      </trkpt>
      <trkpt lat="50.06144" lon="5.18709">
        <ele>232</ele>
        <time>2015-03-22T13:09:23Z</time>
      </trkpt>
      <trkpt lat="50.06142" lon="5.18712">
        <ele>233</ele>
        <time>2015-03-22T13:09:29Z</time>
      </trkpt>
      <trkpt lat="50.0614" lon="5.18714">
        <ele>234</ele>
        <time>2015-03-22T13:09:34Z</time>
      </trkpt>
      <trkpt lat="50.06136" lon="5.18716">
        <ele>235</ele>
        <time>2015-03-22T13:09:40Z</time>
      </trkpt>
      <trkpt lat="50.0613" lon="5.18719">
        <ele>235</ele>
        <time>2015-03-22T13:09:46Z</time>
      </trkpt>
      <trkpt lat="50.06127" lon="5.18719">
        <ele>235</ele>
        <time>2015-03-22T13:09:52Z</time>
      </trkpt>
      <trkpt lat="50.06125" lon="5.18719">
        <ele>235</ele>
        <time>2015-03-22T13:09:57Z</time>
      </trkpt>
      <trkpt lat="50.06123" lon="5.18719">
        <ele>235</ele>
        <time>2015-03-22T13:10:03Z</time>
      </trkpt>
      <trkpt lat="50.06121" lon="5.1872">
        <ele>235</ele>
        <time>2015-03-22T13:10:09Z</time>
      </trkpt>
      <trkpt lat="50.0612" lon="5.1872">
        <ele>234</ele>
        <time>2015-03-22T13:10:14Z</time>
      </trkpt>
      <trkpt lat="50.06119" lon="5.1872">
        <ele>235</ele>
        <time>2015-03-22T13:10:20Z</time>
      </trkpt>
      <trkpt lat="50.06118" lon="5.1872">
        <ele>235</ele>
        <time>2015-03-22T13:10:25Z</time>
      </trkpt>
      <trkpt lat="50.06118" lon="5.1872">
        <ele>235</ele>
        <time>2015-03-22T13:10:30Z</time>
      </trkpt>
      <trkpt lat="50.06117" lon="5.1872">
        <ele>234</ele>
        <time>2015-03-22T13:10:38Z</time>
      </trkpt>
      <trkpt lat="50.06117" lon="5.1872">
        <ele>234</ele>
        <time>2015-03-22T13:10:44Z</time>
      </trkpt>
      <trkpt lat="50.06116" lon="5.1872">
        <ele>235</ele>
        <time>2015-03-22T13:10:52Z</time>
      </trkpt>
      <trkpt lat="50.06116" lon="5.1872">
        <ele>234</ele>
        <time>2015-03-22T13:10:57Z</time>
      </trkpt>
      <trkpt lat="50.06116" lon="5.1872">
        <ele>234</ele>
        <time>2015-03-22T13:11:02Z</time>
      </trkpt>
      <trkpt lat="50.06116" lon="5.1872">
        <ele>234</ele>
        <time>2015-03-22T13:11:13Z</time>
      </trkpt>
      <trkpt lat="50.06115" lon="5.1872">
        <ele>235</ele>
        <time>2015-03-22T13:11:20Z</time>
      </trkpt>
      <trkpt lat="50.06115" lon="5.1872">
        <ele>235</ele>
        <time>2015-03-22T13:11:28Z</time>
      </trkpt>
      <trkpt lat="50.06115" lon="5.1872">
        <ele>235</ele>
        <time>2015-03-22T13:11:43Z</time>
      </trkpt>
      <trkpt lat="50.06115" lon="5.1872">
        <ele>235</ele>
        <time>2015-03-22T13:11:50Z</time>
      </trkpt>
      <trkpt lat="50.06115" lon="5.1872">
        <ele>235</ele>
        <time>2015-03-22T13:11:56Z</time>
      </trkpt>
      <trkpt lat="50.06115" lon="5.18719">
        <ele>235</ele>
        <time>2015-03-22T13:12:04Z</time>
      </trkpt>
      <trkpt lat="50.06115" lon="5.18719">
        <ele>235</ele>
        <time>2015-03-22T13:12:12Z</time>
      </trkpt>
      <trkpt lat="50.06115" lon="5.18718">
        <ele>235</ele>
        <time>2015-03-22T13:12:17Z</time>
      </trkpt>
      <trkpt lat="50.06115" lon="5.18717">
        <ele>236</ele>
        <time>2015-03-22T13:12:23Z</time>
      </trkpt>
      <trkpt lat="50.06115" lon="5.18715">
        <ele>236</ele>
        <time>2015-03-22T13:12:29Z</time>
      </trkpt>
      <trkpt lat="50.06114" lon="5.18713">
        <ele>236</ele>
        <time>2015-03-22T13:12:35Z</time>
      </trkpt>
      <trkpt lat="50.06114" lon="5.18711">
        <ele>236</ele>
        <time>2015-03-22T13:12:40Z</time>
      </trkpt>
      <trkpt lat="50.06112" lon="5.18709">
        <ele>237</ele>
        <time>2015-03-22T13:12:46Z</time>
      </trkpt>
      <trkpt lat="50.06107" lon="5.18709">
        <ele>237</ele>
        <time>2015-03-22T13:12:51Z</time>
      </trkpt>
      <trkpt lat="50.06102" lon="5.18711">
        <ele>238</ele>
        <time>2015-03-22T13:12:57Z</time>
      </trkpt>
      <trkpt lat="50.06097" lon="5.18712">
        <ele>238</ele>
        <time>2015-03-22T13:13:03Z</time>
      </trkpt>
      <trkpt lat="50.06093" lon="5.18713">
        <ele>238</ele>
        <time>2015-03-22T13:13:08Z</time>
      </trkpt>
      <trkpt lat="50.06092" lon="5.18716">
        <ele>238</ele>
        <time>2015-03-22T13:13:14Z</time>
      </trkpt>
      <trkpt lat="50.06088" lon="5.18717">
        <ele>239</ele>
        <time>2015-03-22T13:13:19Z</time>
      </trkpt>
      <trkpt lat="50.06083" lon="5.18717">
        <ele>240</ele>
        <time>2015-03-22T13:13:24Z</time>
      </trkpt>
      <trkpt lat="50.06078" lon="5.18717">
        <ele>240</ele>
        <time>2015-03-22T13:13:30Z</time>
      </trkpt>
      <trkpt lat="50.06075" lon="5.18719">
        <ele>241</ele>
        <time>2015-03-22T13:13:35Z</time>
      </trkpt>
      <trkpt lat="50.0607" lon="5.18722">
        <ele>241</ele>
        <time>2015-03-22T13:13:41Z</time>
      </trkpt>
      <trkpt lat="50.06066" lon="5.18723">
        <ele>241</ele>
        <time>2015-03-22T13:13:46Z</time>
      </trkpt>
      <trkpt lat="50.06061" lon="5.18725">
        <ele>241</ele>
        <time>2015-03-22T13:13:52Z</time>
      </trkpt>
      <trkpt lat="50.06055" lon="5.18727">
        <ele>242</ele>
        <time>2015-03-22T13:13:58Z</time>
      </trkpt>
      <trkpt lat="50.0605" lon="5.18728">
        <ele>242</ele>
        <time>2015-03-22T13:14:03Z</time>
      </trkpt>
      <trkpt lat="50.06044" lon="5.18729">
        <ele>243</ele>
        <time>2015-03-22T13:14:09Z</time>
      </trkpt>
      <trkpt lat="50.0604" lon="5.18731">
        <ele>243</ele>
        <time>2015-03-22T13:14:14Z</time>
      </trkpt>
      <trkpt lat="50.06034" lon="5.18729">
        <ele>243</ele>
        <time>2015-03-22T13:14:20Z</time>
      </trkpt>
      <trkpt lat="50.0603" lon="5.18729">
        <ele>243</ele>
        <time>2015-03-22T13:14:25Z</time>
      </trkpt>
      <trkpt lat="50.06025" lon="5.18727">
        <ele>243</ele>
        <time>2015-03-22T13:14:30Z</time>
      </trkpt>
      <trkpt lat="50.06021" lon="5.18727">
        <ele>244</ele>
        <time>2015-03-22T13:14:35Z</time>
      </trkpt>
      <trkpt lat="50.06017" lon="5.18725">
        <ele>244</ele>
        <time>2015-03-22T13:14:40Z</time>
      </trkpt>
      <trkpt lat="50.06012" lon="5.18724">
        <ele>244</ele>
        <time>2015-03-22T13:14:46Z</time>
      </trkpt>
      <trkpt lat="50.06006" lon="5.18724">
        <ele>245</ele>
        <time>2015-03-22T13:14:52Z</time>
      </trkpt>
      <trkpt lat="50.06002" lon="5.18724">
        <ele>245</ele>
        <time>2015-03-22T13:14:57Z</time>
      </trkpt>
      <trkpt lat="50.05996" lon="5.18723">
        <ele>245</ele>
        <time>2015-03-22T13:15:02Z</time>
      </trkpt>
      <trkpt lat="50.05991" lon="5.18722">
        <ele>245</ele>
        <time>2015-03-22T13:15:07Z</time>
      </trkpt>
      <trkpt lat="50.05986" lon="5.18723">
        <ele>246</ele>
        <time>2015-03-22T13:15:13Z</time>
      </trkpt>
      <trkpt lat="50.05981" lon="5.18722">
        <ele>246</ele>
        <time>2015-03-22T13:15:19Z</time>
      </trkpt>
      <trkpt lat="50.05975" lon="5.18723">
        <ele>247</ele>
        <time>2015-03-22T13:15:25Z</time>
      </trkpt>
      <trkpt lat="50.0597" lon="5.18722">
        <ele>247</ele>
        <time>2015-03-22T13:15:30Z</time>
      </trkpt>
      <trkpt lat="50.05965" lon="5.18723">
        <ele>247</ele>
        <time>2015-03-22T13:15:35Z</time>
      </trkpt>
      <trkpt lat="50.05961" lon="5.18724">
        <ele>247</ele>
        <time>2015-03-22T13:15:40Z</time>
      </trkpt>
      <trkpt lat="50.05957" lon="5.18724">
        <ele>248</ele>
        <time>2015-03-22T13:15:46Z</time>
      </trkpt>
      <trkpt lat="50.05952" lon="5.18725">
        <ele>249</ele>
        <time>2015-03-22T13:15:52Z</time>
      </trkpt>
      <trkpt lat="50.05948" lon="5.18727">
        <ele>248</ele>
        <time>2015-03-22T13:15:57Z</time>
      </trkpt>
      <trkpt lat="50.05944" lon="5.18729">
        <ele>249</ele>
        <time>2015-03-22T13:16:02Z</time>
      </trkpt>
      <trkpt lat="50.05938" lon="5.1873">
        <ele>249</ele>
        <time>2015-03-22T13:16:08Z</time>
      </trkpt>
      <trkpt lat="50.05935" lon="5.18731">
        <ele>249</ele>
        <time>2015-03-22T13:16:13Z</time>
      </trkpt>
      <trkpt lat="50.05932" lon="5.18733">
        <ele>249</ele>
        <time>2015-03-22T13:16:19Z</time>
      </trkpt>
      <trkpt lat="50.05927" lon="5.18732">
        <ele>249</ele>
        <time>2015-03-22T13:16:25Z</time>
      </trkpt>
      <trkpt lat="50.05921" lon="5.18734">
        <ele>249</ele>
        <time>2015-03-22T13:16:30Z</time>
      </trkpt>
      <trkpt lat="50.05915" lon="5.18734">
        <ele>249</ele>
        <time>2015-03-22T13:16:36Z</time>
      </trkpt>
      <trkpt lat="50.05909" lon="5.18734">
        <ele>250</ele>
        <time>2015-03-22T13:16:42Z</time>
      </trkpt>
      <trkpt lat="50.05903" lon="5.18734">
        <ele>250</ele>
        <time>2015-03-22T13:16:48Z</time>
      </trkpt>
      <trkpt lat="50.05899" lon="5.18736">
        <ele>250</ele>
        <time>2015-03-22T13:16:54Z</time>
      </trkpt>
      <trkpt lat="50.05891" lon="5.18737">
        <ele>250</ele>
        <time>2015-03-22T13:17:00Z</time>
      </trkpt>
      <trkpt lat="50.05884" lon="5.18737">
        <ele>250</ele>
        <time>2015-03-22T13:17:06Z</time>
      </trkpt>
      <trkpt lat="50.0588" lon="5.18738">
        <ele>250</ele>
        <time>2015-03-22T13:17:11Z</time>
      </trkpt>
      <trkpt lat="50.05876" lon="5.18737">
        <ele>251</ele>
        <time>2015-03-22T13:17:17Z</time>
      </trkpt>
      <trkpt lat="50.05871" lon="5.1874">
        <ele>251</ele>
        <time>2015-03-22T13:17:23Z</time>
      </trkpt>
      <trkpt lat="50.05868" lon="5.18745">
        <ele>251</ele>
        <time>2015-03-22T13:17:28Z</time>
      </trkpt>
      <trkpt lat="50.05866" lon="5.1875">
        <ele>251</ele>
        <time>2015-03-22T13:17:34Z</time>
      </trkpt>
      <trkpt lat="50.05865" lon="5.18758">
        <ele>252</ele>
        <time>2015-03-22T13:17:39Z</time>
      </trkpt>
      <trkpt lat="50.05865" lon="5.18765">
        <ele>252</ele>
        <time>2015-03-22T13:17:45Z</time>
      </trkpt>
      <trkpt lat="50.05867" lon="5.18773">
        <ele>252</ele>
        <time>2015-03-22T13:17:50Z</time>
      </trkpt>
      <trkpt lat="50.05871" lon="5.18781">
        <ele>252</ele>
        <time>2015-03-22T13:17:56Z</time>
      </trkpt>
      <trkpt lat="50.05875" lon="5.18788">
        <ele>252</ele>
        <time>2015-03-22T13:18:01Z</time>
      </trkpt>
      <trkpt lat="50.0588" lon="5.18796">
        <ele>252</ele>
        <time>2015-03-22T13:18:07Z</time>
      </trkpt>
      <trkpt lat="50.05884" lon="5.18805">
        <ele>252</ele>
        <time>2015-03-22T13:18:13Z</time>
      </trkpt>
      <trkpt lat="50.05887" lon="5.18812">
        <ele>252</ele>
        <time>2015-03-22T13:18:18Z</time>
      </trkpt>
      <trkpt lat="50.05891" lon="5.1882">
        <ele>252</ele>
        <time>2015-03-22T13:18:24Z</time>
      </trkpt>
      <trkpt lat="50.05895" lon="5.18825">
        <ele>252</ele>
        <time>2015-03-22T13:18:29Z</time>
      </trkpt>
      <trkpt lat="50.05898" lon="5.18832">
        <ele>252</ele>
        <time>2015-03-22T13:18:34Z</time>
      </trkpt>
      <trkpt lat="50.059" lon="5.18841">
        <ele>253</ele>
        <time>2015-03-22T13:18:40Z</time>
      </trkpt>
      <trkpt lat="50.05903" lon="5.18849">
        <ele>253</ele>
        <time>2015-03-22T13:18:46Z</time>
      </trkpt>
      <trkpt lat="50.05906" lon="5.18856">
        <ele>253</ele>
        <time>2015-03-22T13:18:51Z</time>
      </trkpt>
      <trkpt lat="50.0591" lon="5.18863">
        <ele>253</ele>
        <time>2015-03-22T13:18:56Z</time>
      </trkpt>
      <trkpt lat="50.05913" lon="5.1887">
        <ele>253</ele>
        <time>2015-03-22T13:19:01Z</time>
      </trkpt>
      <trkpt lat="50.05918" lon="5.18876">
        <ele>252</ele>
        <time>2015-03-22T13:19:07Z</time>
      </trkpt>
      <trkpt lat="50.05922" lon="5.18883">
        <ele>252</ele>
        <time>2015-03-22T13:19:13Z</time>
      </trkpt>
      <trkpt lat="50.05925" lon="5.18889">
        <ele>252</ele>
        <time>2015-03-22T13:19:18Z</time>
      </trkpt>
      <trkpt lat="50.05929" lon="5.18896">
        <ele>253</ele>
        <time>2015-03-22T13:19:23Z</time>
      </trkpt>
      <trkpt lat="50.05931" lon="5.18903">
        <ele>253</ele>
        <time>2015-03-22T13:19:28Z</time>
      </trkpt>
      <trkpt lat="50.05936" lon="5.18912">
        <ele>253</ele>
        <time>2015-03-22T13:19:34Z</time>
      </trkpt>
      <trkpt lat="50.05941" lon="5.18921">
        <ele>253</ele>
        <time>2015-03-22T13:19:40Z</time>
      </trkpt>
      <trkpt lat="50.05946" lon="5.18927">
        <ele>252</ele>
        <time>2015-03-22T13:19:45Z</time>
      </trkpt>
      <trkpt lat="50.0595" lon="5.18935">
        <ele>253</ele>
        <time>2015-03-22T13:19:50Z</time>
      </trkpt>
      <trkpt lat="50.05955" lon="5.18942">
        <ele>252</ele>
        <time>2015-03-22T13:19:55Z</time>
      </trkpt>
      <trkpt lat="50.05958" lon="5.1895">
        <ele>252</ele>
        <time>2015-03-22T13:20:00Z</time>
      </trkpt>
      <trkpt lat="50.05965" lon="5.18958">
        <ele>252</ele>
        <time>2015-03-22T13:20:06Z</time>
      </trkpt>
      <trkpt lat="50.05967" lon="5.18965">
        <ele>251</ele>
        <time>2015-03-22T13:20:11Z</time>
      </trkpt>
      <trkpt lat="50.05971" lon="5.18972">
        <ele>252</ele>
        <time>2015-03-22T13:20:16Z</time>
      </trkpt>
      <trkpt lat="50.05975" lon="5.18979">
        <ele>252</ele>
        <time>2015-03-22T13:20:22Z</time>
      </trkpt>
      <trkpt lat="50.05979" lon="5.18985">
        <ele>251</ele>
        <time>2015-03-22T13:20:27Z</time>
      </trkpt>
      <trkpt lat="50.05983" lon="5.18991">
        <ele>251</ele>
        <time>2015-03-22T13:20:33Z</time>
      </trkpt>
      <trkpt lat="50.05988" lon="5.18996">
        <ele>250</ele>
        <time>2015-03-22T13:20:38Z</time>
      </trkpt>
      <trkpt lat="50.05992" lon="5.19004">
        <ele>250</ele>
        <time>2015-03-22T13:20:44Z</time>
      </trkpt>
      <trkpt lat="50.05997" lon="5.19011">
        <ele>250</ele>
        <time>2015-03-22T13:20:50Z</time>
      </trkpt>
      <trkpt lat="50.06002" lon="5.1902">
        <ele>250</ele>
        <time>2015-03-22T13:20:56Z</time>
      </trkpt>
      <trkpt lat="50.06007" lon="5.19027">
        <ele>249</ele>
        <time>2015-03-22T13:21:01Z</time>
      </trkpt>
      <trkpt lat="50.06012" lon="5.19034">
        <ele>250</ele>
        <time>2015-03-22T13:21:06Z</time>
      </trkpt>
      <trkpt lat="50.06016" lon="5.19044">
        <ele>249</ele>
        <time>2015-03-22T13:21:12Z</time>
      </trkpt>
      <trkpt lat="50.0602" lon="5.19053">
        <ele>250</ele>
        <time>2015-03-22T13:21:17Z</time>
      </trkpt>
      <trkpt lat="50.06023" lon="5.19065">
        <ele>249</ele>
        <time>2015-03-22T13:21:23Z</time>
      </trkpt>
      <trkpt lat="50.06025" lon="5.19074">
        <ele>250</ele>
        <time>2015-03-22T13:21:28Z</time>
      </trkpt>
      <trkpt lat="50.06029" lon="5.19086">
        <ele>250</ele>
        <time>2015-03-22T13:21:34Z</time>
      </trkpt>
      <trkpt lat="50.06033" lon="5.19095">
        <ele>250</ele>
        <time>2015-03-22T13:21:39Z</time>
      </trkpt>
      <trkpt lat="50.06036" lon="5.19104">
        <ele>250</ele>
        <time>2015-03-22T13:21:44Z</time>
      </trkpt>
      <trkpt lat="50.06041" lon="5.19115">
        <ele>250</ele>
        <time>2015-03-22T13:21:50Z</time>
      </trkpt>
      <trkpt lat="50.06043" lon="5.19125">
        <ele>249</ele>
        <time>2015-03-22T13:21:55Z</time>
      </trkpt>
      <trkpt lat="50.06046" lon="5.19136">
        <ele>249</ele>
        <time>2015-03-22T13:22:01Z</time>
      </trkpt>
      <trkpt lat="50.06048" lon="5.19144">
        <ele>249</ele>
        <time>2015-03-22T13:22:06Z</time>
      </trkpt>
      <trkpt lat="50.06051" lon="5.19153">
        <ele>249</ele>
        <time>2015-03-22T13:22:12Z</time>
      </trkpt>
      <trkpt lat="50.06053" lon="5.19158">
        <ele>249</ele>
        <time>2015-03-22T13:22:17Z</time>
      </trkpt>
      <trkpt lat="50.06055" lon="5.19166">
        <ele>249</ele>
        <time>2015-03-22T13:22:22Z</time>
      </trkpt>
      <trkpt lat="50.06056" lon="5.19177">
        <ele>249</ele>
        <time>2015-03-22T13:22:28Z</time>
      </trkpt>
      <trkpt lat="50.06059" lon="5.19185">
        <ele>249</ele>
        <time>2015-03-22T13:22:33Z</time>
      </trkpt>
      <trkpt lat="50.0606" lon="5.19195">
        <ele>248</ele>
        <time>2015-03-22T13:22:38Z</time>
      </trkpt>
      <trkpt lat="50.06062" lon="5.19205">
        <ele>248</ele>
        <time>2015-03-22T13:22:44Z</time>
      </trkpt>
      <trkpt lat="50.06065" lon="5.19214">
        <ele>248</ele>
        <time>2015-03-22T13:22:50Z</time>
      </trkpt>
      <trkpt lat="50.06066" lon="5.19222">
        <ele>248</ele>
        <time>2015-03-22T13:22:55Z</time>
      </trkpt>
      <trkpt lat="50.06068" lon="5.19231">
        <ele>248</ele>
        <time>2015-03-22T13:23:01Z</time>
      </trkpt>
      <trkpt lat="50.06068" lon="5.19239">
        <ele>248</ele>
        <time>2015-03-22T13:23:06Z</time>
      </trkpt>
      <trkpt lat="50.06068" lon="5.19247">
        <ele>248</ele>
        <time>2015-03-22T13:23:11Z</time>
      </trkpt>
      <trkpt lat="50.06068" lon="5.19258">
        <ele>248</ele>
        <time>2015-03-22T13:23:17Z</time>
      </trkpt>
      <trkpt lat="50.06069" lon="5.19268">
        <ele>249</ele>
        <time>2015-03-22T13:23:23Z</time>
      </trkpt>
      <trkpt lat="50.06069" lon="5.19277">
        <ele>249</ele>
        <time>2015-03-22T13:23:28Z</time>
      </trkpt>
      <trkpt lat="50.0607" lon="5.19286">
        <ele>248</ele>
        <time>2015-03-22T13:23:33Z</time>
      </trkpt>
      <trkpt lat="50.06071" lon="5.19296">
        <ele>248</ele>
        <time>2015-03-22T13:23:38Z</time>
      </trkpt>
      <trkpt lat="50.06072" lon="5.19307">
        <ele>248</ele>
        <time>2015-03-22T13:23:44Z</time>
      </trkpt>
      <trkpt lat="50.06073" lon="5.19318">
        <ele>247</ele>
        <time>2015-03-22T13:23:50Z</time>
      </trkpt>
      <trkpt lat="50.06073" lon="5.19327">
        <ele>247</ele>
        <time>2015-03-22T13:23:55Z</time>
      </trkpt>
      <trkpt lat="50.06073" lon="5.19339">
        <ele>247</ele>
        <time>2015-03-22T13:24:01Z</time>
      </trkpt>
      <trkpt lat="50.06071" lon="5.19348">
        <ele>246</ele>
        <time>2015-03-22T13:24:07Z</time>
      </trkpt>
      <trkpt lat="50.06071" lon="5.19356">
        <ele>246</ele>
        <time>2015-03-22T13:24:12Z</time>
      </trkpt>
      <trkpt lat="50.06074" lon="5.19363">
        <ele>246</ele>
        <time>2015-03-22T13:24:18Z</time>
      </trkpt>
      <trkpt lat="50.06076" lon="5.1937">
        <ele>245</ele>
        <time>2015-03-22T13:24:23Z</time>
      </trkpt>
      <trkpt lat="50.06079" lon="5.19373">
        <ele>245</ele>
        <time>2015-03-22T13:24:28Z</time>
      </trkpt>
      <trkpt lat="50.06084" lon="5.19374">
        <ele>245</ele>
        <time>2015-03-22T13:24:34Z</time>
      </trkpt>
      <trkpt lat="50.06089" lon="5.19373">
        <ele>245</ele>
        <time>2015-03-22T13:24:39Z</time>
      </trkpt>
      <trkpt lat="50.06095" lon="5.19372">
        <ele>245</ele>
        <time>2015-03-22T13:24:45Z</time>
      </trkpt>
      <trkpt lat="50.06101" lon="5.19373">
        <ele>245</ele>
        <time>2015-03-22T13:24:51Z</time>
      </trkpt>
      <trkpt lat="50.06105" lon="5.19377">
        <ele>246</ele>
        <time>2015-03-22T13:24:56Z</time>
      </trkpt>
      <trkpt lat="50.06109" lon="5.19387">
        <ele>247</ele>
        <time>2015-03-22T13:25:02Z</time>
      </trkpt>
      <trkpt lat="50.06111" lon="5.19402">
        <ele>247</ele>
        <time>2015-03-22T13:25:08Z</time>
      </trkpt>
      <trkpt lat="50.06113" lon="5.19414">
        <ele>248</ele>
        <time>2015-03-22T13:25:13Z</time>
      </trkpt>
      <trkpt lat="50.06115" lon="5.19427">
        <ele>248</ele>
        <time>2015-03-22T13:25:18Z</time>
      </trkpt>
      <trkpt lat="50.06116" lon="5.19441">
        <ele>248</ele>
        <time>2015-03-22T13:25:24Z</time>
      </trkpt>
      <trkpt lat="50.06118" lon="5.19452">
        <ele>248</ele>
        <time>2015-03-22T13:25:29Z</time>
      </trkpt>
      <trkpt lat="50.06118" lon="5.19465">
        <ele>249</ele>
        <time>2015-03-22T13:25:35Z</time>
      </trkpt>
      <trkpt lat="50.06118" lon="5.19477">
        <ele>250</ele>
        <time>2015-03-22T13:25:41Z</time>
      </trkpt>
      <trkpt lat="50.06119" lon="5.1949">
        <ele>250</ele>
        <time>2015-03-22T13:25:47Z</time>
      </trkpt>
      <trkpt lat="50.06118" lon="5.195">
        <ele>251</ele>
        <time>2015-03-22T13:25:52Z</time>
      </trkpt>
      <trkpt lat="50.06116" lon="5.19509">
        <ele>252</ele>
        <time>2015-03-22T13:25:57Z</time>
      </trkpt>
      <trkpt lat="50.06113" lon="5.19518">
        <ele>252</ele>
        <time>2015-03-22T13:26:03Z</time>
      </trkpt>
      <trkpt lat="50.06112" lon="5.19521">
        <ele>251</ele>
        <time>2015-03-22T13:26:08Z</time>
      </trkpt>
      <trkpt lat="50.0611" lon="5.19529">
        <ele>251</ele>
        <time>2015-03-22T13:26:13Z</time>
      </trkpt>
      <trkpt lat="50.0611" lon="5.19539">
        <ele>251</ele>
        <time>2015-03-22T13:26:19Z</time>
      </trkpt>
      <trkpt lat="50.06109" lon="5.19549">
        <ele>251</ele>
        <time>2015-03-22T13:26:24Z</time>
      </trkpt>
      <trkpt lat="50.06108" lon="5.19559">
        <ele>251</ele>
        <time>2015-03-22T13:26:30Z</time>
      </trkpt>
      <trkpt lat="50.06107" lon="5.19571">
        <ele>252</ele>
        <time>2015-03-22T13:26:36Z</time>
      </trkpt>
      <trkpt lat="50.06105" lon="5.19581">
        <ele>252</ele>
        <time>2015-03-22T13:26:42Z</time>
      </trkpt>
      <trkpt lat="50.06102" lon="5.19591">
        <ele>252</ele>
        <time>2015-03-22T13:26:48Z</time>
      </trkpt>
      <trkpt lat="50.061" lon="5.19601">
        <ele>252</ele>
        <time>2015-03-22T13:26:54Z</time>
      </trkpt>
      <trkpt lat="50.06098" lon="5.1961">
        <ele>251</ele>
        <time>2015-03-22T13:27:00Z</time>
      </trkpt>
      <trkpt lat="50.06097" lon="5.19621">
        <ele>251</ele>
        <time>2015-03-22T13:27:06Z</time>
      </trkpt>
      <trkpt lat="50.06099" lon="5.19633">
        <ele>251</ele>
        <time>2015-03-22T13:27:12Z</time>
      </trkpt>
      <trkpt lat="50.06101" lon="5.19643">
        <ele>251</ele>
        <time>2015-03-22T13:27:17Z</time>
      </trkpt>
      <trkpt lat="50.06102" lon="5.19654">
        <ele>251</ele>
        <time>2015-03-22T13:27:23Z</time>
      </trkpt>
      <trkpt lat="50.06104" lon="5.19664">
        <ele>251</ele>
        <time>2015-03-22T13:27:29Z</time>
      </trkpt>
      <trkpt lat="50.06105" lon="5.19672">
        <ele>252</ele>
        <time>2015-03-22T13:27:34Z</time>
      </trkpt>
      <trkpt lat="50.06107" lon="5.19682">
        <ele>252</ele>
        <time>2015-03-22T13:27:40Z</time>
      </trkpt>
      <trkpt lat="50.06109" lon="5.19692">
        <ele>252</ele>
        <time>2015-03-22T13:27:46Z</time>
      </trkpt>
      <trkpt lat="50.0611" lon="5.19702">
        <ele>253</ele>
        <time>2015-03-22T13:27:52Z</time>
      </trkpt>
      <trkpt lat="50.0611" lon="5.19711">
        <ele>254</ele>
        <time>2015-03-22T13:27:58Z</time>
      </trkpt>
      <trkpt lat="50.0611" lon="5.19721">
        <ele>255</ele>
        <time>2015-03-22T13:28:04Z</time>
      </trkpt>
      <trkpt lat="50.06111" lon="5.1973">
        <ele>255</ele>
        <time>2015-03-22T13:28:09Z</time>
      </trkpt>
      <trkpt lat="50.06112" lon="5.19738">
        <ele>255</ele>
        <time>2015-03-22T13:28:14Z</time>
      </trkpt>
      <trkpt lat="50.06112" lon="5.19748">
        <ele>255</ele>
        <time>2015-03-22T13:28:19Z</time>
      </trkpt>
      <trkpt lat="50.06112" lon="5.19758">
        <ele>255</ele>
        <time>2015-03-22T13:28:24Z</time>
      </trkpt>
      <trkpt lat="50.06111" lon="5.19768">
        <ele>255</ele>
        <time>2015-03-22T13:28:30Z</time>
      </trkpt>
      <trkpt lat="50.06108" lon="5.19777">
        <ele>256</ele>
        <time>2015-03-22T13:28:36Z</time>
      </trkpt>
      <trkpt lat="50.06105" lon="5.19785">
        <ele>256</ele>
        <time>2015-03-22T13:28:41Z</time>
      </trkpt>
      <trkpt lat="50.06101" lon="5.19795">
        <ele>256</ele>
        <time>2015-03-22T13:28:47Z</time>
      </trkpt>
      <trkpt lat="50.06097" lon="5.19801">
        <ele>256</ele>
        <time>2015-03-22T13:28:52Z</time>
      </trkpt>
      <trkpt lat="50.06093" lon="5.1981">
        <ele>256</ele>
        <time>2015-03-22T13:28:58Z</time>
      </trkpt>
      <trkpt lat="50.0609" lon="5.19817">
        <ele>256</ele>
        <time>2015-03-22T13:29:03Z</time>
      </trkpt>
      <trkpt lat="50.06086" lon="5.19826">
        <ele>256</ele>
        <time>2015-03-22T13:29:09Z</time>
      </trkpt>
      <trkpt lat="50.06084" lon="5.19833">
        <ele>257</ele>
        <time>2015-03-22T13:29:14Z</time>
      </trkpt>
      <trkpt lat="50.06081" lon="5.19841">
        <ele>257</ele>
        <time>2015-03-22T13:29:20Z</time>
      </trkpt>
      <trkpt lat="50.06078" lon="5.19849">
        <ele>258</ele>
        <time>2015-03-22T13:29:26Z</time>
      </trkpt>
      <trkpt lat="50.06076" lon="5.19857">
        <ele>258</ele>
        <time>2015-03-22T13:29:31Z</time>
      </trkpt>
      <trkpt lat="50.06074" lon="5.19866">
        <ele>258</ele>
        <time>2015-03-22T13:29:37Z</time>
      </trkpt>
      <trkpt lat="50.06072" lon="5.19874">
        <ele>258</ele>
        <time>2015-03-22T13:29:42Z</time>
      </trkpt>
      <trkpt lat="50.0607" lon="5.19882">
        <ele>259</ele>
        <time>2015-03-22T13:29:47Z</time>
      </trkpt>
      <trkpt lat="50.06068" lon="5.19891">
        <ele>259</ele>
        <time>2015-03-22T13:29:53Z</time>
      </trkpt>
      <trkpt lat="50.06067" lon="5.19899">
        <ele>260</ele>
        <time>2015-03-22T13:29:58Z</time>
      </trkpt>
      <trkpt lat="50.06066" lon="5.19907">
        <ele>260</ele>
        <time>2015-03-22T13:30:03Z</time>
      </trkpt>
      <trkpt lat="50.06065" lon="5.19915">
        <ele>260</ele>
        <time>2015-03-22T13:30:08Z</time>
      </trkpt>
      <trkpt lat="50.06064" lon="5.19923">
        <ele>261</ele>
        <time>2015-03-22T13:30:13Z</time>
      </trkpt>
      <trkpt lat="50.06063" lon="5.19931">
        <ele>261</ele>
        <time>2015-03-22T13:30:18Z</time>
      </trkpt>
      <trkpt lat="50.06061" lon="5.19941">
        <ele>261</ele>
        <time>2015-03-22T13:30:24Z</time>
      </trkpt>
      <trkpt lat="50.0606" lon="5.19951">
        <ele>261</ele>
        <time>2015-03-22T13:30:30Z</time>
      </trkpt>
      <trkpt lat="50.06057" lon="5.1996">
        <ele>261</ele>
        <time>2015-03-22T13:30:36Z</time>
      </trkpt>
      <trkpt lat="50.06055" lon="5.19964">
        <ele>262</ele>
        <time>2015-03-22T13:30:41Z</time>
      </trkpt>
      <trkpt lat="50.06053" lon="5.19971">
        <ele>262</ele>
        <time>2015-03-22T13:30:47Z</time>
      </trkpt>
      <trkpt lat="50.06049" lon="5.19978">
        <ele>262</ele>
        <time>2015-03-22T13:30:53Z</time>
      </trkpt>
      <trkpt lat="50.06045" lon="5.19986">
        <ele>263</ele>
        <time>2015-03-22T13:30:59Z</time>
      </trkpt>
      <trkpt lat="50.06042" lon="5.19992">
        <ele>264</ele>
        <time>2015-03-22T13:31:04Z</time>
      </trkpt>
      <trkpt lat="50.06039" lon="5.19998">
        <ele>264</ele>
        <time>2015-03-22T13:31:09Z</time>
      </trkpt>
      <trkpt lat="50.06036" lon="5.20006">
        <ele>264</ele>
        <time>2015-03-22T13:31:15Z</time>
      </trkpt>
      <trkpt lat="50.06032" lon="5.20013">
        <ele>264</ele>
        <time>2015-03-22T13:31:21Z</time>
      </trkpt>
      <trkpt lat="50.0603" lon="5.20019">
        <ele>265</ele>
        <time>2015-03-22T13:31:26Z</time>
      </trkpt>
      <trkpt lat="50.06026" lon="5.20026">
        <ele>265</ele>
        <time>2015-03-22T13:31:32Z</time>
      </trkpt>
      <trkpt lat="50.06022" lon="5.20032">
        <ele>266</ele>
        <time>2015-03-22T13:31:37Z</time>
      </trkpt>
      <trkpt lat="50.06018" lon="5.2004">
        <ele>267</ele>
        <time>2015-03-22T13:31:43Z</time>
      </trkpt>
      <trkpt lat="50.06015" lon="5.20046">
        <ele>267</ele>
        <time>2015-03-22T13:31:48Z</time>
      </trkpt>
      <trkpt lat="50.06011" lon="5.20052">
        <ele>266</ele>
        <time>2015-03-22T13:31:54Z</time>
      </trkpt>
      <trkpt lat="50.06008" lon="5.20059">
        <ele>267</ele>
        <time>2015-03-22T13:32:00Z</time>
      </trkpt>
      <trkpt lat="50.06004" lon="5.20065">
        <ele>268</ele>
        <time>2015-03-22T13:32:05Z</time>
      </trkpt>
      <trkpt lat="50.06001" lon="5.20071">
        <ele>268</ele>
        <time>2015-03-22T13:32:11Z</time>
      </trkpt>
      <trkpt lat="50.05998" lon="5.20076">
        <ele>269</ele>
        <time>2015-03-22T13:32:17Z</time>
      </trkpt>
      <trkpt lat="50.05993" lon="5.20083">
        <ele>269</ele>
        <time>2015-03-22T13:32:23Z</time>
      </trkpt>
      <trkpt lat="50.05991" lon="5.20087">
        <ele>270</ele>
        <time>2015-03-22T13:32:29Z</time>
      </trkpt>
      <trkpt lat="50.05988" lon="5.20092">
        <ele>270</ele>
        <time>2015-03-22T13:32:34Z</time>
      </trkpt>
      <trkpt lat="50.05986" lon="5.20096">
        <ele>270</ele>
        <time>2015-03-22T13:32:39Z</time>
      </trkpt>
      <trkpt lat="50.05982" lon="5.20103">
        <ele>270</ele>
        <time>2015-03-22T13:32:44Z</time>
      </trkpt>
      <trkpt lat="50.05978" lon="5.20109">
        <ele>271</ele>
        <time>2015-03-22T13:32:50Z</time>
      </trkpt>
      <trkpt lat="50.05973" lon="5.20114">
        <ele>271</ele>
        <time>2015-03-22T13:32:56Z</time>
      </trkpt>
      <trkpt lat="50.05969" lon="5.20122">
        <ele>272</ele>
        <time>2015-03-22T13:33:01Z</time>
      </trkpt>
      <trkpt lat="50.05966" lon="5.20129">
        <ele>272</ele>
        <time>2015-03-22T13:33:06Z</time>
      </trkpt>
      <trkpt lat="50.05963" lon="5.20134">
        <ele>272</ele>
        <time>2015-03-22T13:33:11Z</time>
      </trkpt>
      <trkpt lat="50.05961" lon="5.2014">
        <ele>272</ele>
        <time>2015-03-22T13:33:16Z</time>
      </trkpt>
      <trkpt lat="50.05958" lon="5.20145">
        <ele>272</ele>
        <time>2015-03-22T13:33:22Z</time>
      </trkpt>
      <trkpt lat="50.05954" lon="5.2015">
        <ele>273</ele>
        <time>2015-03-22T13:33:27Z</time>
      </trkpt>
      <trkpt lat="50.05952" lon="5.20155">
        <ele>273</ele>
        <time>2015-03-22T13:33:32Z</time>
      </trkpt>
      <trkpt lat="50.0595" lon="5.20161">
        <ele>273</ele>
        <time>2015-03-22T13:33:38Z</time>
      </trkpt>
      <trkpt lat="50.05948" lon="5.20167">
        <ele>274</ele>
        <time>2015-03-22T13:33:43Z</time>
      </trkpt>
      <trkpt lat="50.05945" lon="5.20172">
        <ele>274</ele>
        <time>2015-03-22T13:33:48Z</time>
      </trkpt>
      <trkpt lat="50.05941" lon="5.20179">
        <ele>275</ele>
        <time>2015-03-22T13:33:54Z</time>
      </trkpt>
      <trkpt lat="50.05938" lon="5.20184">
        <ele>275</ele>
        <time>2015-03-22T13:33:59Z</time>
      </trkpt>
      <trkpt lat="50.05935" lon="5.2019">
        <ele>275</ele>
        <time>2015-03-22T13:34:05Z</time>
      </trkpt>
      <trkpt lat="50.05932" lon="5.20196">
        <ele>276</ele>
        <time>2015-03-22T13:34:11Z</time>
      </trkpt>
      <trkpt lat="50.05929" lon="5.20201">
        <ele>276</ele>
        <time>2015-03-22T13:34:16Z</time>
      </trkpt>
      <trkpt lat="50.05926" lon="5.20208">
        <ele>276</ele>
        <time>2015-03-22T13:34:22Z</time>
      </trkpt>
      <trkpt lat="50.05923" lon="5.20214">
        <ele>276</ele>
        <time>2015-03-22T13:34:27Z</time>
      </trkpt>
      <trkpt lat="50.05919" lon="5.20223">
        <ele>277</ele>
        <time>2015-03-22T13:34:33Z</time>
      </trkpt>
      <trkpt lat="50.05915" lon="5.20229">
        <ele>277</ele>
        <time>2015-03-22T13:34:39Z</time>
      </trkpt>
      <trkpt lat="50.05912" lon="5.20232">
        <ele>277</ele>
        <time>2015-03-22T13:34:44Z</time>
      </trkpt>
      <trkpt lat="50.05907" lon="5.20237">
        <ele>278</ele>
        <time>2015-03-22T13:34:50Z</time>
      </trkpt>
      <trkpt lat="50.05904" lon="5.2024">
        <ele>278</ele>
        <time>2015-03-22T13:34:55Z</time>
      </trkpt>
      <trkpt lat="50.059" lon="5.20242">
        <ele>278</ele>
        <time>2015-03-22T13:35:00Z</time>
      </trkpt>
      <trkpt lat="50.05896" lon="5.20243">
        <ele>279</ele>
        <time>2015-03-22T13:35:05Z</time>
      </trkpt>
      <trkpt lat="50.0589" lon="5.20241">
        <ele>279</ele>
        <time>2015-03-22T13:35:11Z</time>
      </trkpt>
      <trkpt lat="50.05885" lon="5.20239">
        <ele>279</ele>
        <time>2015-03-22T13:35:16Z</time>
      </trkpt>
      <trkpt lat="50.05877" lon="5.2024">
        <ele>280</ele>
        <time>2015-03-22T13:35:22Z</time>
      </trkpt>
      <trkpt lat="50.05872" lon="5.2024">
        <ele>280</ele>
        <time>2015-03-22T13:35:27Z</time>
      </trkpt>
      <trkpt lat="50.05865" lon="5.20242">
        <ele>281</ele>
        <time>2015-03-22T13:35:32Z</time>
      </trkpt>
      <trkpt lat="50.05861" lon="5.20242">
        <ele>281</ele>
        <time>2015-03-22T13:35:37Z</time>
      </trkpt>
      <trkpt lat="50.05856" lon="5.20246">
        <ele>281</ele>
        <time>2015-03-22T13:35:43Z</time>
      </trkpt>
      <trkpt lat="50.05851" lon="5.20252">
        <ele>281</ele>
        <time>2015-03-22T13:35:48Z</time>
      </trkpt>
      <trkpt lat="50.05843" lon="5.20256">
        <ele>281</ele>
        <time>2015-03-22T13:35:54Z</time>
      </trkpt>
      <trkpt lat="50.05839" lon="5.2026">
        <ele>281</ele>
        <time>2015-03-22T13:35:59Z</time>
      </trkpt>
      <trkpt lat="50.05836" lon="5.20264">
        <ele>281</ele>
        <time>2015-03-22T13:36:05Z</time>
      </trkpt>
      <trkpt lat="50.05835" lon="5.20266">
        <ele>281</ele>
        <time>2015-03-22T13:36:11Z</time>
      </trkpt>
      <trkpt lat="50.05834" lon="5.20266">
        <ele>280</ele>
        <time>2015-03-22T13:36:17Z</time>
      </trkpt>
      <trkpt lat="50.05834" lon="5.20266">
        <ele>280</ele>
        <time>2015-03-22T13:36:23Z</time>
      </trkpt>
      <trkpt lat="50.05835" lon="5.20265">
        <ele>280</ele>
        <time>2015-03-22T13:36:29Z</time>
      </trkpt>
      <trkpt lat="50.05835" lon="5.20265">
        <ele>280</ele>
        <time>2015-03-22T13:36:34Z</time>
      </trkpt>
      <trkpt lat="50.05836" lon="5.20267">
        <ele>282</ele>
        <time>2015-03-22T13:36:40Z</time>
      </trkpt>
      <trkpt lat="50.05835" lon="5.20276">
        <ele>282</ele>
        <time>2015-03-22T13:36:46Z</time>
      </trkpt>
      <trkpt lat="50.05834" lon="5.20282">
        <ele>282</ele>
        <time>2015-03-22T13:36:52Z</time>
      </trkpt>
      <trkpt lat="50.05833" lon="5.20288">
        <ele>282</ele>
        <time>2015-03-22T13:36:57Z</time>
      </trkpt>
      <trkpt lat="50.05841" lon="5.20279">
        <ele>285</ele>
        <time>2015-03-22T13:37:03Z</time>
      </trkpt>
      <trkpt lat="50.0584" lon="5.20279">
        <ele>285</ele>
        <time>2015-03-22T13:37:09Z</time>
      </trkpt>
      <trkpt lat="50.0584" lon="5.20281">
        <ele>286</ele>
        <time>2015-03-22T13:37:14Z</time>
      </trkpt>
      <trkpt lat="50.05842" lon="5.20285">
        <ele>285</ele>
        <time>2015-03-22T13:37:19Z</time>
      </trkpt>
      <trkpt lat="50.05841" lon="5.2029">
        <ele>285</ele>
        <time>2015-03-22T13:37:25Z</time>
      </trkpt>
      <trkpt lat="50.05843" lon="5.20295">
        <ele>286</ele>
        <time>2015-03-22T13:37:30Z</time>
      </trkpt>
      <trkpt lat="50.05845" lon="5.20303">
        <ele>286</ele>
        <time>2015-03-22T13:37:36Z</time>
      </trkpt>
      <trkpt lat="50.05847" lon="5.2031">
        <ele>286</ele>
        <time>2015-03-22T13:37:42Z</time>
      </trkpt>
      <trkpt lat="50.05848" lon="5.20313">
        <ele>286</ele>
        <time>2015-03-22T13:37:47Z</time>
      </trkpt>
      <trkpt lat="50.0585" lon="5.20319">
        <ele>286</ele>
        <time>2015-03-22T13:37:53Z</time>
      </trkpt>
      <trkpt lat="50.05853" lon="5.20326">
        <ele>285</ele>
        <time>2015-03-22T13:37:59Z</time>
      </trkpt>
      <trkpt lat="50.05856" lon="5.20331">
        <ele>286</ele>
        <time>2015-03-22T13:38:04Z</time>
      </trkpt>
      <trkpt lat="50.05859" lon="5.20336">
        <ele>286</ele>
        <time>2015-03-22T13:38:10Z</time>
      </trkpt>
      <trkpt lat="50.0586" lon="5.20338">
        <ele>286</ele>
        <time>2015-03-22T13:38:15Z</time>
      </trkpt>
      <trkpt lat="50.05862" lon="5.20341">
        <ele>286</ele>
        <time>2015-03-22T13:38:20Z</time>
      </trkpt>
      <trkpt lat="50.0586" lon="5.20344">
        <ele>285</ele>
        <time>2015-03-22T13:38:26Z</time>
      </trkpt>
      <trkpt lat="50.05863" lon="5.20351">
        <ele>285</ele>
        <time>2015-03-22T13:38:32Z</time>
      </trkpt>
      <trkpt lat="50.05868" lon="5.20357">
        <ele>285</ele>
        <time>2015-03-22T13:38:37Z</time>
      </trkpt>
      <trkpt lat="50.05875" lon="5.20364">
        <ele>286</ele>
        <time>2015-03-22T13:38:43Z</time>
      </trkpt>
      <trkpt lat="50.05881" lon="5.20373">
        <ele>286</ele>
        <time>2015-03-22T13:38:48Z</time>
      </trkpt>
      <trkpt lat="50.05888" lon="5.20385">
        <ele>286</ele>
        <time>2015-03-22T13:38:54Z</time>
      </trkpt>
      <trkpt lat="50.05893" lon="5.20394">
        <ele>285</ele>
        <time>2015-03-22T13:38:59Z</time>
      </trkpt>
      <trkpt lat="50.05898" lon="5.20404">
        <ele>286</ele>
        <time>2015-03-22T13:39:04Z</time>
      </trkpt>
      <trkpt lat="50.05902" lon="5.20412">
        <ele>285</ele>
        <time>2015-03-22T13:39:09Z</time>
      </trkpt>
      <trkpt lat="50.05907" lon="5.20422">
        <ele>286</ele>
        <time>2015-03-22T13:39:15Z</time>
      </trkpt>
      <trkpt lat="50.05911" lon="5.20429">
        <ele>285</ele>
        <time>2015-03-22T13:39:20Z</time>
      </trkpt>
      <trkpt lat="50.05916" lon="5.20436">
        <ele>284</ele>
        <time>2015-03-22T13:39:26Z</time>
      </trkpt>
      <trkpt lat="50.05921" lon="5.2044">
        <ele>284</ele>
        <time>2015-03-22T13:39:32Z</time>
      </trkpt>
      <trkpt lat="50.05925" lon="5.20442">
        <ele>284</ele>
        <time>2015-03-22T13:39:37Z</time>
      </trkpt>
      <trkpt lat="50.05929" lon="5.20443">
        <ele>285</ele>
        <time>2015-03-22T13:39:43Z</time>
      </trkpt>
      <trkpt lat="50.05934" lon="5.20442">
        <ele>285</ele>
        <time>2015-03-22T13:39:48Z</time>
      </trkpt>
      <trkpt lat="50.05941" lon="5.20439">
        <ele>285</ele>
        <time>2015-03-22T13:39:54Z</time>
      </trkpt>
      <trkpt lat="50.05946" lon="5.20434">
        <ele>284</ele>
        <time>2015-03-22T13:39:59Z</time>
      </trkpt>
      <trkpt lat="50.05952" lon="5.20428">
        <ele>284</ele>
        <time>2015-03-22T13:40:05Z</time>
      </trkpt>
      <trkpt lat="50.05953" lon="5.20425">
        <ele>283</ele>
        <time>2015-03-22T13:40:11Z</time>
      </trkpt>
      <trkpt lat="50.05955" lon="5.2042">
        <ele>283</ele>
        <time>2015-03-22T13:40:17Z</time>
      </trkpt>
      <trkpt lat="50.05955" lon="5.20413">
        <ele>283</ele>
        <time>2015-03-22T13:40:22Z</time>
      </trkpt>
      <trkpt lat="50.05957" lon="5.20405">
        <ele>283</ele>
        <time>2015-03-22T13:40:28Z</time>
      </trkpt>
      <trkpt lat="50.05959" lon="5.20397">
        <ele>282</ele>
        <time>2015-03-22T13:40:34Z</time>
      </trkpt>
      <trkpt lat="50.05961" lon="5.20389">
        <ele>282</ele>
        <time>2015-03-22T13:40:39Z</time>
      </trkpt>
      <trkpt lat="50.05963" lon="5.20381">
        <ele>281</ele>
        <time>2015-03-22T13:40:44Z</time>
      </trkpt>
      <trkpt lat="50.05966" lon="5.2037">
        <ele>280</ele>
        <time>2015-03-22T13:40:50Z</time>
      </trkpt>
      <trkpt lat="50.05969" lon="5.2036">
        <ele>280</ele>
        <time>2015-03-22T13:40:56Z</time>
      </trkpt>
      <trkpt lat="50.0597" lon="5.20352">
        <ele>280</ele>
        <time>2015-03-22T13:41:01Z</time>
      </trkpt>
      <trkpt lat="50.05974" lon="5.20344">
        <ele>280</ele>
        <time>2015-03-22T13:41:06Z</time>
      </trkpt>
      <trkpt lat="50.05979" lon="5.20336">
        <ele>279</ele>
        <time>2015-03-22T13:41:12Z</time>
      </trkpt>
      <trkpt lat="50.05984" lon="5.20328">
        <ele>279</ele>
        <time>2015-03-22T13:41:18Z</time>
      </trkpt>
      <trkpt lat="50.05988" lon="5.20322">
        <ele>278</ele>
        <time>2015-03-22T13:41:23Z</time>
      </trkpt>
      <trkpt lat="50.05994" lon="5.20315">
        <ele>277</ele>
        <time>2015-03-22T13:41:29Z</time>
      </trkpt>
      <trkpt lat="50.05999" lon="5.2031">
        <ele>277</ele>
        <time>2015-03-22T13:41:34Z</time>
      </trkpt>
      <trkpt lat="50.06005" lon="5.20301">
        <ele>277</ele>
        <time>2015-03-22T13:41:40Z</time>
      </trkpt>
      <trkpt lat="50.06011" lon="5.20295">
        <ele>276</ele>
        <time>2015-03-22T13:41:45Z</time>
      </trkpt>
      <trkpt lat="50.06017" lon="5.20289">
        <ele>276</ele>
        <time>2015-03-22T13:41:50Z</time>
      </trkpt>
      <trkpt lat="50.06025" lon="5.20284">
        <ele>276</ele>
        <time>2015-03-22T13:41:56Z</time>
      </trkpt>
      <trkpt lat="50.06033" lon="5.20281">
        <ele>276</ele>
        <time>2015-03-22T13:42:01Z</time>
      </trkpt>
      <trkpt lat="50.06039" lon="5.2028">
        <ele>276</ele>
        <time>2015-03-22T13:42:07Z</time>
      </trkpt>
      <trkpt lat="50.06044" lon="5.2028">
        <ele>276</ele>
        <time>2015-03-22T13:42:12Z</time>
      </trkpt>
      <trkpt lat="50.06052" lon="5.2028">
        <ele>276</ele>
        <time>2015-03-22T13:42:18Z</time>
      </trkpt>
      <trkpt lat="50.06058" lon="5.20282">
        <ele>276</ele>
        <time>2015-03-22T13:42:23Z</time>
      </trkpt>
      <trkpt lat="50.06064" lon="5.20282">
        <ele>275</ele>
        <time>2015-03-22T13:42:28Z</time>
      </trkpt>
      <trkpt lat="50.0607" lon="5.20283">
        <ele>276</ele>
        <time>2015-03-22T13:42:33Z</time>
      </trkpt>
      <trkpt lat="50.06078" lon="5.20285">
        <ele>275</ele>
        <time>2015-03-22T13:42:39Z</time>
      </trkpt>
      <trkpt lat="50.06086" lon="5.20288">
        <ele>275</ele>
        <time>2015-03-22T13:42:45Z</time>
      </trkpt>
      <trkpt lat="50.06092" lon="5.2029">
        <ele>275</ele>
        <time>2015-03-22T13:42:50Z</time>
      </trkpt>
      <trkpt lat="50.06098" lon="5.20292">
        <ele>275</ele>
        <time>2015-03-22T13:42:55Z</time>
      </trkpt>
      <trkpt lat="50.06106" lon="5.20294">
        <ele>276</ele>
        <time>2015-03-22T13:43:01Z</time>
      </trkpt>
      <trkpt lat="50.06113" lon="5.20295">
        <ele>276</ele>
        <time>2015-03-22T13:43:06Z</time>
      </trkpt>
      <trkpt lat="50.0612" lon="5.20296">
        <ele>276</ele>
        <time>2015-03-22T13:43:12Z</time>
      </trkpt>
      <trkpt lat="50.06127" lon="5.20296">
        <ele>276</ele>
        <time>2015-03-22T13:43:18Z</time>
      </trkpt>
      <trkpt lat="50.06135" lon="5.20296">
        <ele>276</ele>
        <time>2015-03-22T13:43:24Z</time>
      </trkpt>
      <trkpt lat="50.06141" lon="5.20296">
        <ele>276</ele>
        <time>2015-03-22T13:43:30Z</time>
      </trkpt>
      <trkpt lat="50.06149" lon="5.20294">
        <ele>277</ele>
        <time>2015-03-22T13:43:36Z</time>
      </trkpt>
      <trkpt lat="50.06156" lon="5.20292">
        <ele>277</ele>
        <time>2015-03-22T13:43:42Z</time>
      </trkpt>
      <trkpt lat="50.06161" lon="5.2029">
        <ele>277</ele>
        <time>2015-03-22T13:43:47Z</time>
      </trkpt>
      <trkpt lat="50.06166" lon="5.20287">
        <ele>277</ele>
        <time>2015-03-22T13:43:53Z</time>
      </trkpt>
      <trkpt lat="50.06174" lon="5.20283">
        <ele>278</ele>
        <time>2015-03-22T13:43:59Z</time>
      </trkpt>
      <trkpt lat="50.06179" lon="5.2028">
        <ele>278</ele>
        <time>2015-03-22T13:44:04Z</time>
      </trkpt>
      <trkpt lat="50.06184" lon="5.20275">
        <ele>279</ele>
        <time>2015-03-22T13:44:10Z</time>
      </trkpt>
      <trkpt lat="50.0619" lon="5.20271">
        <ele>279</ele>
        <time>2015-03-22T13:44:16Z</time>
      </trkpt>
      <trkpt lat="50.06195" lon="5.20266">
        <ele>280</ele>
        <time>2015-03-22T13:44:22Z</time>
      </trkpt>
      <trkpt lat="50.062" lon="5.20262">
        <ele>280</ele>
        <time>2015-03-22T13:44:28Z</time>
      </trkpt>
      <trkpt lat="50.06205" lon="5.20258">
        <ele>280</ele>
        <time>2015-03-22T13:44:33Z</time>
      </trkpt>
      <trkpt lat="50.06209" lon="5.20253">
        <ele>280</ele>
        <time>2015-03-22T13:44:39Z</time>
      </trkpt>
      <trkpt lat="50.06213" lon="5.20249">
        <ele>280</ele>
        <time>2015-03-22T13:44:44Z</time>
      </trkpt>
      <trkpt lat="50.06217" lon="5.20245">
        <ele>281</ele>
        <time>2015-03-22T13:44:50Z</time>
      </trkpt>
      <trkpt lat="50.0622" lon="5.20241">
        <ele>281</ele>
        <time>2015-03-22T13:44:55Z</time>
      </trkpt>
      <trkpt lat="50.06226" lon="5.20238">
        <ele>281</ele>
        <time>2015-03-22T13:45:00Z</time>
      </trkpt>
      <trkpt lat="50.0623" lon="5.20232">
        <ele>282</ele>
        <time>2015-03-22T13:45:06Z</time>
      </trkpt>
      <trkpt lat="50.06236" lon="5.20228">
        <ele>282</ele>
        <time>2015-03-22T13:45:11Z</time>
      </trkpt>
      <trkpt lat="50.06241" lon="5.20224">
        <ele>282</ele>
        <time>2015-03-22T13:45:16Z</time>
      </trkpt>
      <trkpt lat="50.06248" lon="5.20219">
        <ele>282</ele>
        <time>2015-03-22T13:45:22Z</time>
      </trkpt>
      <trkpt lat="50.06253" lon="5.20214">
        <ele>283</ele>
        <time>2015-03-22T13:45:27Z</time>
      </trkpt>
      <trkpt lat="50.0626" lon="5.20209">
        <ele>283</ele>
        <time>2015-03-22T13:45:33Z</time>
      </trkpt>
      <trkpt lat="50.06265" lon="5.20208">
        <ele>283</ele>
        <time>2015-03-22T13:45:38Z</time>
      </trkpt>
      <trkpt lat="50.06269" lon="5.20209">
        <ele>283</ele>
        <time>2015-03-22T13:45:44Z</time>
      </trkpt>
      <trkpt lat="50.06272" lon="5.20208">
        <ele>283</ele>
        <time>2015-03-22T13:45:50Z</time>
      </trkpt>
      <trkpt lat="50.06274" lon="5.20207">
        <ele>283</ele>
        <time>2015-03-22T13:45:55Z</time>
      </trkpt>
      <trkpt lat="50.06277" lon="5.20203">
        <ele>283</ele>
        <time>2015-03-22T13:46:00Z</time>
      </trkpt>
      <trkpt lat="50.06278" lon="5.20199">
        <ele>283</ele>
        <time>2015-03-22T13:46:05Z</time>
      </trkpt>
      <trkpt lat="50.06282" lon="5.20197">
        <ele>284</ele>
        <time>2015-03-22T13:46:11Z</time>
      </trkpt>
      <trkpt lat="50.06285" lon="5.20194">
        <ele>284</ele>
        <time>2015-03-22T13:46:17Z</time>
      </trkpt>
      <trkpt lat="50.06289" lon="5.20191">
        <ele>284</ele>
        <time>2015-03-22T13:46:23Z</time>
      </trkpt>
      <trkpt lat="50.06294" lon="5.20187">
        <ele>285</ele>
        <time>2015-03-22T13:46:29Z</time>
      </trkpt>
      <trkpt lat="50.06299" lon="5.20185">
        <ele>285</ele>
        <time>2015-03-22T13:46:34Z</time>
      </trkpt>
      <trkpt lat="50.06305" lon="5.2018">
        <ele>285</ele>
        <time>2015-03-22T13:46:40Z</time>
      </trkpt>
      <trkpt lat="50.06312" lon="5.20177">
        <ele>285</ele>
        <time>2015-03-22T13:46:46Z</time>
      </trkpt>
      <trkpt lat="50.06318" lon="5.20174">
        <ele>286</ele>
        <time>2015-03-22T13:46:51Z</time>
      </trkpt>
      <trkpt lat="50.06324" lon="5.20172">
        <ele>286</ele>
        <time>2015-03-22T13:46:57Z</time>
      </trkpt>
      <trkpt lat="50.06329" lon="5.2017">
        <ele>286</ele>
        <time>2015-03-22T13:47:03Z</time>
      </trkpt>
      <trkpt lat="50.06337" lon="5.2017">
        <ele>287</ele>
        <time>2015-03-22T13:47:09Z</time>
      </trkpt>
      <trkpt lat="50.06342" lon="5.20169">
        <ele>287</ele>
        <time>2015-03-22T13:47:15Z</time>
      </trkpt>
      <trkpt lat="50.06347" lon="5.20169">
        <ele>288</ele>
        <time>2015-03-22T13:47:20Z</time>
      </trkpt>
      <trkpt lat="50.06354" lon="5.20168">
        <ele>288</ele>
        <time>2015-03-22T13:47:26Z</time>
      </trkpt>
      <trkpt lat="50.06359" lon="5.20167">
        <ele>288</ele>
        <time>2015-03-22T13:47:31Z</time>
      </trkpt>
      <trkpt lat="50.06363" lon="5.20168">
        <ele>288</ele>
        <time>2015-03-22T13:47:37Z</time>
      </trkpt>
      <trkpt lat="50.06366" lon="5.2017">
        <ele>288</ele>
        <time>2015-03-22T13:47:43Z</time>
      </trkpt>
      <trkpt lat="50.06369" lon="5.20172">
        <ele>289</ele>
        <time>2015-03-22T13:47:48Z</time>
      </trkpt>
      <trkpt lat="50.06373" lon="5.20174">
        <ele>288</ele>
        <time>2015-03-22T13:47:53Z</time>
      </trkpt>
      <trkpt lat="50.06377" lon="5.20173">
        <ele>288</ele>
        <time>2015-03-22T13:47:58Z</time>
      </trkpt>
      <trkpt lat="50.06381" lon="5.2017">
        <ele>288</ele>
        <time>2015-03-22T13:48:04Z</time>
      </trkpt>
      <trkpt lat="50.06383" lon="5.20169">
        <ele>288</ele>
        <time>2015-03-22T13:48:09Z</time>
      </trkpt>
      <trkpt lat="50.06387" lon="5.20167">
        <ele>289</ele>
        <time>2015-03-22T13:48:15Z</time>
      </trkpt>
      <trkpt lat="50.0639" lon="5.20167">
        <ele>289</ele>
        <time>2015-03-22T13:48:20Z</time>
      </trkpt>
      <trkpt lat="50.06393" lon="5.20167">
        <ele>289</ele>
        <time>2015-03-22T13:48:26Z</time>
      </trkpt>
      <trkpt lat="50.06396" lon="5.20167">
        <ele>289</ele>
        <time>2015-03-22T13:48:32Z</time>
      </trkpt>
      <trkpt lat="50.06397" lon="5.20163">
        <ele>289</ele>
        <time>2015-03-22T13:48:37Z</time>
      </trkpt>
      <trkpt lat="50.064" lon="5.20159">
        <ele>289</ele>
        <time>2015-03-22T13:48:42Z</time>
      </trkpt>
      <trkpt lat="50.06403" lon="5.20154">
        <ele>290</ele>
        <time>2015-03-22T13:48:47Z</time>
      </trkpt>
      <trkpt lat="50.06405" lon="5.20145">
        <ele>290</ele>
        <time>2015-03-22T13:48:53Z</time>
      </trkpt>
      <trkpt lat="50.06406" lon="5.20136">
        <ele>290</ele>
        <time>2015-03-22T13:48:58Z</time>
      </trkpt>
      <trkpt lat="50.06408" lon="5.20125">
        <ele>291</ele>
        <time>2015-03-22T13:49:04Z</time>
      </trkpt>
      <trkpt lat="50.06409" lon="5.20113">
        <ele>291</ele>
        <time>2015-03-22T13:49:10Z</time>
      </trkpt>
      <trkpt lat="50.06411" lon="5.20101">
        <ele>292</ele>
        <time>2015-03-22T13:49:16Z</time>
      </trkpt>
      <trkpt lat="50.06414" lon="5.20091">
        <ele>292</ele>
        <time>2015-03-22T13:49:21Z</time>
      </trkpt>
      <trkpt lat="50.06416" lon="5.2008">
        <ele>292</ele>
        <time>2015-03-22T13:49:27Z</time>
      </trkpt>
      <trkpt lat="50.06418" lon="5.2007">
        <ele>293</ele>
        <time>2015-03-22T13:49:32Z</time>
      </trkpt>
      <trkpt lat="50.06421" lon="5.20059">
        <ele>293</ele>
        <time>2015-03-22T13:49:38Z</time>
      </trkpt>
      <trkpt lat="50.06425" lon="5.20049">
        <ele>294</ele>
        <time>2015-03-22T13:49:44Z</time>
      </trkpt>
      <trkpt lat="50.06428" lon="5.20042">
        <ele>294</ele>
        <time>2015-03-22T13:49:49Z</time>
      </trkpt>
      <trkpt lat="50.06433" lon="5.20034">
        <ele>295</ele>
        <time>2015-03-22T13:49:55Z</time>
      </trkpt>
      <trkpt lat="50.06438" lon="5.20027">
        <ele>295</ele>
        <time>2015-03-22T13:50:00Z</time>
      </trkpt>
      <trkpt lat="50.06443" lon="5.20021">
        <ele>295</ele>
        <time>2015-03-22T13:50:05Z</time>
      </trkpt>
      <trkpt lat="50.06447" lon="5.20014">
        <ele>295</ele>
        <time>2015-03-22T13:50:11Z</time>
      </trkpt>
      <trkpt lat="50.06453" lon="5.20008">
        <ele>296</ele>
        <time>2015-03-22T13:50:17Z</time>
      </trkpt>
      <trkpt lat="50.06459" lon="5.20002">
        <ele>296</ele>
        <time>2015-03-22T13:50:22Z</time>
      </trkpt>
      <trkpt lat="50.06463" lon="5.19997">
        <ele>296</ele>
        <time>2015-03-22T13:50:27Z</time>
      </trkpt>
      <trkpt lat="50.0647" lon="5.19992">
        <ele>297</ele>
        <time>2015-03-22T13:50:33Z</time>
      </trkpt>
      <trkpt lat="50.06475" lon="5.19988">
        <ele>297</ele>
        <time>2015-03-22T13:50:38Z</time>
      </trkpt>
      <trkpt lat="50.06478" lon="5.19984">
        <ele>298</ele>
        <time>2015-03-22T13:50:44Z</time>
      </trkpt>
      <trkpt lat="50.06483" lon="5.19981">
        <ele>298</ele>
        <time>2015-03-22T13:50:49Z</time>
      </trkpt>
      <trkpt lat="50.06488" lon="5.19976">
        <ele>298</ele>
        <time>2015-03-22T13:50:55Z</time>
      </trkpt>
      <trkpt lat="50.06492" lon="5.19972">
        <ele>298</ele>
        <time>2015-03-22T13:51:01Z</time>
      </trkpt>
      <trkpt lat="50.06497" lon="5.19969">
        <ele>299</ele>
        <time>2015-03-22T13:51:06Z</time>
      </trkpt>
      <trkpt lat="50.06503" lon="5.19964">
        <ele>299</ele>
        <time>2015-03-22T13:51:12Z</time>
      </trkpt>
      <trkpt lat="50.06509" lon="5.1996">
        <ele>300</ele>
        <time>2015-03-22T13:51:18Z</time>
      </trkpt>
      <trkpt lat="50.06512" lon="5.19956">
        <ele>300</ele>
        <time>2015-03-22T13:51:23Z</time>
      </trkpt>
      <trkpt lat="50.06518" lon="5.1995">
        <ele>300</ele>
        <time>2015-03-22T13:51:29Z</time>
      </trkpt>
      <trkpt lat="50.06522" lon="5.19947">
        <ele>301</ele>
        <time>2015-03-22T13:51:34Z</time>
      </trkpt>
      <trkpt lat="50.06526" lon="5.19941">
        <ele>301</ele>
        <time>2015-03-22T13:51:39Z</time>
      </trkpt>
      <trkpt lat="50.0653" lon="5.19935">
        <ele>301</ele>
        <time>2015-03-22T13:51:44Z</time>
      </trkpt>
      <trkpt lat="50.06532" lon="5.1993">
        <ele>301</ele>
        <time>2015-03-22T13:51:49Z</time>
      </trkpt>
      <trkpt lat="50.06533" lon="5.19923">
        <ele>301</ele>
        <time>2015-03-22T13:51:55Z</time>
      </trkpt>
      <trkpt lat="50.06533" lon="5.1992">
        <ele>301</ele>
        <time>2015-03-22T13:52:01Z</time>
      </trkpt>
      <trkpt lat="50.06534" lon="5.19916">
        <ele>302</ele>
        <time>2015-03-22T13:52:06Z</time>
      </trkpt>
      <trkpt lat="50.06537" lon="5.19911">
        <ele>302</ele>
        <time>2015-03-22T13:52:12Z</time>
      </trkpt>
      <trkpt lat="50.0654" lon="5.19908">
        <ele>302</ele>
        <time>2015-03-22T13:52:18Z</time>
      </trkpt>
      <trkpt lat="50.06543" lon="5.19904">
        <ele>302</ele>
        <time>2015-03-22T13:52:23Z</time>
      </trkpt>
      <trkpt lat="50.06544" lon="5.19899">
        <ele>303</ele>
        <time>2015-03-22T13:52:28Z</time>
      </trkpt>
      <trkpt lat="50.06548" lon="5.19892">
        <ele>303</ele>
        <time>2015-03-22T13:52:34Z</time>
      </trkpt>
      <trkpt lat="50.06551" lon="5.19887">
        <ele>304</ele>
        <time>2015-03-22T13:52:39Z</time>
      </trkpt>
      <trkpt lat="50.06554" lon="5.1988">
        <ele>304</ele>
        <time>2015-03-22T13:52:45Z</time>
      </trkpt>
      <trkpt lat="50.06557" lon="5.19874">
        <ele>304</ele>
        <time>2015-03-22T13:52:50Z</time>
      </trkpt>
      <trkpt lat="50.06562" lon="5.19868">
        <ele>305</ele>
        <time>2015-03-22T13:52:56Z</time>
      </trkpt>
      <trkpt lat="50.06568" lon="5.19862">
        <ele>305</ele>
        <time>2015-03-22T13:53:02Z</time>
      </trkpt>
      <trkpt lat="50.06575" lon="5.19856">
        <ele>305</ele>
        <time>2015-03-22T13:53:07Z</time>
      </trkpt>
      <trkpt lat="50.06581" lon="5.19851">
        <ele>305</ele>
        <time>2015-03-22T13:53:12Z</time>
      </trkpt>
      <trkpt lat="50.06588" lon="5.19846">
        <ele>305</ele>
        <time>2015-03-22T13:53:17Z</time>
      </trkpt>
      <trkpt lat="50.06596" lon="5.1984">
        <ele>306</ele>
        <time>2015-03-22T13:53:23Z</time>
      </trkpt>
      <trkpt lat="50.06602" lon="5.19836">
        <ele>306</ele>
        <time>2015-03-22T13:53:28Z</time>
      </trkpt>
      <trkpt lat="50.06608" lon="5.19831">
        <ele>307</ele>
        <time>2015-03-22T13:53:33Z</time>
      </trkpt>
      <trkpt lat="50.06615" lon="5.19826">
        <ele>307</ele>
        <time>2015-03-22T13:53:39Z</time>
      </trkpt>
      <trkpt lat="50.0662" lon="5.19822">
        <ele>307</ele>
        <time>2015-03-22T13:53:45Z</time>
      </trkpt>
      <trkpt lat="50.06626" lon="5.19816">
        <ele>308</ele>
        <time>2015-03-22T13:53:51Z</time>
      </trkpt>
      <trkpt lat="50.0663" lon="5.1981">
        <ele>308</ele>
        <time>2015-03-22T13:53:57Z</time>
      </trkpt>
      <trkpt lat="50.06636" lon="5.19805">
        <ele>309</ele>
        <time>2015-03-22T13:54:03Z</time>
      </trkpt>
      <trkpt lat="50.06641" lon="5.19799">
        <ele>309</ele>
        <time>2015-03-22T13:54:09Z</time>
      </trkpt>
      <trkpt lat="50.06645" lon="5.19794">
        <ele>309</ele>
        <time>2015-03-22T13:54:15Z</time>
      </trkpt>
      <trkpt lat="50.06647" lon="5.1979">
        <ele>310</ele>
        <time>2015-03-22T13:54:20Z</time>
      </trkpt>
      <trkpt lat="50.06649" lon="5.19784">
        <ele>310</ele>
        <time>2015-03-22T13:54:26Z</time>
      </trkpt>
      <trkpt lat="50.06655" lon="5.19779">
        <ele>310</ele>
        <time>2015-03-22T13:54:32Z</time>
      </trkpt>
      <trkpt lat="50.06659" lon="5.19776">
        <ele>310</ele>
        <time>2015-03-22T13:54:37Z</time>
      </trkpt>
      <trkpt lat="50.06665" lon="5.19772">
        <ele>310</ele>
        <time>2015-03-22T13:54:43Z</time>
      </trkpt>
      <trkpt lat="50.0667" lon="5.19769">
        <ele>310</ele>
        <time>2015-03-22T13:54:48Z</time>
      </trkpt>
      <trkpt lat="50.06676" lon="5.19765">
        <ele>310</ele>
        <time>2015-03-22T13:54:53Z</time>
      </trkpt>
      <trkpt lat="50.06682" lon="5.19762">
        <ele>310</ele>
        <time>2015-03-22T13:54:58Z</time>
      </trkpt>
      <trkpt lat="50.06689" lon="5.19758">
        <ele>310</ele>
        <time>2015-03-22T13:55:04Z</time>
      </trkpt>
      <trkpt lat="50.06696" lon="5.19754">
        <ele>310</ele>
        <time>2015-03-22T13:55:10Z</time>
      </trkpt>
      <trkpt lat="50.06701" lon="5.19752">
        <ele>311</ele>
        <time>2015-03-22T13:55:15Z</time>
      </trkpt>
      <trkpt lat="50.06707" lon="5.1975">
        <ele>311</ele>
        <time>2015-03-22T13:55:20Z</time>
      </trkpt>
      <trkpt lat="50.06715" lon="5.1975">
        <ele>310</ele>
        <time>2015-03-22T13:55:26Z</time>
      </trkpt>
      <trkpt lat="50.0672" lon="5.19749">
        <ele>310</ele>
        <time>2015-03-22T13:55:31Z</time>
      </trkpt>
      <trkpt lat="50.06726" lon="5.19749">
        <ele>310</ele>
        <time>2015-03-22T13:55:36Z</time>
      </trkpt>
      <trkpt lat="50.06733" lon="5.19749">
        <ele>310</ele>
        <time>2015-03-22T13:55:42Z</time>
      </trkpt>
      <trkpt lat="50.06738" lon="5.19748">
        <ele>309</ele>
        <time>2015-03-22T13:55:47Z</time>
      </trkpt>
      <trkpt lat="50.06743" lon="5.19747">
        <ele>309</ele>
        <time>2015-03-22T13:55:52Z</time>
      </trkpt>
      <trkpt lat="50.06747" lon="5.19746">
        <ele>309</ele>
        <time>2015-03-22T13:55:58Z</time>
      </trkpt>
      <trkpt lat="50.0675" lon="5.19745">
        <ele>310</ele>
        <time>2015-03-22T13:56:04Z</time>
      </trkpt>
      <trkpt lat="50.06756" lon="5.19743">
        <ele>309</ele>
        <time>2015-03-22T13:56:10Z</time>
      </trkpt>
      <trkpt lat="50.0676" lon="5.19743">
        <ele>308</ele>
        <time>2015-03-22T13:56:15Z</time>
      </trkpt>
      <trkpt lat="50.06767" lon="5.19742">
        <ele>308</ele>
        <time>2015-03-22T13:56:21Z</time>
      </trkpt>
      <trkpt lat="50.06773" lon="5.1974">
        <ele>308</ele>
        <time>2015-03-22T13:56:26Z</time>
      </trkpt>
      <trkpt lat="50.0678" lon="5.19738">
        <ele>308</ele>
        <time>2015-03-22T13:56:32Z</time>
      </trkpt>
      <trkpt lat="50.06786" lon="5.19736">
        <ele>307</ele>
        <time>2015-03-22T13:56:38Z</time>
      </trkpt>
      <trkpt lat="50.0679" lon="5.19736">
        <ele>307</ele>
        <time>2015-03-22T13:56:43Z</time>
      </trkpt>
      <trkpt lat="50.06795" lon="5.19734">
        <ele>307</ele>
        <time>2015-03-22T13:56:49Z</time>
      </trkpt>
      <trkpt lat="50.06802" lon="5.19733">
        <ele>307</ele>
        <time>2015-03-22T13:56:54Z</time>
      </trkpt>
      <trkpt lat="50.06808" lon="5.19732">
        <ele>306</ele>
        <time>2015-03-22T13:56:59Z</time>
      </trkpt>
      <trkpt lat="50.06814" lon="5.19732">
        <ele>306</ele>
        <time>2015-03-22T13:57:04Z</time>
      </trkpt>
      <trkpt lat="50.06819" lon="5.19731">
        <ele>305</ele>
        <time>2015-03-22T13:57:09Z</time>
      </trkpt>
      <trkpt lat="50.06825" lon="5.1973">
        <ele>305</ele>
        <time>2015-03-22T13:57:14Z</time>
      </trkpt>
      <trkpt lat="50.06833" lon="5.19729">
        <ele>305</ele>
        <time>2015-03-22T13:57:20Z</time>
      </trkpt>
      <trkpt lat="50.0684" lon="5.19729">
        <ele>304</ele>
        <time>2015-03-22T13:57:26Z</time>
      </trkpt>
      <trkpt lat="50.06847" lon="5.19727">
        <ele>304</ele>
        <time>2015-03-22T13:57:32Z</time>
      </trkpt>
      <trkpt lat="50.06853" lon="5.19721">
        <ele>303</ele>
        <time>2015-03-22T13:57:37Z</time>
      </trkpt>
      <trkpt lat="50.06857" lon="5.19714">
        <ele>303</ele>
        <time>2015-03-22T13:57:42Z</time>
      </trkpt>
      <trkpt lat="50.06859" lon="5.1971">
        <ele>303</ele>
        <time>2015-03-22T13:57:47Z</time>
      </trkpt>
      <trkpt lat="50.0686" lon="5.19709">
        <ele>302</ele>
        <time>2015-03-22T13:57:53Z</time>
      </trkpt>
      <trkpt lat="50.0686" lon="5.19708">
        <ele>301</ele>
        <time>2015-03-22T13:57:59Z</time>
      </trkpt>
      <trkpt lat="50.06859" lon="5.19707">
        <ele>302</ele>
        <time>2015-03-22T13:58:05Z</time>
      </trkpt>
      <trkpt lat="50.06859" lon="5.19707">
        <ele>302</ele>
        <time>2015-03-22T13:58:10Z</time>
      </trkpt>
      <trkpt lat="50.06858" lon="5.19707">
        <ele>302</ele>
        <time>2015-03-22T13:58:16Z</time>
      </trkpt>
      <trkpt lat="50.06858" lon="5.19706">
        <ele>302</ele>
        <time>2015-03-22T13:58:22Z</time>
      </trkpt>
      <trkpt lat="50.06858" lon="5.19706">
        <ele>302</ele>
        <time>2015-03-22T13:58:28Z</time>
      </trkpt>
      <trkpt lat="50.06857" lon="5.19706">
        <ele>302</ele>
        <time>2015-03-22T13:58:34Z</time>
      </trkpt>
      <trkpt lat="50.06858" lon="5.19706">
        <ele>301</ele>
        <time>2015-03-22T13:58:42Z</time>
      </trkpt>
      <trkpt lat="50.06858" lon="5.19707">
        <ele>302</ele>
        <time>2015-03-22T13:58:48Z</time>
      </trkpt>
      <trkpt lat="50.06858" lon="5.19707">
        <ele>302</ele>
        <time>2015-03-22T13:58:54Z</time>
      </trkpt>
      <trkpt lat="50.06858" lon="5.19708">
        <ele>302</ele>
        <time>2015-03-22T13:59:00Z</time>
      </trkpt>
      <trkpt lat="50.06858" lon="5.19708">
        <ele>302</ele>
        <time>2015-03-22T13:59:07Z</time>
      </trkpt>
      <trkpt lat="50.06859" lon="5.19708">
        <ele>302</ele>
        <time>2015-03-22T13:59:13Z</time>
      </trkpt>
      <trkpt lat="50.06859" lon="5.19709">
        <ele>302</ele>
        <time>2015-03-22T13:59:20Z</time>
      </trkpt>
      <trkpt lat="50.0686" lon="5.19709">
        <ele>301</ele>
        <time>2015-03-22T13:59:27Z</time>
      </trkpt>
      <trkpt lat="50.0686" lon="5.19709">
        <ele>302</ele>
        <time>2015-03-22T13:59:32Z</time>
      </trkpt>
      <trkpt lat="50.0686" lon="5.19709">
        <ele>302</ele>
        <time>2015-03-22T13:59:39Z</time>
      </trkpt>
      <trkpt lat="50.0686" lon="5.19709">
        <ele>302</ele>
        <time>2015-03-22T13:59:44Z</time>
      </trkpt>
      <trkpt lat="50.0686" lon="5.19709">
        <ele>301</ele>
        <time>2015-03-22T13:59:50Z</time>
      </trkpt>
      <trkpt lat="50.0686" lon="5.19708">
        <ele>301</ele>
        <time>2015-03-22T13:59:56Z</time>
      </trkpt>
      <trkpt lat="50.0686" lon="5.19708">
        <ele>302</ele>
        <time>2015-03-22T14:00:01Z</time>
      </trkpt>
      <trkpt lat="50.06858" lon="5.19712">
        <ele>304</ele>
        <time>2015-03-22T14:00:07Z</time>
      </trkpt>
      <trkpt lat="50.0686" lon="5.19718">
        <ele>303</ele>
        <time>2015-03-22T14:00:13Z</time>
      </trkpt>
      <trkpt lat="50.06866" lon="5.19721">
        <ele>302</ele>
        <time>2015-03-22T14:00:19Z</time>
      </trkpt>
      <trkpt lat="50.06872" lon="5.19722">
        <ele>302</ele>
        <time>2015-03-22T14:00:25Z</time>
      </trkpt>
      <trkpt lat="50.06877" lon="5.19721">
        <ele>301</ele>
        <time>2015-03-22T14:00:30Z</time>
      </trkpt>
      <trkpt lat="50.06883" lon="5.19721">
        <ele>301</ele>
        <time>2015-03-22T14:00:36Z</time>
      </trkpt>
      <trkpt lat="50.06889" lon="5.1972">
        <ele>300</ele>
        <time>2015-03-22T14:00:42Z</time>
      </trkpt>
      <trkpt lat="50.06894" lon="5.19719">
        <ele>300</ele>
        <time>2015-03-22T14:00:47Z</time>
      </trkpt>
      <trkpt lat="50.06898" lon="5.19718">
        <ele>299</ele>
        <time>2015-03-22T14:00:52Z</time>
      </trkpt>
      <trkpt lat="50.06906" lon="5.19717">
        <ele>299</ele>
        <time>2015-03-22T14:00:58Z</time>
      </trkpt>
      <trkpt lat="50.06911" lon="5.19716">
        <ele>298</ele>
        <time>2015-03-22T14:01:03Z</time>
      </trkpt>
      <trkpt lat="50.06918" lon="5.19714">
        <ele>297</ele>
        <time>2015-03-22T14:01:09Z</time>
      </trkpt>
      <trkpt lat="50.06924" lon="5.19711">
        <ele>297</ele>
        <time>2015-03-22T14:01:14Z</time>
      </trkpt>
      <trkpt lat="50.0693" lon="5.19707">
        <ele>295</ele>
        <time>2015-03-22T14:01:20Z</time>
      </trkpt>
      <trkpt lat="50.06935" lon="5.19704">
        <ele>295</ele>
        <time>2015-03-22T14:01:25Z</time>
      </trkpt>
      <trkpt lat="50.06942" lon="5.197">
        <ele>294</ele>
        <time>2015-03-22T14:01:31Z</time>
      </trkpt>
      <trkpt lat="50.06949" lon="5.19698">
        <ele>294</ele>
        <time>2015-03-22T14:01:36Z</time>
      </trkpt>
      <trkpt lat="50.06955" lon="5.19696">
        <ele>293</ele>
        <time>2015-03-22T14:01:41Z</time>
      </trkpt>
      <trkpt lat="50.06962" lon="5.19692">
        <ele>292</ele>
        <time>2015-03-22T14:01:47Z</time>
      </trkpt>
      <trkpt lat="50.06971" lon="5.19688">
        <ele>291</ele>
        <time>2015-03-22T14:01:53Z</time>
      </trkpt>
      <trkpt lat="50.06976" lon="5.19688">
        <ele>291</ele>
        <time>2015-03-22T14:01:59Z</time>
      </trkpt>
      <trkpt lat="50.06981" lon="5.19684">
        <ele>290</ele>
        <time>2015-03-22T14:02:04Z</time>
      </trkpt>
      <trkpt lat="50.06986" lon="5.19679">
        <ele>290</ele>
        <time>2015-03-22T14:02:09Z</time>
      </trkpt>
      <trkpt lat="50.06986" lon="5.19679">
        <ele>290</ele>
        <time>2015-03-22T14:02:14Z</time>
      </trkpt>
      <trkpt lat="50.06987" lon="5.19679">
        <ele>289</ele>
        <time>2015-03-22T14:02:20Z</time>
      </trkpt>
      <trkpt lat="50.06987" lon="5.19679">
        <ele>289</ele>
        <time>2015-03-22T14:02:27Z</time>
      </trkpt>
      <trkpt lat="50.06987" lon="5.19679">
        <ele>289</ele>
        <time>2015-03-22T14:02:33Z</time>
      </trkpt>
      <trkpt lat="50.06987" lon="5.19679">
        <ele>289</ele>
        <time>2015-03-22T14:02:38Z</time>
      </trkpt>
      <trkpt lat="50.06985" lon="5.19678">
        <ele>289</ele>
        <time>2015-03-22T14:02:44Z</time>
      </trkpt>
      <trkpt lat="50.06982" lon="5.19678">
        <ele>290</ele>
        <time>2015-03-22T14:02:50Z</time>
      </trkpt>
      <trkpt lat="50.06981" lon="5.19679">
        <ele>290</ele>
        <time>2015-03-22T14:02:55Z</time>
      </trkpt>
      <trkpt lat="50.06979" lon="5.19679">
        <ele>290</ele>
        <time>2015-03-22T14:03:03Z</time>
      </trkpt>
      <trkpt lat="50.06978" lon="5.19683">
        <ele>290</ele>
        <time>2015-03-22T14:03:09Z</time>
      </trkpt>
      <trkpt lat="50.06979" lon="5.19681">
        <ele>290</ele>
        <time>2015-03-22T14:03:14Z</time>
      </trkpt>
      <trkpt lat="50.0698" lon="5.19679">
        <ele>290</ele>
        <time>2015-03-22T14:03:19Z</time>
      </trkpt>
      <trkpt lat="50.06982" lon="5.19679">
        <ele>290</ele>
        <time>2015-03-22T14:03:25Z</time>
      </trkpt>
      <trkpt lat="50.06985" lon="5.19679">
        <ele>290</ele>
        <time>2015-03-22T14:03:31Z</time>
      </trkpt>
      <trkpt lat="50.06985" lon="5.19681">
        <ele>290</ele>
        <time>2015-03-22T14:03:37Z</time>
      </trkpt>
      <trkpt lat="50.06987" lon="5.19682">
        <ele>290</ele>
        <time>2015-03-22T14:03:43Z</time>
      </trkpt>
      <trkpt lat="50.06988" lon="5.19683">
        <ele>290</ele>
        <time>2015-03-22T14:03:48Z</time>
      </trkpt>
      <trkpt lat="50.06988" lon="5.19685">
        <ele>290</ele>
        <time>2015-03-22T14:03:53Z</time>
      </trkpt>
      <trkpt lat="50.06989" lon="5.19683">
        <ele>291</ele>
        <time>2015-03-22T14:03:59Z</time>
      </trkpt>
      <trkpt lat="50.06989" lon="5.19684">
        <ele>291</ele>
        <time>2015-03-22T14:04:05Z</time>
      </trkpt>
      <trkpt lat="50.06989" lon="5.19683">
        <ele>291</ele>
        <time>2015-03-22T14:04:10Z</time>
      </trkpt>
      <trkpt lat="50.06992" lon="5.19677">
        <ele>291</ele>
        <time>2015-03-22T14:04:15Z</time>
      </trkpt>
      <trkpt lat="50.06999" lon="5.19674">
        <ele>290</ele>
        <time>2015-03-22T14:04:21Z</time>
      </trkpt>
      <trkpt lat="50.07005" lon="5.19671">
        <ele>289</ele>
        <time>2015-03-22T14:04:27Z</time>
      </trkpt>
      <trkpt lat="50.07012" lon="5.19667">
        <ele>289</ele>
        <time>2015-03-22T14:04:33Z</time>
      </trkpt>
      <trkpt lat="50.07018" lon="5.19664">
        <ele>289</ele>
        <time>2015-03-22T14:04:38Z</time>
      </trkpt>
      <trkpt lat="50.07022" lon="5.19661">
        <ele>288</ele>
        <time>2015-03-22T14:04:43Z</time>
      </trkpt>
      <trkpt lat="50.07026" lon="5.19656">
        <ele>287</ele>
        <time>2015-03-22T14:04:48Z</time>
      </trkpt>
      <trkpt lat="50.07032" lon="5.19651">
        <ele>287</ele>
        <time>2015-03-22T14:04:53Z</time>
      </trkpt>
      <trkpt lat="50.07038" lon="5.19646">
        <ele>287</ele>
        <time>2015-03-22T14:04:59Z</time>
      </trkpt>
      <trkpt lat="50.07043" lon="5.19641">
        <ele>286</ele>
        <time>2015-03-22T14:05:04Z</time>
      </trkpt>
      <trkpt lat="50.0705" lon="5.19636">
        <ele>286</ele>
        <time>2015-03-22T14:05:10Z</time>
      </trkpt>
      <trkpt lat="50.07057" lon="5.19629">
        <ele>286</ele>
        <time>2015-03-22T14:05:16Z</time>
      </trkpt>
      <trkpt lat="50.07062" lon="5.19626">
        <ele>285</ele>
        <time>2015-03-22T14:05:21Z</time>
      </trkpt>
      <trkpt lat="50.07069" lon="5.1962">
        <ele>284</ele>
        <time>2015-03-22T14:05:27Z</time>
      </trkpt>
      <trkpt lat="50.07074" lon="5.19615">
        <ele>284</ele>
        <time>2015-03-22T14:05:32Z</time>
      </trkpt>
      <trkpt lat="50.07081" lon="5.19609">
        <ele>283</ele>
        <time>2015-03-22T14:05:38Z</time>
      </trkpt>
      <trkpt lat="50.07087" lon="5.19604">
        <ele>283</ele>
        <time>2015-03-22T14:05:43Z</time>
      </trkpt>
      <trkpt lat="50.07093" lon="5.19597">
        <ele>282</ele>
        <time>2015-03-22T14:05:49Z</time>
      </trkpt>
      <trkpt lat="50.071" lon="5.19592">
        <ele>281</ele>
        <time>2015-03-22T14:05:55Z</time>
      </trkpt>
      <trkpt lat="50.07107" lon="5.19584">
        <ele>280</ele>
        <time>2015-03-22T14:06:01Z</time>
      </trkpt>
      <trkpt lat="50.07113" lon="5.19577">
        <ele>280</ele>
        <time>2015-03-22T14:06:07Z</time>
      </trkpt>
      <trkpt lat="50.07118" lon="5.19571">
        <ele>280</ele>
        <time>2015-03-22T14:06:12Z</time>
      </trkpt>
      <trkpt lat="50.07124" lon="5.19564">
        <ele>279</ele>
        <time>2015-03-22T14:06:18Z</time>
      </trkpt>
      <trkpt lat="50.0713" lon="5.19558">
        <ele>279</ele>
        <time>2015-03-22T14:06:24Z</time>
      </trkpt>
      <trkpt lat="50.07135" lon="5.19552">
        <ele>279</ele>
        <time>2015-03-22T14:06:29Z</time>
      </trkpt>
      <trkpt lat="50.07141" lon="5.19546">
        <ele>279</ele>
        <time>2015-03-22T14:06:35Z</time>
      </trkpt>
      <trkpt lat="50.07147" lon="5.19541">
        <ele>278</ele>
        <time>2015-03-22T14:06:40Z</time>
      </trkpt>
      <trkpt lat="50.07151" lon="5.19536">
        <ele>277</ele>
        <time>2015-03-22T14:06:45Z</time>
      </trkpt>
      <trkpt lat="50.07156" lon="5.19531">
        <ele>277</ele>
        <time>2015-03-22T14:06:50Z</time>
      </trkpt>
      <trkpt lat="50.07161" lon="5.19524">
        <ele>276</ele>
        <time>2015-03-22T14:06:56Z</time>
      </trkpt>
      <trkpt lat="50.07165" lon="5.19519">
        <ele>277</ele>
        <time>2015-03-22T14:07:01Z</time>
      </trkpt>
      <trkpt lat="50.07167" lon="5.19517">
        <ele>276</ele>
        <time>2015-03-22T14:07:07Z</time>
      </trkpt>
      <trkpt lat="50.07171" lon="5.19511">
        <ele>276</ele>
        <time>2015-03-22T14:07:12Z</time>
      </trkpt>
      <trkpt lat="50.07176" lon="5.19502">
        <ele>277</ele>
        <time>2015-03-22T14:07:18Z</time>
      </trkpt>
      <trkpt lat="50.07179" lon="5.19493">
        <ele>276</ele>
        <time>2015-03-22T14:07:23Z</time>
      </trkpt>
      <trkpt lat="50.07179" lon="5.1948">
        <ele>276</ele>
        <time>2015-03-22T14:07:29Z</time>
      </trkpt>
      <trkpt lat="50.07177" lon="5.19469">
        <ele>276</ele>
        <time>2015-03-22T14:07:34Z</time>
      </trkpt>
      <trkpt lat="50.07177" lon="5.19459">
        <ele>276</ele>
        <time>2015-03-22T14:07:39Z</time>
      </trkpt>
      <trkpt lat="50.07175" lon="5.1945">
        <ele>276</ele>
        <time>2015-03-22T14:07:44Z</time>
      </trkpt>
      <trkpt lat="50.07174" lon="5.1944">
        <ele>277</ele>
        <time>2015-03-22T14:07:49Z</time>
      </trkpt>
      <trkpt lat="50.07172" lon="5.19428">
        <ele>277</ele>
        <time>2015-03-22T14:07:55Z</time>
      </trkpt>
      <trkpt lat="50.0717" lon="5.19417">
        <ele>277</ele>
        <time>2015-03-22T14:08:01Z</time>
      </trkpt>
      <trkpt lat="50.07169" lon="5.19407">
        <ele>277</ele>
        <time>2015-03-22T14:08:06Z</time>
      </trkpt>
      <trkpt lat="50.07167" lon="5.19399">
        <ele>277</ele>
        <time>2015-03-22T14:08:11Z</time>
      </trkpt>
      <trkpt lat="50.07167" lon="5.1939">
        <ele>276</ele>
        <time>2015-03-22T14:08:16Z</time>
      </trkpt>
      <trkpt lat="50.07167" lon="5.1938">
        <ele>277</ele>
        <time>2015-03-22T14:08:22Z</time>
      </trkpt>
      <trkpt lat="50.07166" lon="5.19371">
        <ele>277</ele>
        <time>2015-03-22T14:08:27Z</time>
      </trkpt>
      <trkpt lat="50.07166" lon="5.19362">
        <ele>277</ele>
        <time>2015-03-22T14:08:32Z</time>
      </trkpt>
      <trkpt lat="50.07165" lon="5.19353">
        <ele>276</ele>
        <time>2015-03-22T14:08:37Z</time>
      </trkpt>
      <trkpt lat="50.07165" lon="5.19346">
        <ele>276</ele>
        <time>2015-03-22T14:08:42Z</time>
      </trkpt>
      <trkpt lat="50.07164" lon="5.19335">
        <ele>275</ele>
        <time>2015-03-22T14:08:48Z</time>
      </trkpt>
      <trkpt lat="50.07164" lon="5.19324">
        <ele>275</ele>
        <time>2015-03-22T14:08:53Z</time>
      </trkpt>
      <trkpt lat="50.07164" lon="5.19314">
        <ele>274</ele>
        <time>2015-03-22T14:08:58Z</time>
      </trkpt>
      <trkpt lat="50.07164" lon="5.19302">
        <ele>273</ele>
        <time>2015-03-22T14:09:04Z</time>
      </trkpt>
      <trkpt lat="50.07165" lon="5.19292">
        <ele>272</ele>
        <time>2015-03-22T14:09:10Z</time>
      </trkpt>
      <trkpt lat="50.07167" lon="5.19284">
        <ele>272</ele>
        <time>2015-03-22T14:09:15Z</time>
      </trkpt>
      <trkpt lat="50.07171" lon="5.19278">
        <ele>272</ele>
        <time>2015-03-22T14:09:21Z</time>
      </trkpt>
      <trkpt lat="50.07174" lon="5.19273">
        <ele>272</ele>
        <time>2015-03-22T14:09:26Z</time>
      </trkpt>
      <trkpt lat="50.07178" lon="5.19267">
        <ele>271</ele>
        <time>2015-03-22T14:09:31Z</time>
      </trkpt>
      <trkpt lat="50.07182" lon="5.19263">
        <ele>271</ele>
        <time>2015-03-22T14:09:36Z</time>
      </trkpt>
      <trkpt lat="50.07182" lon="5.19262">
        <ele>270</ele>
        <time>2015-03-22T14:09:41Z</time>
      </trkpt>
      <trkpt lat="50.07184" lon="5.19258">
        <ele>270</ele>
        <time>2015-03-22T14:09:47Z</time>
      </trkpt>
      <trkpt lat="50.07188" lon="5.19253">
        <ele>270</ele>
        <time>2015-03-22T14:09:52Z</time>
      </trkpt>
      <trkpt lat="50.07191" lon="5.19246">
        <ele>269</ele>
        <time>2015-03-22T14:09:58Z</time>
      </trkpt>
      <trkpt lat="50.07196" lon="5.19241">
        <ele>269</ele>
        <time>2015-03-22T14:10:04Z</time>
      </trkpt>
      <trkpt lat="50.072" lon="5.19237">
        <ele>269</ele>
        <time>2015-03-22T14:10:09Z</time>
      </trkpt>
      <trkpt lat="50.07205" lon="5.19234">
        <ele>268</ele>
        <time>2015-03-22T14:10:14Z</time>
      </trkpt>
      <trkpt lat="50.0721" lon="5.1923">
        <ele>268</ele>
        <time>2015-03-22T14:10:19Z</time>
      </trkpt>
      <trkpt lat="50.07216" lon="5.19227">
        <ele>267</ele>
        <time>2015-03-22T14:10:25Z</time>
      </trkpt>
      <trkpt lat="50.07221" lon="5.19223">
        <ele>267</ele>
        <time>2015-03-22T14:10:30Z</time>
      </trkpt>
      <trkpt lat="50.07226" lon="5.19219">
        <ele>267</ele>
        <time>2015-03-22T14:10:35Z</time>
      </trkpt>
      <trkpt lat="50.07232" lon="5.19214">
        <ele>266</ele>
        <time>2015-03-22T14:10:41Z</time>
      </trkpt>
      <trkpt lat="50.07236" lon="5.1921">
        <ele>266</ele>
        <time>2015-03-22T14:10:46Z</time>
      </trkpt>
      <trkpt lat="50.07241" lon="5.19206">
        <ele>266</ele>
        <time>2015-03-22T14:10:51Z</time>
      </trkpt>
      <trkpt lat="50.07247" lon="5.19201">
        <ele>266</ele>
        <time>2015-03-22T14:10:57Z</time>
      </trkpt>
      <trkpt lat="50.07252" lon="5.19197">
        <ele>265</ele>
        <time>2015-03-22T14:11:02Z</time>
      </trkpt>
      <trkpt lat="50.07258" lon="5.19191">
        <ele>265</ele>
        <time>2015-03-22T14:11:08Z</time>
      </trkpt>
      <trkpt lat="50.07264" lon="5.19184">
        <ele>265</ele>
        <time>2015-03-22T14:11:14Z</time>
      </trkpt>
      <trkpt lat="50.0727" lon="5.19179">
        <ele>265</ele>
        <time>2015-03-22T14:11:19Z</time>
      </trkpt>
      <trkpt lat="50.07277" lon="5.19173">
        <ele>265</ele>
        <time>2015-03-22T14:11:25Z</time>
      </trkpt>
      <trkpt lat="50.07281" lon="5.19169">
        <ele>265</ele>
        <time>2015-03-22T14:11:30Z</time>
      </trkpt>
      <trkpt lat="50.07283" lon="5.19167">
        <ele>265</ele>
        <time>2015-03-22T14:11:36Z</time>
      </trkpt>
      <trkpt lat="50.07285" lon="5.19167">
        <ele>265</ele>
        <time>2015-03-22T14:11:41Z</time>
      </trkpt>
      <trkpt lat="50.07286" lon="5.19165">
        <ele>265</ele>
        <time>2015-03-22T14:11:46Z</time>
      </trkpt>
      <trkpt lat="50.07291" lon="5.19162">
        <ele>265</ele>
        <time>2015-03-22T14:11:52Z</time>
      </trkpt>
      <trkpt lat="50.07295" lon="5.19159">
        <ele>265</ele>
        <time>2015-03-22T14:11:57Z</time>
      </trkpt>
      <trkpt lat="50.073" lon="5.19153">
        <ele>265</ele>
        <time>2015-03-22T14:12:03Z</time>
      </trkpt>
      <trkpt lat="50.07305" lon="5.19148">
        <ele>265</ele>
        <time>2015-03-22T14:12:09Z</time>
      </trkpt>
      <trkpt lat="50.07307" lon="5.19145">
        <ele>265</ele>
        <time>2015-03-22T14:12:15Z</time>
      </trkpt>
      <trkpt lat="50.07309" lon="5.19143">
        <ele>264</ele>
        <time>2015-03-22T14:12:20Z</time>
      </trkpt>
      <trkpt lat="50.0731" lon="5.19142">
        <ele>264</ele>
        <time>2015-03-22T14:12:26Z</time>
      </trkpt>
      <trkpt lat="50.07314" lon="5.19139">
        <ele>264</ele>
        <time>2015-03-22T14:12:31Z</time>
      </trkpt>
      <trkpt lat="50.07318" lon="5.19134">
        <ele>264</ele>
        <time>2015-03-22T14:12:36Z</time>
      </trkpt>
      <trkpt lat="50.07324" lon="5.19126">
        <ele>265</ele>
        <time>2015-03-22T14:12:42Z</time>
      </trkpt>
      <trkpt lat="50.07329" lon="5.1912">
        <ele>264</ele>
        <time>2015-03-22T14:12:47Z</time>
      </trkpt>
      <trkpt lat="50.07333" lon="5.19116">
        <ele>264</ele>
        <time>2015-03-22T14:12:52Z</time>
      </trkpt>
      <trkpt lat="50.07337" lon="5.1911">
        <ele>265</ele>
        <time>2015-03-22T14:12:57Z</time>
      </trkpt>
      <trkpt lat="50.0734" lon="5.19105">
        <ele>264</ele>
        <time>2015-03-22T14:13:03Z</time>
      </trkpt>
      <trkpt lat="50.07345" lon="5.19101">
        <ele>264</ele>
        <time>2015-03-22T14:13:08Z</time>
      </trkpt>
      <trkpt lat="50.07351" lon="5.19094">
        <ele>264</ele>
        <time>2015-03-22T14:13:13Z</time>
      </trkpt>
      <trkpt lat="50.07356" lon="5.19087">
        <ele>264</ele>
        <time>2015-03-22T14:13:18Z</time>
      </trkpt>
      <trkpt lat="50.0736" lon="5.19081">
        <ele>264</ele>
        <time>2015-03-22T14:13:23Z</time>
      </trkpt>
      <trkpt lat="50.07365" lon="5.19074">
        <ele>264</ele>
        <time>2015-03-22T14:13:28Z</time>
      </trkpt>
      <trkpt lat="50.07367" lon="5.19071">
        <ele>263</ele>
        <time>2015-03-22T14:13:33Z</time>
      </trkpt>
      <trkpt lat="50.07372" lon="5.19066">
        <ele>263</ele>
        <time>2015-03-22T14:13:39Z</time>
      </trkpt>
      <trkpt lat="50.07378" lon="5.19058">
        <ele>263</ele>
        <time>2015-03-22T14:13:45Z</time>
      </trkpt>
      <trkpt lat="50.07383" lon="5.19049">
        <ele>262</ele>
        <time>2015-03-22T14:13:51Z</time>
      </trkpt>
      <trkpt lat="50.07386" lon="5.19041">
        <ele>261</ele>
        <time>2015-03-22T14:13:56Z</time>
      </trkpt>
      <trkpt lat="50.0739" lon="5.19032">
        <ele>260</ele>
        <time>2015-03-22T14:14:02Z</time>
      </trkpt>
      <trkpt lat="50.07394" lon="5.19026">
        <ele>259</ele>
        <time>2015-03-22T14:14:07Z</time>
      </trkpt>
      <trkpt lat="50.07397" lon="5.1902">
        <ele>258</ele>
        <time>2015-03-22T14:14:12Z</time>
      </trkpt>
      <trkpt lat="50.07401" lon="5.19011">
        <ele>258</ele>
        <time>2015-03-22T14:14:18Z</time>
      </trkpt>
      <trkpt lat="50.07402" lon="5.19005">
        <ele>257</ele>
        <time>2015-03-22T14:14:24Z</time>
      </trkpt>
      <trkpt lat="50.07405" lon="5.19">
        <ele>257</ele>
        <time>2015-03-22T14:14:30Z</time>
      </trkpt>
      <trkpt lat="50.07409" lon="5.18992">
        <ele>256</ele>
        <time>2015-03-22T14:14:36Z</time>
      </trkpt>
      <trkpt lat="50.07413" lon="5.18983">
        <ele>255</ele>
        <time>2015-03-22T14:14:42Z</time>
      </trkpt>
      <trkpt lat="50.07417" lon="5.18977">
        <ele>254</ele>
        <time>2015-03-22T14:14:47Z</time>
      </trkpt>
      <trkpt lat="50.0742" lon="5.1897">
        <ele>254</ele>
        <time>2015-03-22T14:14:52Z</time>
      </trkpt>
      <trkpt lat="50.07425" lon="5.18963">
        <ele>253</ele>
        <time>2015-03-22T14:14:58Z</time>
      </trkpt>
      <trkpt lat="50.07429" lon="5.18958">
        <ele>252</ele>
        <time>2015-03-22T14:15:03Z</time>
      </trkpt>
      <trkpt lat="50.07433" lon="5.18952">
        <ele>252</ele>
        <time>2015-03-22T14:15:08Z</time>
      </trkpt>
      <trkpt lat="50.07438" lon="5.18945">
        <ele>251</ele>
        <time>2015-03-22T14:15:14Z</time>
      </trkpt>
      <trkpt lat="50.07442" lon="5.18938">
        <ele>250</ele>
        <time>2015-03-22T14:15:20Z</time>
      </trkpt>
      <trkpt lat="50.07447" lon="5.18929">
        <ele>249</ele>
        <time>2015-03-22T14:15:26Z</time>
      </trkpt>
      <trkpt lat="50.07452" lon="5.18922">
        <ele>249</ele>
        <time>2015-03-22T14:15:31Z</time>
      </trkpt>
      <trkpt lat="50.07454" lon="5.18918">
        <ele>248</ele>
        <time>2015-03-22T14:15:36Z</time>
      </trkpt>
      <trkpt lat="50.07458" lon="5.1891">
        <ele>248</ele>
        <time>2015-03-22T14:15:42Z</time>
      </trkpt>
      <trkpt lat="50.0746" lon="5.18899">
        <ele>248</ele>
        <time>2015-03-22T14:15:48Z</time>
      </trkpt>
      <trkpt lat="50.07462" lon="5.18892">
        <ele>247</ele>
        <time>2015-03-22T14:15:53Z</time>
      </trkpt>
      <trkpt lat="50.07464" lon="5.18883">
        <ele>246</ele>
        <time>2015-03-22T14:15:59Z</time>
      </trkpt>
      <trkpt lat="50.07467" lon="5.18874">
        <ele>246</ele>
        <time>2015-03-22T14:16:05Z</time>
      </trkpt>
      <trkpt lat="50.07471" lon="5.18867">
        <ele>245</ele>
        <time>2015-03-22T14:16:10Z</time>
      </trkpt>
      <trkpt lat="50.07473" lon="5.18863">
        <ele>244</ele>
        <time>2015-03-22T14:16:16Z</time>
      </trkpt>
      <trkpt lat="50.07473" lon="5.18861">
        <ele>244</ele>
        <time>2015-03-22T14:16:22Z</time>
      </trkpt>
      <trkpt lat="50.07473" lon="5.18861">
        <ele>244</ele>
        <time>2015-03-22T14:16:27Z</time>
      </trkpt>
      <trkpt lat="50.07474" lon="5.1886">
        <ele>244</ele>
        <time>2015-03-22T14:16:32Z</time>
      </trkpt>
      <trkpt lat="50.07477" lon="5.18858">
        <ele>244</ele>
        <time>2015-03-22T14:16:38Z</time>
      </trkpt>
      <trkpt lat="50.07477" lon="5.18856">
        <ele>243</ele>
        <time>2015-03-22T14:16:44Z</time>
      </trkpt>
      <trkpt lat="50.07476" lon="5.18854">
        <ele>243</ele>
        <time>2015-03-22T14:16:50Z</time>
      </trkpt>
      <trkpt lat="50.07476" lon="5.18854">
        <ele>243</ele>
        <time>2015-03-22T14:16:56Z</time>
      </trkpt>
      <trkpt lat="50.07474" lon="5.18853">
        <ele>243</ele>
        <time>2015-03-22T14:17:02Z</time>
      </trkpt>
      <trkpt lat="50.07471" lon="5.18852">
        <ele>243</ele>
        <time>2015-03-22T14:17:09Z</time>
      </trkpt>
      <trkpt lat="50.07472" lon="5.18851">
        <ele>243</ele>
        <time>2015-03-22T14:17:15Z</time>
      </trkpt>
      <trkpt lat="50.07476" lon="5.18851">
        <ele>243</ele>
        <time>2015-03-22T14:17:20Z</time>
      </trkpt>
      <trkpt lat="50.07481" lon="5.18849">
        <ele>242</ele>
        <time>2015-03-22T14:17:25Z</time>
      </trkpt>
      <trkpt lat="50.07488" lon="5.18848">
        <ele>242</ele>
        <time>2015-03-22T14:17:31Z</time>
      </trkpt>
      <trkpt lat="50.07494" lon="5.18846">
        <ele>241</ele>
        <time>2015-03-22T14:17:36Z</time>
      </trkpt>
      <trkpt lat="50.075" lon="5.18844">
        <ele>241</ele>
        <time>2015-03-22T14:17:41Z</time>
      </trkpt>
      <trkpt lat="50.07507" lon="5.18842">
        <ele>241</ele>
        <time>2015-03-22T14:17:47Z</time>
      </trkpt>
      <trkpt lat="50.07512" lon="5.1884">
        <ele>241</ele>
        <time>2015-03-22T14:17:52Z</time>
      </trkpt>
      <trkpt lat="50.07515" lon="5.18836">
        <ele>240</ele>
        <time>2015-03-22T14:17:57Z</time>
      </trkpt>
      <trkpt lat="50.0752" lon="5.18837">
        <ele>240</ele>
        <time>2015-03-22T14:18:03Z</time>
      </trkpt>
      <trkpt lat="50.07525" lon="5.18835">
        <ele>240</ele>
        <time>2015-03-22T14:18:08Z</time>
      </trkpt>
      <trkpt lat="50.0753" lon="5.18833">
        <ele>239</ele>
        <time>2015-03-22T14:18:14Z</time>
      </trkpt>
      <trkpt lat="50.07534" lon="5.1883">
        <ele>239</ele>
        <time>2015-03-22T14:18:20Z</time>
      </trkpt>
      <trkpt lat="50.0754" lon="5.18831">
        <ele>240</ele>
        <time>2015-03-22T14:18:26Z</time>
      </trkpt>
      <trkpt lat="50.07547" lon="5.18824">
        <ele>240</ele>
        <time>2015-03-22T14:18:32Z</time>
      </trkpt>
      <trkpt lat="50.07552" lon="5.18815">
        <ele>239</ele>
        <time>2015-03-22T14:18:37Z</time>
      </trkpt>
      <trkpt lat="50.07556" lon="5.18807">
        <ele>239</ele>
        <time>2015-03-22T14:18:43Z</time>
      </trkpt>
      <trkpt lat="50.0756" lon="5.18799">
        <ele>239</ele>
        <time>2015-03-22T14:18:48Z</time>
      </trkpt>
      <trkpt lat="50.07566" lon="5.1879">
        <ele>239</ele>
        <time>2015-03-22T14:18:53Z</time>
      </trkpt>
      <trkpt lat="50.07569" lon="5.18781">
        <ele>238</ele>
        <time>2015-03-22T14:18:58Z</time>
      </trkpt>
      <trkpt lat="50.07574" lon="5.18773">
        <ele>238</ele>
        <time>2015-03-22T14:19:04Z</time>
      </trkpt>
      <trkpt lat="50.07578" lon="5.18764">
        <ele>238</ele>
        <time>2015-03-22T14:19:10Z</time>
      </trkpt>
      <trkpt lat="50.07582" lon="5.18755">
        <ele>238</ele>
        <time>2015-03-22T14:19:16Z</time>
      </trkpt>
      <trkpt lat="50.07585" lon="5.18747">
        <ele>238</ele>
        <time>2015-03-22T14:19:21Z</time>
      </trkpt>
      <trkpt lat="50.07587" lon="5.18737">
        <ele>238</ele>
        <time>2015-03-22T14:19:27Z</time>
      </trkpt>
      <trkpt lat="50.07589" lon="5.18729">
        <ele>238</ele>
        <time>2015-03-22T14:19:32Z</time>
      </trkpt>
      <trkpt lat="50.07591" lon="5.1872">
        <ele>238</ele>
        <time>2015-03-22T14:19:37Z</time>
      </trkpt>
      <trkpt lat="50.07593" lon="5.18711">
        <ele>238</ele>
        <time>2015-03-22T14:19:43Z</time>
      </trkpt>
      <trkpt lat="50.07596" lon="5.18706">
        <ele>237</ele>
        <time>2015-03-22T14:19:48Z</time>
      </trkpt>
      <trkpt lat="50.07597" lon="5.18703">
        <ele>237</ele>
        <time>2015-03-22T14:19:54Z</time>
      </trkpt>
      <trkpt lat="50.07601" lon="5.18698">
        <ele>237</ele>
        <time>2015-03-22T14:20:00Z</time>
      </trkpt>
      <trkpt lat="50.07604" lon="5.18693">
        <ele>238</ele>
        <time>2015-03-22T14:20:05Z</time>
      </trkpt>
      <trkpt lat="50.07607" lon="5.18688">
        <ele>238</ele>
        <time>2015-03-22T14:20:10Z</time>
      </trkpt>
      <trkpt lat="50.07611" lon="5.18682">
        <ele>238</ele>
        <time>2015-03-22T14:20:15Z</time>
      </trkpt>
      <trkpt lat="50.07615" lon="5.18675">
        <ele>238</ele>
        <time>2015-03-22T14:20:20Z</time>
      </trkpt>
      <trkpt lat="50.07618" lon="5.18669">
        <ele>237</ele>
        <time>2015-03-22T14:20:26Z</time>
      </trkpt>
      <trkpt lat="50.07622" lon="5.18663">
        <ele>236</ele>
        <time>2015-03-22T14:20:31Z</time>
      </trkpt>
      <trkpt lat="50.07627" lon="5.18656">
        <ele>236</ele>
        <time>2015-03-22T14:20:37Z</time>
      </trkpt>
      <trkpt lat="50.07633" lon="5.18649">
        <ele>235</ele>
        <time>2015-03-22T14:20:43Z</time>
      </trkpt>
      <trkpt lat="50.07639" lon="5.18642">
        <ele>234</ele>
        <time>2015-03-22T14:20:48Z</time>
      </trkpt>
      <trkpt lat="50.07646" lon="5.18636">
        <ele>234</ele>
        <time>2015-03-22T14:20:55Z</time>
      </trkpt>
      <trkpt lat="50.07652" lon="5.1863">
        <ele>233</ele>
        <time>2015-03-22T14:21:01Z</time>
      </trkpt>
      <trkpt lat="50.07656" lon="5.18625">
        <ele>232</ele>
        <time>2015-03-22T14:21:06Z</time>
      </trkpt>
      <trkpt lat="50.0766" lon="5.18619">
        <ele>232</ele>
        <time>2015-03-22T14:21:12Z</time>
      </trkpt>
      <trkpt lat="50.07665" lon="5.18613">
        <ele>232</ele>
        <time>2015-03-22T14:21:17Z</time>
      </trkpt>
      <trkpt lat="50.07669" lon="5.18606">
        <ele>231</ele>
        <time>2015-03-22T14:21:22Z</time>
      </trkpt>
      <trkpt lat="50.07674" lon="5.186">
        <ele>230</ele>
        <time>2015-03-22T14:21:28Z</time>
      </trkpt>
      <trkpt lat="50.07678" lon="5.18594">
        <ele>230</ele>
        <time>2015-03-22T14:21:33Z</time>
      </trkpt>
      <trkpt lat="50.07681" lon="5.18591">
        <ele>229</ele>
        <time>2015-03-22T14:21:39Z</time>
      </trkpt>
      <trkpt lat="50.07681" lon="5.18591">
        <ele>229</ele>
        <time>2015-03-22T14:21:44Z</time>
      </trkpt>
      <trkpt lat="50.07683" lon="5.18591">
        <ele>228</ele>
        <time>2015-03-22T14:21:49Z</time>
      </trkpt>
      <trkpt lat="50.07685" lon="5.18589">
        <ele>229</ele>
        <time>2015-03-22T14:21:55Z</time>
      </trkpt>
      <trkpt lat="50.07689" lon="5.18585">
        <ele>228</ele>
        <time>2015-03-22T14:22:01Z</time>
      </trkpt>
      <trkpt lat="50.0769" lon="5.18583">
        <ele>228</ele>
        <time>2015-03-22T14:22:06Z</time>
      </trkpt>
      <trkpt lat="50.07689" lon="5.18582">
        <ele>227</ele>
        <time>2015-03-22T14:22:11Z</time>
      </trkpt>
      <trkpt lat="50.07689" lon="5.18582">
        <ele>227</ele>
        <time>2015-03-22T14:22:18Z</time>
      </trkpt>
      <trkpt lat="50.07692" lon="5.1858">
        <ele>227</ele>
        <time>2015-03-22T14:22:23Z</time>
      </trkpt>
      <trkpt lat="50.07692" lon="5.18581">
        <ele>226</ele>
        <time>2015-03-22T14:22:29Z</time>
      </trkpt>
      <trkpt lat="50.07692" lon="5.18581">
        <ele>227</ele>
        <time>2015-03-22T14:22:35Z</time>
      </trkpt>
      <trkpt lat="50.07692" lon="5.18581">
        <ele>227</ele>
        <time>2015-03-22T14:22:40Z</time>
      </trkpt>
      <trkpt lat="50.07692" lon="5.18581">
        <ele>227</ele>
        <time>2015-03-22T14:22:46Z</time>
      </trkpt>
      <trkpt lat="50.07695" lon="5.18575">
        <ele>227</ele>
        <time>2015-03-22T14:22:52Z</time>
      </trkpt>
      <trkpt lat="50.07698" lon="5.1857">
        <ele>226</ele>
        <time>2015-03-22T14:22:57Z</time>
      </trkpt>
      <trkpt lat="50.07702" lon="5.18566">
        <ele>226</ele>
        <time>2015-03-22T14:23:02Z</time>
      </trkpt>
      <trkpt lat="50.07705" lon="5.18562">
        <ele>224</ele>
        <time>2015-03-22T14:23:07Z</time>
      </trkpt>
      <trkpt lat="50.07709" lon="5.18556">
        <ele>222</ele>
        <time>2015-03-22T14:23:14Z</time>
      </trkpt>
      <trkpt lat="50.07711" lon="5.18551">
        <ele>221</ele>
        <time>2015-03-22T14:23:19Z</time>
      </trkpt>
      <trkpt lat="50.07715" lon="5.18545">
        <ele>220</ele>
        <time>2015-03-22T14:23:24Z</time>
      </trkpt>
      <trkpt lat="50.07718" lon="5.18538">
        <ele>219</ele>
        <time>2015-03-22T14:23:30Z</time>
      </trkpt>
      <trkpt lat="50.07721" lon="5.18533">
        <ele>219</ele>
        <time>2015-03-22T14:23:35Z</time>
      </trkpt>
      <trkpt lat="50.07725" lon="5.18524">
        <ele>218</ele>
        <time>2015-03-22T14:23:40Z</time>
      </trkpt>
      <trkpt lat="50.07729" lon="5.18515">
        <ele>217</ele>
        <time>2015-03-22T14:23:46Z</time>
      </trkpt>
      <trkpt lat="50.07732" lon="5.18508">
        <ele>216</ele>
        <time>2015-03-22T14:23:52Z</time>
      </trkpt>
      <trkpt lat="50.07738" lon="5.185">
        <ele>215</ele>
        <time>2015-03-22T14:23:57Z</time>
      </trkpt>
      <trkpt lat="50.07743" lon="5.18491">
        <ele>215</ele>
        <time>2015-03-22T14:24:04Z</time>
      </trkpt>
      <trkpt lat="50.07748" lon="5.18483">
        <ele>215</ele>
        <time>2015-03-22T14:24:09Z</time>
      </trkpt>
      <trkpt lat="50.07753" lon="5.18475">
        <ele>214</ele>
        <time>2015-03-22T14:24:16Z</time>
      </trkpt>
      <trkpt lat="50.07758" lon="5.18466">
        <ele>213</ele>
        <time>2015-03-22T14:24:22Z</time>
      </trkpt>
      <trkpt lat="50.07762" lon="5.18457">
        <ele>213</ele>
        <time>2015-03-22T14:24:27Z</time>
      </trkpt>
      <trkpt lat="50.07767" lon="5.1845">
        <ele>211</ele>
        <time>2015-03-22T14:24:33Z</time>
      </trkpt>
      <trkpt lat="50.07772" lon="5.18442">
        <ele>211</ele>
        <time>2015-03-22T14:24:39Z</time>
      </trkpt>
      <trkpt lat="50.07777" lon="5.18433">
        <ele>210</ele>
        <time>2015-03-22T14:24:44Z</time>
      </trkpt>
      <trkpt lat="50.07781" lon="5.18428">
        <ele>208</ele>
        <time>2015-03-22T14:24:49Z</time>
      </trkpt>
      <trkpt lat="50.07784" lon="5.18422">
        <ele>207</ele>
        <time>2015-03-22T14:24:54Z</time>
      </trkpt>
      <trkpt lat="50.07788" lon="5.18415">
        <ele>206</ele>
        <time>2015-03-22T14:25:01Z</time>
      </trkpt>
      <trkpt lat="50.07792" lon="5.18409">
        <ele>205</ele>
        <time>2015-03-22T14:25:06Z</time>
      </trkpt>
      <trkpt lat="50.07796" lon="5.18402">
        <ele>204</ele>
        <time>2015-03-22T14:25:12Z</time>
      </trkpt>
      <trkpt lat="50.07799" lon="5.18397">
        <ele>203</ele>
        <time>2015-03-22T14:25:17Z</time>
      </trkpt>
      <trkpt lat="50.07802" lon="5.18392">
        <ele>202</ele>
        <time>2015-03-22T14:25:22Z</time>
      </trkpt>
      <trkpt lat="50.07806" lon="5.18387">
        <ele>201</ele>
        <time>2015-03-22T14:25:27Z</time>
      </trkpt>
      <trkpt lat="50.0781" lon="5.18382">
        <ele>199</ele>
        <time>2015-03-22T14:25:32Z</time>
      </trkpt>
      <trkpt lat="50.07814" lon="5.18376">
        <ele>198</ele>
        <time>2015-03-22T14:25:38Z</time>
      </trkpt>
      <trkpt lat="50.07819" lon="5.18369">
        <ele>197</ele>
        <time>2015-03-22T14:25:44Z</time>
      </trkpt>
      <trkpt lat="50.07822" lon="5.18362">
        <ele>196</ele>
        <time>2015-03-22T14:25:49Z</time>
      </trkpt>
      <trkpt lat="50.07825" lon="5.18355">
        <ele>194</ele>
        <time>2015-03-22T14:25:54Z</time>
      </trkpt>
      <trkpt lat="50.0783" lon="5.18346">
        <ele>194</ele>
        <time>2015-03-22T14:26:01Z</time>
      </trkpt>
      <trkpt lat="50.07832" lon="5.18341">
        <ele>193</ele>
        <time>2015-03-22T14:26:07Z</time>
      </trkpt>
      <trkpt lat="50.07833" lon="5.18338">
        <ele>192</ele>
        <time>2015-03-22T14:26:12Z</time>
      </trkpt>
      <trkpt lat="50.07835" lon="5.18336">
        <ele>192</ele>
        <time>2015-03-22T14:26:18Z</time>
      </trkpt>
      <trkpt lat="50.07837" lon="5.18332">
        <ele>192</ele>
        <time>2015-03-22T14:26:23Z</time>
      </trkpt>
      <trkpt lat="50.07837" lon="5.18329">
        <ele>192</ele>
        <time>2015-03-22T14:26:28Z</time>
      </trkpt>
      <trkpt lat="50.07837" lon="5.18328">
        <ele>192</ele>
        <time>2015-03-22T14:26:34Z</time>
      </trkpt>
      <trkpt lat="50.07839" lon="5.18326">
        <ele>192</ele>
        <time>2015-03-22T14:26:40Z</time>
      </trkpt>
      <trkpt lat="50.07842" lon="5.18322">
        <ele>191</ele>
        <time>2015-03-22T14:26:46Z</time>
      </trkpt>
      <trkpt lat="50.07846" lon="5.18315">
        <ele>190</ele>
        <time>2015-03-22T14:26:51Z</time>
      </trkpt>
      <trkpt lat="50.07847" lon="5.18313">
        <ele>189</ele>
        <time>2015-03-22T14:26:57Z</time>
      </trkpt>
      <trkpt lat="50.07846" lon="5.18311">
        <ele>189</ele>
        <time>2015-03-22T14:27:02Z</time>
      </trkpt>
      <trkpt lat="50.07846" lon="5.18308">
        <ele>189</ele>
        <time>2015-03-22T14:27:08Z</time>
      </trkpt>
      <trkpt lat="50.07848" lon="5.18303">
        <ele>188</ele>
        <time>2015-03-22T14:27:14Z</time>
      </trkpt>
      <trkpt lat="50.0785" lon="5.18298">
        <ele>188</ele>
        <time>2015-03-22T14:27:19Z</time>
      </trkpt>
      <trkpt lat="50.0785" lon="5.18298">
        <ele>187</ele>
        <time>2015-03-22T14:27:24Z</time>
      </trkpt>
      <trkpt lat="50.07851" lon="5.18297">
        <ele>187</ele>
        <time>2015-03-22T14:27:30Z</time>
      </trkpt>
      <trkpt lat="50.07853" lon="5.18296">
        <ele>187</ele>
        <time>2015-03-22T14:27:35Z</time>
      </trkpt>
      <trkpt lat="50.07854" lon="5.18294">
        <ele>187</ele>
        <time>2015-03-22T14:27:40Z</time>
      </trkpt>
      <trkpt lat="50.07858" lon="5.1829">
        <ele>187</ele>
        <time>2015-03-22T14:27:46Z</time>
      </trkpt>
      <trkpt lat="50.07862" lon="5.18285">
        <ele>186</ele>
        <time>2015-03-22T14:27:51Z</time>
      </trkpt>
      <trkpt lat="50.07866" lon="5.18279">
        <ele>185</ele>
        <time>2015-03-22T14:27:56Z</time>
      </trkpt>
      <trkpt lat="50.07869" lon="5.18273">
        <ele>184</ele>
        <time>2015-03-22T14:28:01Z</time>
      </trkpt>
      <trkpt lat="50.07872" lon="5.18268">
        <ele>182</ele>
        <time>2015-03-22T14:28:06Z</time>
      </trkpt>
      <trkpt lat="50.07876" lon="5.18264">
        <ele>182</ele>
        <time>2015-03-22T14:28:12Z</time>
      </trkpt>
      <trkpt lat="50.0788" lon="5.18259">
        <ele>181</ele>
        <time>2015-03-22T14:28:17Z</time>
      </trkpt>
      <trkpt lat="50.07885" lon="5.18253">
        <ele>180</ele>
        <time>2015-03-22T14:28:22Z</time>
      </trkpt>
      <trkpt lat="50.0789" lon="5.18249">
        <ele>179</ele>
        <time>2015-03-22T14:28:27Z</time>
      </trkpt>
      <trkpt lat="50.07896" lon="5.18243">
        <ele>178</ele>
        <time>2015-03-22T14:28:34Z</time>
      </trkpt>
      <trkpt lat="50.07903" lon="5.18236">
        <ele>177</ele>
        <time>2015-03-22T14:28:40Z</time>
      </trkpt>
      <trkpt lat="50.07909" lon="5.18228">
        <ele>176</ele>
        <time>2015-03-22T14:28:45Z</time>
      </trkpt>
      <trkpt lat="50.07913" lon="5.18222">
        <ele>175</ele>
        <time>2015-03-22T14:28:51Z</time>
      </trkpt>
      <trkpt lat="50.07919" lon="5.18213">
        <ele>175</ele>
        <time>2015-03-22T14:28:56Z</time>
      </trkpt>
      <trkpt lat="50.07923" lon="5.18205">
        <ele>174</ele>
        <time>2015-03-22T14:29:02Z</time>
      </trkpt>
      <trkpt lat="50.07929" lon="5.18196">
        <ele>172</ele>
        <time>2015-03-22T14:29:08Z</time>
      </trkpt>
      <trkpt lat="50.07933" lon="5.18189">
        <ele>171</ele>
        <time>2015-03-22T14:29:13Z</time>
      </trkpt>
      <trkpt lat="50.07938" lon="5.1818">
        <ele>171</ele>
        <time>2015-03-22T14:29:19Z</time>
      </trkpt>
      <trkpt lat="50.07943" lon="5.18171">
        <ele>170</ele>
        <time>2015-03-22T14:29:24Z</time>
      </trkpt>
      <trkpt lat="50.07948" lon="5.18162">
        <ele>169</ele>
        <time>2015-03-22T14:29:31Z</time>
      </trkpt>
      <trkpt lat="50.07953" lon="5.18153">
        <ele>168</ele>
        <time>2015-03-22T14:29:36Z</time>
      </trkpt>
      <trkpt lat="50.07956" lon="5.18147">
        <ele>168</ele>
        <time>2015-03-22T14:29:41Z</time>
      </trkpt>
      <trkpt lat="50.07959" lon="5.18137">
        <ele>167</ele>
        <time>2015-03-22T14:29:48Z</time>
      </trkpt>
      <trkpt lat="50.07963" lon="5.1813">
        <ele>167</ele>
        <time>2015-03-22T14:29:53Z</time>
      </trkpt>
      <trkpt lat="50.07968" lon="5.18122">
        <ele>166</ele>
        <time>2015-03-22T14:29:58Z</time>
      </trkpt>
      <trkpt lat="50.07972" lon="5.18114">
        <ele>166</ele>
        <time>2015-03-22T14:30:03Z</time>
      </trkpt>
      <trkpt lat="50.07976" lon="5.18106">
        <ele>165</ele>
        <time>2015-03-22T14:30:08Z</time>
      </trkpt>
      <trkpt lat="50.0798" lon="5.18096">
        <ele>164</ele>
        <time>2015-03-22T14:30:15Z</time>
      </trkpt>
      <trkpt lat="50.07985" lon="5.18089">
        <ele>163</ele>
        <time>2015-03-22T14:30:20Z</time>
      </trkpt>
      <trkpt lat="50.07989" lon="5.1808">
        <ele>163</ele>
        <time>2015-03-22T14:30:27Z</time>
      </trkpt>
      <trkpt lat="50.07993" lon="5.18075">
        <ele>163</ele>
        <time>2015-03-22T14:30:32Z</time>
      </trkpt>
      <trkpt lat="50.07996" lon="5.18068">
        <ele>163</ele>
        <time>2015-03-22T14:30:37Z</time>
      </trkpt>
      <trkpt lat="50.08" lon="5.1806">
        <ele>162</ele>
        <time>2015-03-22T14:30:42Z</time>
      </trkpt>
      <trkpt lat="50.08005" lon="5.18052">
        <ele>162</ele>
        <time>2015-03-22T14:30:47Z</time>
      </trkpt>
      <trkpt lat="50.0801" lon="5.18045">
        <ele>162</ele>
        <time>2015-03-22T14:30:52Z</time>
      </trkpt>
      <trkpt lat="50.08015" lon="5.18038">
        <ele>162</ele>
        <time>2015-03-22T14:30:58Z</time>
      </trkpt>
      <trkpt lat="50.0802" lon="5.18031">
        <ele>162</ele>
        <time>2015-03-22T14:31:03Z</time>
      </trkpt>
      <trkpt lat="50.08025" lon="5.18022">
        <ele>162</ele>
        <time>2015-03-22T14:31:09Z</time>
      </trkpt>
      <trkpt lat="50.0803" lon="5.18016">
        <ele>161</ele>
        <time>2015-03-22T14:31:14Z</time>
      </trkpt>
      <trkpt lat="50.08035" lon="5.18009">
        <ele>161</ele>
        <time>2015-03-22T14:31:21Z</time>
      </trkpt>
      <trkpt lat="50.08039" lon="5.18002">
        <ele>161</ele>
        <time>2015-03-22T14:31:27Z</time>
      </trkpt>
      <trkpt lat="50.08043" lon="5.17996">
        <ele>161</ele>
        <time>2015-03-22T14:31:32Z</time>
      </trkpt>
      <trkpt lat="50.08047" lon="5.17989">
        <ele>161</ele>
        <time>2015-03-22T14:31:37Z</time>
      </trkpt>
      <trkpt lat="50.08052" lon="5.17981">
        <ele>161</ele>
        <time>2015-03-22T14:31:44Z</time>
      </trkpt>
      <trkpt lat="50.08056" lon="5.17975">
        <ele>161</ele>
        <time>2015-03-22T14:31:49Z</time>
      </trkpt>
      <trkpt lat="50.08059" lon="5.17969">
        <ele>160</ele>
        <time>2015-03-22T14:31:55Z</time>
      </trkpt>
      <trkpt lat="50.0806" lon="5.17968">
        <ele>160</ele>
        <time>2015-03-22T14:32:00Z</time>
      </trkpt>
      <trkpt lat="50.08059" lon="5.17967">
        <ele>160</ele>
        <time>2015-03-22T14:32:05Z</time>
      </trkpt>
      <trkpt lat="50.08058" lon="5.17967">
        <ele>160</ele>
        <time>2015-03-22T14:32:10Z</time>
      </trkpt>
      <trkpt lat="50.08058" lon="5.17965">
        <ele>160</ele>
        <time>2015-03-22T14:32:16Z</time>
      </trkpt>
      <trkpt lat="50.08059" lon="5.17963">
        <ele>160</ele>
        <time>2015-03-22T14:32:22Z</time>
      </trkpt>
      <trkpt lat="50.08061" lon="5.1796">
        <ele>160</ele>
        <time>2015-03-22T14:32:28Z</time>
      </trkpt>
      <trkpt lat="50.08067" lon="5.17952">
        <ele>160</ele>
        <time>2015-03-22T14:32:34Z</time>
      </trkpt>
      <trkpt lat="50.08072" lon="5.17944">
        <ele>159</ele>
        <time>2015-03-22T14:32:39Z</time>
      </trkpt>
      <trkpt lat="50.08074" lon="5.17938">
        <ele>159</ele>
        <time>2015-03-22T14:32:45Z</time>
      </trkpt>
      <trkpt lat="50.08076" lon="5.17936">
        <ele>158</ele>
        <time>2015-03-22T14:32:50Z</time>
      </trkpt>
      <trkpt lat="50.0808" lon="5.17929">
        <ele>158</ele>
        <time>2015-03-22T14:32:56Z</time>
      </trkpt>
      <trkpt lat="50.08084" lon="5.1792">
        <ele>157</ele>
        <time>2015-03-22T14:33:01Z</time>
      </trkpt>
      <trkpt lat="50.08088" lon="5.17913">
        <ele>157</ele>
        <time>2015-03-22T14:33:07Z</time>
      </trkpt>
      <trkpt lat="50.08092" lon="5.17904">
        <ele>156</ele>
        <time>2015-03-22T14:33:12Z</time>
      </trkpt>
      <trkpt lat="50.08095" lon="5.17895">
        <ele>155</ele>
        <time>2015-03-22T14:33:18Z</time>
      </trkpt>
      <trkpt lat="50.08099" lon="5.17886">
        <ele>154</ele>
        <time>2015-03-22T14:33:23Z</time>
      </trkpt>
      <trkpt lat="50.08103" lon="5.17879">
        <ele>154</ele>
        <time>2015-03-22T14:33:29Z</time>
      </trkpt>
      <trkpt lat="50.08108" lon="5.17872">
        <ele>153</ele>
        <time>2015-03-22T14:33:34Z</time>
      </trkpt>
      <trkpt lat="50.08111" lon="5.17865">
        <ele>153</ele>
        <time>2015-03-22T14:33:40Z</time>
      </trkpt>
      <trkpt lat="50.08113" lon="5.17856">
        <ele>152</ele>
        <time>2015-03-22T14:33:45Z</time>
      </trkpt>
      <trkpt lat="50.08113" lon="5.17853">
        <ele>152</ele>
        <time>2015-03-22T14:33:51Z</time>
      </trkpt>
      <trkpt lat="50.08113" lon="5.17852">
        <ele>152</ele>
        <time>2015-03-22T14:33:56Z</time>
      </trkpt>
      <trkpt lat="50.08114" lon="5.17852">
        <ele>152</ele>
        <time>2015-03-22T14:34:03Z</time>
      </trkpt>
      <trkpt lat="50.08115" lon="5.17852">
        <ele>152</ele>
        <time>2015-03-22T14:34:10Z</time>
      </trkpt>
      <trkpt lat="50.08116" lon="5.17852">
        <ele>152</ele>
        <time>2015-03-22T14:34:15Z</time>
      </trkpt>
      <trkpt lat="50.08117" lon="5.17852">
        <ele>151</ele>
        <time>2015-03-22T14:34:21Z</time>
      </trkpt>
      <trkpt lat="50.08117" lon="5.17853">
        <ele>152</ele>
        <time>2015-03-22T14:34:27Z</time>
      </trkpt>
      <trkpt lat="50.08118" lon="5.17849">
        <ele>152</ele>
        <time>2015-03-22T14:34:32Z</time>
      </trkpt>
      <trkpt lat="50.08119" lon="5.17842">
        <ele>152</ele>
        <time>2015-03-22T14:34:38Z</time>
      </trkpt>
      <trkpt lat="50.08121" lon="5.17835">
        <ele>152</ele>
        <time>2015-03-22T14:34:43Z</time>
      </trkpt>
      <trkpt lat="50.08123" lon="5.17829">
        <ele>151</ele>
        <time>2015-03-22T14:34:49Z</time>
      </trkpt>
      <trkpt lat="50.08123" lon="5.17827">
        <ele>151</ele>
        <time>2015-03-22T14:34:54Z</time>
      </trkpt>
      <trkpt lat="50.08123" lon="5.17826">
        <ele>151</ele>
        <time>2015-03-22T14:35:00Z</time>
      </trkpt>
      <trkpt lat="50.08122" lon="5.17826">
        <ele>150</ele>
        <time>2015-03-22T14:35:06Z</time>
      </trkpt>
      <trkpt lat="50.08124" lon="5.17821">
        <ele>151</ele>
        <time>2015-03-22T14:35:12Z</time>
      </trkpt>
      <trkpt lat="50.08127" lon="5.17812">
        <ele>150</ele>
        <time>2015-03-22T14:35:17Z</time>
      </trkpt>
      <trkpt lat="50.08128" lon="5.17807">
        <ele>150</ele>
        <time>2015-03-22T14:35:23Z</time>
      </trkpt>
      <trkpt lat="50.0813" lon="5.17801">
        <ele>149</ele>
        <time>2015-03-22T14:35:28Z</time>
      </trkpt>
      <trkpt lat="50.08131" lon="5.178">
        <ele>149</ele>
        <time>2015-03-22T14:35:34Z</time>
      </trkpt>
      <trkpt lat="50.08131" lon="5.17798">
        <ele>149</ele>
        <time>2015-03-22T14:35:40Z</time>
      </trkpt>
      <trkpt lat="50.08132" lon="5.17797">
        <ele>149</ele>
        <time>2015-03-22T14:35:45Z</time>
      </trkpt>
      <trkpt lat="50.08134" lon="5.17797">
        <ele>149</ele>
        <time>2015-03-22T14:35:50Z</time>
      </trkpt>
      <trkpt lat="50.08135" lon="5.17796">
        <ele>149</ele>
        <time>2015-03-22T14:35:56Z</time>
      </trkpt>
      <trkpt lat="50.08136" lon="5.17797">
        <ele>149</ele>
        <time>2015-03-22T14:36:03Z</time>
      </trkpt>
      <trkpt lat="50.08137" lon="5.17797">
        <ele>149</ele>
        <time>2015-03-22T14:36:08Z</time>
      </trkpt>
      <trkpt lat="50.08137" lon="5.17797">
        <ele>148</ele>
        <time>2015-03-22T14:36:14Z</time>
      </trkpt>
      <trkpt lat="50.08137" lon="5.17798">
        <ele>148</ele>
        <time>2015-03-22T14:36:19Z</time>
      </trkpt>
      <trkpt lat="50.08137" lon="5.17798">
        <ele>149</ele>
        <time>2015-03-22T14:36:25Z</time>
      </trkpt>
      <trkpt lat="50.08137" lon="5.17799">
        <ele>149</ele>
        <time>2015-03-22T14:36:31Z</time>
      </trkpt>
      <trkpt lat="50.08137" lon="5.17799">
        <ele>149</ele>
        <time>2015-03-22T14:36:38Z</time>
      </trkpt>
      <trkpt lat="50.08136" lon="5.17798">
        <ele>149</ele>
        <time>2015-03-22T14:36:45Z</time>
      </trkpt>
      <trkpt lat="50.08136" lon="5.17792">
        <ele>149</ele>
        <time>2015-03-22T14:36:50Z</time>
      </trkpt>
      <trkpt lat="50.08136" lon="5.17787">
        <ele>149</ele>
        <time>2015-03-22T14:36:55Z</time>
      </trkpt>
      <trkpt lat="50.08136" lon="5.17787">
        <ele>149</ele>
        <time>2015-03-22T14:37:01Z</time>
      </trkpt>
      <trkpt lat="50.08136" lon="5.17786">
        <ele>149</ele>
        <time>2015-03-22T14:37:06Z</time>
      </trkpt>
      <trkpt lat="50.08136" lon="5.17785">
        <ele>149</ele>
        <time>2015-03-22T14:37:11Z</time>
      </trkpt>
      <trkpt lat="50.08137" lon="5.17783">
        <ele>149</ele>
        <time>2015-03-22T14:37:16Z</time>
      </trkpt>
      <trkpt lat="50.08139" lon="5.17779">
        <ele>148</ele>
        <time>2015-03-22T14:37:21Z</time>
      </trkpt>
      <trkpt lat="50.08141" lon="5.17774">
        <ele>148</ele>
        <time>2015-03-22T14:37:27Z</time>
      </trkpt>
      <trkpt lat="50.08142" lon="5.17768">
        <ele>148</ele>
        <time>2015-03-22T14:37:32Z</time>
      </trkpt>
      <trkpt lat="50.08143" lon="5.17767">
        <ele>147</ele>
        <time>2015-03-22T14:37:38Z</time>
      </trkpt>
      <trkpt lat="50.08143" lon="5.17767">
        <ele>147</ele>
        <time>2015-03-22T14:37:43Z</time>
      </trkpt>
      <trkpt lat="50.08144" lon="5.17766">
        <ele>147</ele>
        <time>2015-03-22T14:37:48Z</time>
      </trkpt>
      <trkpt lat="50.08144" lon="5.17766">
        <ele>147</ele>
        <time>2015-03-22T14:37:53Z</time>
      </trkpt>
      <trkpt lat="50.08145" lon="5.17765">
        <ele>147</ele>
        <time>2015-03-22T14:37:59Z</time>
      </trkpt>
      <trkpt lat="50.08146" lon="5.17765">
        <ele>147</ele>
        <time>2015-03-22T14:38:05Z</time>
      </trkpt>
      <trkpt lat="50.08147" lon="5.17766">
        <ele>147</ele>
        <time>2015-03-22T14:38:10Z</time>
      </trkpt>
      <trkpt lat="50.08148" lon="5.17766">
        <ele>147</ele>
        <time>2015-03-22T14:38:15Z</time>
      </trkpt>
      <trkpt lat="50.0815" lon="5.17767">
        <ele>147</ele>
        <time>2015-03-22T14:38:21Z</time>
      </trkpt>
      <trkpt lat="50.08152" lon="5.17768">
        <ele>147</ele>
        <time>2015-03-22T14:38:27Z</time>
      </trkpt>
      <trkpt lat="50.08153" lon="5.17769">
        <ele>147</ele>
        <time>2015-03-22T14:38:33Z</time>
      </trkpt>
      <trkpt lat="50.08153" lon="5.17767">
        <ele>147</ele>
        <time>2015-03-22T14:38:38Z</time>
      </trkpt>
      <trkpt lat="50.08154" lon="5.17764">
        <ele>147</ele>
        <time>2015-03-22T14:38:43Z</time>
      </trkpt>
      <trkpt lat="50.08153" lon="5.17762">
        <ele>147</ele>
        <time>2015-03-22T14:38:49Z</time>
      </trkpt>
      <trkpt lat="50.08154" lon="5.17758">
        <ele>146</ele>
        <time>2015-03-22T14:38:55Z</time>
      </trkpt>
      <trkpt lat="50.08155" lon="5.17751">
        <ele>146</ele>
        <time>2015-03-22T14:39:00Z</time>
      </trkpt>
      <trkpt lat="50.08157" lon="5.17744">
        <ele>146</ele>
        <time>2015-03-22T14:39:06Z</time>
      </trkpt>
      <trkpt lat="50.08158" lon="5.17735">
        <ele>146</ele>
        <time>2015-03-22T14:39:11Z</time>
      </trkpt>
      <trkpt lat="50.0816" lon="5.17728">
        <ele>145</ele>
        <time>2015-03-22T14:39:17Z</time>
      </trkpt>
      <trkpt lat="50.0816" lon="5.17726">
        <ele>144</ele>
        <time>2015-03-22T14:39:23Z</time>
      </trkpt>
      <trkpt lat="50.08158" lon="5.17726">
        <ele>144</ele>
        <time>2015-03-22T14:39:28Z</time>
      </trkpt>
      <trkpt lat="50.08159" lon="5.17724">
        <ele>144</ele>
        <time>2015-03-22T14:39:33Z</time>
      </trkpt>
      <trkpt lat="50.0816" lon="5.17723">
        <ele>144</ele>
        <time>2015-03-22T14:39:39Z</time>
      </trkpt>
      <trkpt lat="50.08163" lon="5.17716">
        <ele>145</ele>
        <time>2015-03-22T14:39:45Z</time>
      </trkpt>
      <trkpt lat="50.08165" lon="5.17705">
        <ele>144</ele>
        <time>2015-03-22T14:39:50Z</time>
      </trkpt>
      <trkpt lat="50.08167" lon="5.17698">
        <ele>143</ele>
        <time>2015-03-22T14:39:56Z</time>
      </trkpt>
      <trkpt lat="50.08171" lon="5.1769">
        <ele>141</ele>
        <time>2015-03-22T14:40:02Z</time>
      </trkpt>
      <trkpt lat="50.08176" lon="5.17688">
        <ele>140</ele>
        <time>2015-03-22T14:40:07Z</time>
      </trkpt>
      <trkpt lat="50.08182" lon="5.17689">
        <ele>140</ele>
        <time>2015-03-22T14:40:12Z</time>
      </trkpt>
      <trkpt lat="50.08188" lon="5.1769">
        <ele>138</ele>
        <time>2015-03-22T14:40:17Z</time>
      </trkpt>
      <trkpt lat="50.08193" lon="5.1769">
        <ele>137</ele>
        <time>2015-03-22T14:40:22Z</time>
      </trkpt>
      <trkpt lat="50.08199" lon="5.1769">
        <ele>136</ele>
        <time>2015-03-22T14:40:27Z</time>
      </trkpt>
      <trkpt lat="50.08205" lon="5.1769">
        <ele>136</ele>
        <time>2015-03-22T14:40:32Z</time>
      </trkpt>
      <trkpt lat="50.08213" lon="5.17691">
        <ele>135</ele>
        <time>2015-03-22T14:40:37Z</time>
      </trkpt>
      <trkpt lat="50.08221" lon="5.1769">
        <ele>134</ele>
        <time>2015-03-22T14:40:44Z</time>
      </trkpt>
      <trkpt lat="50.08228" lon="5.17691">
        <ele>133</ele>
        <time>2015-03-22T14:40:49Z</time>
      </trkpt>
      <trkpt lat="50.08234" lon="5.17694">
        <ele>133</ele>
        <time>2015-03-22T14:40:54Z</time>
      </trkpt>
      <trkpt lat="50.08239" lon="5.17695">
        <ele>133</ele>
        <time>2015-03-22T14:40:59Z</time>
      </trkpt>
      <trkpt lat="50.08244" lon="5.17698">
        <ele>133</ele>
        <time>2015-03-22T14:41:05Z</time>
      </trkpt>
      <trkpt lat="50.08249" lon="5.17701">
        <ele>133</ele>
        <time>2015-03-22T14:41:10Z</time>
      </trkpt>
      <trkpt lat="50.08253" lon="5.17705">
        <ele>133</ele>
        <time>2015-03-22T14:41:15Z</time>
      </trkpt>
      <trkpt lat="50.08255" lon="5.17708">
        <ele>133</ele>
        <time>2015-03-22T14:41:22Z</time>
      </trkpt>
      <trkpt lat="50.08262" lon="5.1771">
        <ele>133</ele>
        <time>2015-03-22T14:41:27Z</time>
      </trkpt>
      <trkpt lat="50.08268" lon="5.17711">
        <ele>133</ele>
        <time>2015-03-22T14:41:33Z</time>
      </trkpt>
      <trkpt lat="50.08274" lon="5.17712">
        <ele>133</ele>
        <time>2015-03-22T14:41:38Z</time>
      </trkpt>
      <trkpt lat="50.08278" lon="5.17713">
        <ele>132</ele>
        <time>2015-03-22T14:41:43Z</time>
      </trkpt>
      <trkpt lat="50.08282" lon="5.17714">
        <ele>132</ele>
        <time>2015-03-22T14:41:50Z</time>
      </trkpt>
      <trkpt lat="50.08288" lon="5.17715">
        <ele>131</ele>
        <time>2015-03-22T14:41:56Z</time>
      </trkpt>
      <trkpt lat="50.0829" lon="5.17715">
        <ele>131</ele>
        <time>2015-03-22T14:42:01Z</time>
      </trkpt>
      <trkpt lat="50.08291" lon="5.17716">
        <ele>132</ele>
        <time>2015-03-22T14:42:06Z</time>
      </trkpt>
      <trkpt lat="50.08296" lon="5.17716">
        <ele>131</ele>
        <time>2015-03-22T14:42:11Z</time>
      </trkpt>
      <trkpt lat="50.08303" lon="5.17715">
        <ele>130</ele>
        <time>2015-03-22T14:42:17Z</time>
      </trkpt>
      <trkpt lat="50.08312" lon="5.17713">
        <ele>130</ele>
        <time>2015-03-22T14:42:23Z</time>
      </trkpt>
      <trkpt lat="50.08319" lon="5.17712">
        <ele>129</ele>
        <time>2015-03-22T14:42:29Z</time>
      </trkpt>
      <trkpt lat="50.08326" lon="5.17706">
        <ele>129</ele>
        <time>2015-03-22T14:42:34Z</time>
      </trkpt>
      <trkpt lat="50.08332" lon="5.17699">
        <ele>129</ele>
        <time>2015-03-22T14:42:39Z</time>
      </trkpt>
      <trkpt lat="50.08337" lon="5.17695">
        <ele>128</ele>
        <time>2015-03-22T14:42:44Z</time>
      </trkpt>
      <trkpt lat="50.08341" lon="5.17689">
        <ele>128</ele>
        <time>2015-03-22T14:42:50Z</time>
      </trkpt>
      <trkpt lat="50.08344" lon="5.17684">
        <ele>129</ele>
        <time>2015-03-22T14:42:56Z</time>
      </trkpt>
      <trkpt lat="50.08349" lon="5.17676">
        <ele>128</ele>
        <time>2015-03-22T14:43:01Z</time>
      </trkpt>
      <trkpt lat="50.08353" lon="5.17668">
        <ele>128</ele>
        <time>2015-03-22T14:43:08Z</time>
      </trkpt>
      <trkpt lat="50.08356" lon="5.17659">
        <ele>128</ele>
        <time>2015-03-22T14:43:14Z</time>
      </trkpt>
      <trkpt lat="50.08361" lon="5.1765">
        <ele>128</ele>
        <time>2015-03-22T14:43:19Z</time>
      </trkpt>
      <trkpt lat="50.08365" lon="5.17642">
        <ele>127</ele>
        <time>2015-03-22T14:43:25Z</time>
      </trkpt>
      <trkpt lat="50.08368" lon="5.17634">
        <ele>127</ele>
        <time>2015-03-22T14:43:30Z</time>
      </trkpt>
      <trkpt lat="50.08372" lon="5.17626">
        <ele>128</ele>
        <time>2015-03-22T14:43:36Z</time>
      </trkpt>
      <trkpt lat="50.08376" lon="5.1762">
        <ele>127</ele>
        <time>2015-03-22T14:43:42Z</time>
      </trkpt>
      <trkpt lat="50.0838" lon="5.17614">
        <ele>127</ele>
        <time>2015-03-22T14:43:47Z</time>
      </trkpt>
      <trkpt lat="50.08384" lon="5.17609">
        <ele>127</ele>
        <time>2015-03-22T14:43:53Z</time>
      </trkpt>
      <trkpt lat="50.08388" lon="5.17602">
        <ele>127</ele>
        <time>2015-03-22T14:43:58Z</time>
      </trkpt>
      <trkpt lat="50.08392" lon="5.17599">
        <ele>127</ele>
        <time>2015-03-22T14:44:03Z</time>
      </trkpt>
      <trkpt lat="50.08396" lon="5.17594">
        <ele>127</ele>
        <time>2015-03-22T14:44:08Z</time>
      </trkpt>
      <trkpt lat="50.08401" lon="5.17589">
        <ele>127</ele>
        <time>2015-03-22T14:44:14Z</time>
      </trkpt>
      <trkpt lat="50.08407" lon="5.17582">
        <ele>126</ele>
        <time>2015-03-22T14:44:20Z</time>
      </trkpt>
      <trkpt lat="50.08411" lon="5.17577">
        <ele>126</ele>
        <time>2015-03-22T14:44:25Z</time>
      </trkpt>
      <trkpt lat="50.08416" lon="5.17572">
        <ele>126</ele>
        <time>2015-03-22T14:44:30Z</time>
      </trkpt>
      <trkpt lat="50.0842" lon="5.17568">
        <ele>126</ele>
        <time>2015-03-22T14:44:35Z</time>
      </trkpt>
      <trkpt lat="50.0842" lon="5.1756">
        <ele>127</ele>
        <time>2015-03-22T14:44:41Z</time>
      </trkpt>
      <trkpt lat="50.0842" lon="5.17556">
        <ele>127</ele>
        <time>2015-03-22T14:44:46Z</time>
      </trkpt>
      <trkpt lat="50.08419" lon="5.17555">
        <ele>126</ele>
        <time>2015-03-22T14:44:52Z</time>
      </trkpt>
      <trkpt lat="50.08419" lon="5.17556">
        <ele>126</ele>
        <time>2015-03-22T14:44:58Z</time>
      </trkpt>
      <trkpt lat="50.0842" lon="5.17556">
        <ele>126</ele>
        <time>2015-03-22T14:45:04Z</time>
      </trkpt>
      <trkpt lat="50.08418" lon="5.17551">
        <ele>126</ele>
        <time>2015-03-22T14:45:09Z</time>
      </trkpt>
      <trkpt lat="50.08418" lon="5.17544">
        <ele>126</ele>
        <time>2015-03-22T14:45:16Z</time>
      </trkpt>
      <trkpt lat="50.08422" lon="5.17539">
        <ele>127</ele>
        <time>2015-03-22T14:45:21Z</time>
      </trkpt>
      <trkpt lat="50.08426" lon="5.17537">
        <ele>128</ele>
        <time>2015-03-22T14:45:26Z</time>
      </trkpt>
      <trkpt lat="50.0843" lon="5.17535">
        <ele>128</ele>
        <time>2015-03-22T14:45:32Z</time>
      </trkpt>
      <trkpt lat="50.08435" lon="5.17529">
        <ele>128</ele>
        <time>2015-03-22T14:45:38Z</time>
      </trkpt>
      <trkpt lat="50.08436" lon="5.17523">
        <ele>128</ele>
        <time>2015-03-22T14:45:44Z</time>
      </trkpt>
      <trkpt lat="50.08435" lon="5.17515">
        <ele>129</ele>
        <time>2015-03-22T14:45:50Z</time>
      </trkpt>
      <trkpt lat="50.08434" lon="5.17505">
        <ele>130</ele>
        <time>2015-03-22T14:45:56Z</time>
      </trkpt>
      <trkpt lat="50.08433" lon="5.17494">
        <ele>129</ele>
        <time>2015-03-22T14:46:02Z</time>
      </trkpt>
      <trkpt lat="50.08434" lon="5.17484">
        <ele>130</ele>
        <time>2015-03-22T14:46:08Z</time>
      </trkpt>
      <trkpt lat="50.08433" lon="5.17477">
        <ele>130</ele>
        <time>2015-03-22T14:46:14Z</time>
      </trkpt>
      <trkpt lat="50.08432" lon="5.17477">
        <ele>129</ele>
        <time>2015-03-22T14:46:20Z</time>
      </trkpt>
      <trkpt lat="50.08433" lon="5.17476">
        <ele>129</ele>
        <time>2015-03-22T14:46:26Z</time>
      </trkpt>
      <trkpt lat="50.08434" lon="5.17476">
        <ele>129</ele>
        <time>2015-03-22T14:46:32Z</time>
      </trkpt>
      <trkpt lat="50.08435" lon="5.17475">
        <ele>129</ele>
        <time>2015-03-22T14:46:37Z</time>
      </trkpt>
      <trkpt lat="50.08434" lon="5.17476">
        <ele>129</ele>
        <time>2015-03-22T14:46:43Z</time>
      </trkpt>
      <trkpt lat="50.08435" lon="5.17474">
        <ele>129</ele>
        <time>2015-03-22T14:46:49Z</time>
      </trkpt>
      <trkpt lat="50.08435" lon="5.17468">
        <ele>129</ele>
        <time>2015-03-22T14:46:54Z</time>
      </trkpt>
      <trkpt lat="50.08435" lon="5.17466">
        <ele>129</ele>
        <time>2015-03-22T14:47:07Z</time>
      </trkpt>
      <trkpt lat="50.08433" lon="5.17469">
        <ele>128</ele>
        <time>2015-03-22T14:47:13Z</time>
      </trkpt>
      <trkpt lat="50.08432" lon="5.17469">
        <ele>129</ele>
        <time>2015-03-22T14:47:18Z</time>
      </trkpt>
      <trkpt lat="50.08427" lon="5.17472">
        <ele>129</ele>
        <time>2015-03-22T14:47:23Z</time>
      </trkpt>
      <trkpt lat="50.08427" lon="5.17472">
        <ele>128</ele>
        <time>2015-03-22T14:47:28Z</time>
      </trkpt>
      <trkpt lat="50.08429" lon="5.17474">
        <ele>128</ele>
        <time>2015-03-22T14:47:33Z</time>
      </trkpt>
      <trkpt lat="50.08433" lon="5.17474">
        <ele>128</ele>
        <time>2015-03-22T14:47:39Z</time>
      </trkpt>
      <trkpt lat="50.08433" lon="5.17476">
        <ele>128</ele>
        <time>2015-03-22T14:47:45Z</time>
      </trkpt>
      <trkpt lat="50.08433" lon="5.17475">
        <ele>128</ele>
        <time>2015-03-22T14:47:50Z</time>
      </trkpt>
      <trkpt lat="50.08433" lon="5.17474">
        <ele>128</ele>
        <time>2015-03-22T14:47:55Z</time>
      </trkpt>
      <trkpt lat="50.08435" lon="5.17472">
        <ele>128</ele>
        <time>2015-03-22T14:48:01Z</time>
      </trkpt>
      <trkpt lat="50.08435" lon="5.17471">
        <ele>128</ele>
        <time>2015-03-22T14:48:06Z</time>
      </trkpt>
      <trkpt lat="50.08435" lon="5.17471">
        <ele>128</ele>
        <time>2015-03-22T14:48:11Z</time>
      </trkpt>
      <trkpt lat="50.08435" lon="5.17473">
        <ele>128</ele>
        <time>2015-03-22T14:48:17Z</time>
      </trkpt>
      <trkpt lat="50.08439" lon="5.17479">
        <ele>128</ele>
        <time>2015-03-22T14:48:39Z</time>
      </trkpt>
      <trkpt lat="50.08437" lon="5.17472">
        <ele>128</ele>
        <time>2015-03-22T14:48:44Z</time>
      </trkpt>
      <trkpt lat="50.08438" lon="5.17467">
        <ele>128</ele>
        <time>2015-03-22T14:48:50Z</time>
      </trkpt>
      <trkpt lat="50.08437" lon="5.17464">
        <ele>128</ele>
        <time>2015-03-22T14:48:55Z</time>
      </trkpt>
      <trkpt lat="50.08434" lon="5.1747">
        <ele>129</ele>
        <time>2015-03-22T14:49:01Z</time>
      </trkpt>
      <trkpt lat="50.08432" lon="5.17475">
        <ele>128</ele>
        <time>2015-03-22T14:49:06Z</time>
      </trkpt>
      <trkpt lat="50.08427" lon="5.17476">
        <ele>128</ele>
        <time>2015-03-22T14:49:12Z</time>
      </trkpt>
      <trkpt lat="50.08429" lon="5.17475">
        <ele>128</ele>
        <time>2015-03-22T14:49:17Z</time>
      </trkpt>
      <trkpt lat="50.0843" lon="5.17472">
        <ele>128</ele>
        <time>2015-03-22T14:49:22Z</time>
      </trkpt>
      <trkpt lat="50.08431" lon="5.17469">
        <ele>129</ele>
        <time>2015-03-22T14:49:28Z</time>
      </trkpt>
      <trkpt lat="50.08431" lon="5.17467">
        <ele>128</ele>
        <time>2015-03-22T14:49:33Z</time>
      </trkpt>
      <trkpt lat="50.08426" lon="5.1747">
        <ele>128</ele>
        <time>2015-03-22T14:49:39Z</time>
      </trkpt>
      <trkpt lat="50.08427" lon="5.17471">
        <ele>128</ele>
        <time>2015-03-22T14:49:45Z</time>
      </trkpt>
      <trkpt lat="50.08428" lon="5.17469">
        <ele>128</ele>
        <time>2015-03-22T14:49:50Z</time>
      </trkpt>
      <trkpt lat="50.0843" lon="5.17467">
        <ele>128</ele>
        <time>2015-03-22T14:49:56Z</time>
      </trkpt>
      <trkpt lat="50.0843" lon="5.17467">
        <ele>128</ele>
        <time>2015-03-22T14:50:02Z</time>
      </trkpt>
      <trkpt lat="50.0843" lon="5.17465">
        <ele>128</ele>
        <time>2015-03-22T14:50:08Z</time>
      </trkpt>
      <trkpt lat="50.0843" lon="5.17455">
        <ele>128</ele>
        <time>2015-03-22T14:50:13Z</time>
      </trkpt>
      <trkpt lat="50.08426" lon="5.17461">
        <ele>128</ele>
        <time>2015-03-22T14:50:18Z</time>
      </trkpt>
      <trkpt lat="50.08424" lon="5.1746">
        <ele>128</ele>
        <time>2015-03-22T14:50:23Z</time>
      </trkpt>
      <trkpt lat="50.08424" lon="5.17457">
        <ele>128</ele>
        <time>2015-03-22T14:50:28Z</time>
      </trkpt>
      <trkpt lat="50.08425" lon="5.1746">
        <ele>128</ele>
        <time>2015-03-22T14:50:34Z</time>
      </trkpt>
      <trkpt lat="50.08425" lon="5.17459">
        <ele>128</ele>
        <time>2015-03-22T14:50:40Z</time>
      </trkpt>
      <trkpt lat="50.08429" lon="5.17459">
        <ele>128</ele>
        <time>2015-03-22T14:50:45Z</time>
      </trkpt>
      <trkpt lat="50.08431" lon="5.17461">
        <ele>128</ele>
        <time>2015-03-22T14:50:50Z</time>
      </trkpt>
      <trkpt lat="50.08436" lon="5.17457">
        <ele>128</ele>
        <time>2015-03-22T14:50:56Z</time>
      </trkpt>
      <trkpt lat="50.08437" lon="5.17455">
        <ele>128</ele>
        <time>2015-03-22T14:51:02Z</time>
      </trkpt>
      <trkpt lat="50.08434" lon="5.17462">
        <ele>128</ele>
        <time>2015-03-22T14:51:07Z</time>
      </trkpt>
      <trkpt lat="50.08432" lon="5.17454">
        <ele>128</ele>
        <time>2015-03-22T14:51:13Z</time>
      </trkpt>
      <trkpt lat="50.08432" lon="5.1745">
        <ele>127</ele>
        <time>2015-03-22T14:51:18Z</time>
      </trkpt>
      <trkpt lat="50.08438" lon="5.1745">
        <ele>127</ele>
        <time>2015-03-22T14:51:24Z</time>
      </trkpt>
      <trkpt lat="50.08431" lon="5.17459">
        <ele>128</ele>
        <time>2015-03-22T14:52:20Z</time>
      </trkpt>
      <trkpt lat="50.08447" lon="5.17456">
        <ele>128</ele>
        <time>2015-03-22T14:53:01Z</time>
      </trkpt>
      <trkpt lat="50.08449" lon="5.17474">
        <ele>128</ele>
        <time>2015-03-22T14:53:06Z</time>
      </trkpt>
      <trkpt lat="50.08461" lon="5.175">
        <ele>128</ele>
        <time>2015-03-22T14:53:12Z</time>
      </trkpt>
      <trkpt lat="50.08463" lon="5.17513">
        <ele>128</ele>
        <time>2015-03-22T14:53:18Z</time>
      </trkpt>
      <trkpt lat="50.08452" lon="5.17502">
        <ele>128</ele>
        <time>2015-03-22T14:53:24Z</time>
      </trkpt>
      <trkpt lat="50.08447" lon="5.17492">
        <ele>128</ele>
        <time>2015-03-22T14:53:30Z</time>
      </trkpt>
      <trkpt lat="50.0844" lon="5.17484">
        <ele>128</ele>
        <time>2015-03-22T14:53:35Z</time>
      </trkpt>
      <trkpt lat="50.0844" lon="5.1748">
        <ele>128</ele>
        <time>2015-03-22T14:53:41Z</time>
      </trkpt>
      <trkpt lat="50.08437" lon="5.17475">
        <ele>128</ele>
        <time>2015-03-22T14:53:47Z</time>
      </trkpt>
      <trkpt lat="50.08444" lon="5.17473">
        <ele>128</ele>
        <time>2015-03-22T14:53:53Z</time>
      </trkpt>
      <trkpt lat="50.08447" lon="5.17467">
        <ele>128</ele>
        <time>2015-03-22T14:53:59Z</time>
      </trkpt>
      <trkpt lat="50.08442" lon="5.1746">
        <ele>128</ele>
        <time>2015-03-22T14:54:05Z</time>
      </trkpt>
      <trkpt lat="50.08437" lon="5.17461">
        <ele>128</ele>
        <time>2015-03-22T14:54:11Z</time>
      </trkpt>
      <trkpt lat="50.08437" lon="5.17468">
        <ele>128</ele>
        <time>2015-03-22T14:54:35Z</time>
      </trkpt>
      <trkpt lat="50.08439" lon="5.17472">
        <ele>127</ele>
        <time>2015-03-22T14:54:36Z</time>
      </trkpt>
    </trkseg>
  </trk>
</gpx>